[[{"header":{"parameterUnit":"m.s-1","parameterCategory":1,"la1":30.6,"la2":29.2853,"lo1":-89.7004,"lo2":-87.6739,"dy":0.0162,"dx":0.0183,"nx":112,"ny":82,"refTime":"2023-06-15T00:00:00:Z","depth":0,"parameterNumber":2,"parameterNumberName":"U-component_of_WINDS"},"data":[0.0,0.0,0.0,0.0,0.0,0.0,0.0,0.0,0.0,0.0,0.0,0.0,0.0,0.0,0.0,0.0,0.0,0.0,0.0,0.0,0.0,0.0,0.0,0.0,0.0,0.0,0.0,0.0,0.0,0.0,0.0,0.0,0.0,0.0,0.0,0.0,0.0,0.0,0.0,0.0,0.0,0.0,0.0,0.0,0.0,0.0,0.0,0.0,0.0,0.0,0.0,0.0,0.0,0.0,0.0,0.0,0.0,0.0,0.0,0.0,0.0,0.0,0.0,0.0,0.0,0.0,0.0,0.0,0.0,0.0,0.0,0.0,0.0,0.0,0.0,0.0,0.0,0.0,0.0,0.0,0.0,0.0,0.0,0.0,0.0,0.0,0.0,0.0,0.0,0.0,0.0,-5.8164,-5.8476,-5.8665,-5.8727,-5.8967,-5.9178,-5.9215,0.0,0.0,0.0,0.0,0.0,0.0,0.0,0.0,0.0,0.0,0.0,0.0,0.0,0.0,0.0,0.0,0.0,0.0,0.0,0.0,0.0,0.0,0.0,0.0,0.0,0.0,0.0,0.0,0.0,0.0,0.0,0.0,0.0,0.0,0.0,0.0,0.0,0.0,0.0,0.0,0.0,0.0,0.0,0.0,0.0,0.0,0.0,0.0,0.0,0.0,0.0,0.0,0.0,0.0,0.0,0.0,0.0,0.0,0.0,0.0,0.0,0.0,0.0,0.0,0.0,0.0,0.0,0.0,0.0,0.0,0.0,0.0,0.0,0.0,0.0,0.0,0.0,0.0,0.0,0.0,0.0,0.0,0.0,0.0,0.0,0.0,0.0,0.0,0.0,0.0,0.0,0.0,0.0,0.0,0.0,0.0,0.0,0.0,0.0,0.0,0.0,0.0,0.0,0.0,-5.7363,-5.7821,-5.7914,-5.8074,-5.8326,-5.8412,-5.8561,-5.8848,0.0,0.0,0.0,0.0,0.0,0.0,0.0,0.0,0.0,0.0,0.0,0.0,0.0,0.0,0.0,0.0,0.0,0.0,0.0,0.0,0.0,0.0,0.0,0.0,0.0,0.0,0.0,0.0,0.0,0.0,0.0,0.0,0.0,0.0,0.0,0.0,0.0,0.0,0.0,0.0,0.0,0.0,0.0,0.0,0.0,0.0,0.0,0.0,0.0,0.0,0.0,0.0,0.0,0.0,0.0,0.0,0.0,0.0,0.0,0.0,0.0,0.0,0.0,0.0,0.0,0.0,0.0,0.0,0.0,0.0,0.0,0.0,0.0,0.0,0.0,0.0,0.0,0.0,0.0,0.0,0.0,0.0,0.0,0.0,0.0,0.0,0.0,0.0,0.0,0.0,0.0,0.0,0.0,0.0,0.0,0.0,0.0,0.0,0.0,0.0,0.0,0.0,0.0,-5.7188,-5.7264,-5.7437,-5.7655,-5.7844,-5.8006,-5.8209,-5.8434,-5.8767,-5.8927,0.0,0.0,0.0,0.0,0.0,0.0,0.0,0.0,0.0,0.0,0.0,0.0,0.0,0.0,0.0,0.0,0.0,0.0,0.0,0.0,0.0,0.0,0.0,0.0,0.0,0.0,0.0,0.0,0.0,0.0,0.0,0.0,0.0,0.0,0.0,0.0,0.0,0.0,0.0,0.0,0.0,0.0,0.0,0.0,0.0,0.0,0.0,0.0,0.0,0.0,0.0,0.0,0.0,0.0,0.0,0.0,0.0,0.0,0.0,0.0,0.0,0.0,0.0,0.0,0.0,0.0,0.0,0.0,0.0,0.0,0.0,0.0,0.0,0.0,0.0,0.0,0.0,0.0,0.0,0.0,0.0,0.0,0.0,0.0,0.0,0.0,0.0,0.0,0.0,0.0,0.0,0.0,0.0,0.0,0.0,0.0,0.0,0.0,0.0,0.0,0.0,0.0,-5.7188,-5.7188,-5.7188,-5.7461,-5.7655,-5.7655,-5.789,-5.8172,-5.854,-5.8644,0.0,0.0,0.0,0.0,0.0,0.0,0.0,0.0,0.0,0.0,0.0,0.0,0.0,0.0,0.0,0.0,0.0,0.0,0.0,0.0,0.0,0.0,0.0,0.0,0.0,0.0,0.0,0.0,0.0,0.0,0.0,0.0,0.0,0.0,0.0,0.0,0.0,0.0,0.0,0.0,0.0,0.0,0.0,0.0,0.0,0.0,0.0,0.0,0.0,0.0,0.0,0.0,0.0,0.0,0.0,0.0,0.0,0.0,0.0,0.0,0.0,0.0,0.0,0.0,0.0,0.0,0.0,0.0,0.0,0.0,0.0,0.0,0.0,0.0,0.0,0.0,0.0,0.0,0.0,0.0,0.0,0.0,0.0,0.0,0.0,0.0,0.0,0.0,0.0,0.0,0.0,0.0,0.0,0.0,0.0,0.0,0.0,0.0,0.0,0.0,0.0,0.0,-5.7188,-5.7188,-5.7188,-5.7213,-5.7239,-5.7239,-5.7264,-5.7437,-5.7821,-5.8164,0.0,0.0,0.0,0.0,0.0,0.0,0.0,0.0,0.0,0.0,0.0,0.0,0.0,0.0,0.0,0.0,0.0,0.0,0.0,0.0,0.0,0.0,0.0,0.0,0.0,0.0,0.0,0.0,0.0,0.0,0.0,0.0,0.0,0.0,0.0,0.0,0.0,0.0,0.0,0.0,0.0,0.0,0.0,0.0,0.0,0.0,0.0,0.0,0.0,0.0,0.0,0.0,0.0,0.0,0.0,0.0,0.0,0.0,0.0,0.0,0.0,0.0,0.0,0.0,0.0,0.0,0.0,0.0,0.0,0.0,0.0,0.0,0.0,0.0,0.0,0.0,0.0,0.0,0.0,0.0,0.0,0.0,0.0,0.0,0.0,0.0,0.0,0.0,0.0,0.0,0.0,0.0,0.0,0.0,0.0,0.0,0.0,0.0,0.0,0.0,0.0,0.0,-5.7188,-5.7188,0.0,-5.7188,-5.7188,-5.7188,-5.7188,-5.7363,-5.775,0.0,0.0,0.0,0.0,0.0,0.0,0.0,0.0,0.0,0.0,0.0,0.0,0.0,0.0,0.0,0.0,0.0,0.0,0.0,0.0,0.0,0.0,0.0,0.0,0.0,0.0,0.0,0.0,0.0,0.0,0.0,0.0,0.0,0.0,0.0,0.0,0.0,0.0,0.0,0.0,0.0,0.0,0.0,0.0,0.0,0.0,0.0,0.0,0.0,0.0,0.0,0.0,0.0,0.0,0.0,0.0,0.0,0.0,0.0,0.0,0.0,0.0,0.0,0.0,0.0,0.0,0.0,0.0,0.0,0.0,0.0,0.0,0.0,0.0,0.0,0.0,0.0,0.0,0.0,0.0,0.0,0.0,0.0,0.0,0.0,0.0,0.0,0.0,0.0,0.0,0.0,0.0,0.0,0.0,0.0,0.0,0.0,0.0,0.0,0.0,0.0,0.0,-5.7188,-5.7188,-5.7188,0.0,-5.7188,-5.7188,-5.7188,-5.7188,-5.7313,-5.7583,0.0,0.0,0.0,0.0,0.0,0.0,0.0,0.0,0.0,0.0,0.0,0.0,0.0,0.0,0.0,0.0,0.0,0.0,0.0,0.0,0.0,0.0,0.0,0.0,0.0,0.0,0.0,0.0,0.0,0.0,0.0,0.0,0.0,0.0,0.0,0.0,0.0,0.0,0.0,0.0,0.0,0.0,0.0,0.0,0.0,0.0,0.0,0.0,0.0,0.0,0.0,0.0,0.0,0.0,0.0,0.0,0.0,0.0,0.0,0.0,0.0,0.0,0.0,0.0,0.0,0.0,0.0,0.0,0.0,0.0,0.0,0.0,0.0,0.0,0.0,0.0,0.0,0.0,0.0,0.0,0.0,0.0,0.0,0.0,0.0,0.0,0.0,0.0,0.0,0.0,0.0,0.0,0.0,0.0,0.0,0.0,0.0,0.0,0.0,0.0,0.0,0.0,-5.7188,-5.7188,-5.7188,-5.7188,-5.7188,-5.7188,-5.7188,-5.7188,-5.7188,0.0,0.0,0.0,0.0,0.0,0.0,0.0,0.0,0.0,0.0,0.0,0.0,0.0,0.0,0.0,0.0,0.0,0.0,0.0,0.0,0.0,0.0,0.0,0.0,0.0,0.0,0.0,0.0,0.0,0.0,0.0,0.0,0.0,0.0,0.0,0.0,0.0,0.0,0.0,0.0,0.0,0.0,0.0,0.0,0.0,0.0,0.0,0.0,0.0,0.0,0.0,0.0,0.0,0.0,0.0,0.0,0.0,0.0,0.0,0.0,0.0,0.0,0.0,0.0,0.0,0.0,0.0,0.0,0.0,0.0,0.0,0.0,0.0,0.0,0.0,0.0,0.0,0.0,0.0,0.0,0.0,0.0,0.0,0.0,0.0,0.0,0.0,0.0,0.0,0.0,0.0,0.0,0.0,0.0,0.0,0.0,0.0,0.0,0.0,0.0,0.0,0.0,0.0,-5.7188,-5.7188,-5.7188,-5.7188,-5.7188,-5.7188,-5.7188,-5.7188,-5.7188,-5.7188,0.0,0.0,0.0,0.0,0.0,0.0,0.0,0.0,0.0,0.0,0.0,0.0,0.0,0.0,0.0,0.0,0.0,0.0,0.0,0.0,0.0,0.0,0.0,0.0,0.0,0.0,0.0,0.0,0.0,0.0,0.0,0.0,0.0,0.0,0.0,0.0,0.0,0.0,0.0,0.0,0.0,0.0,0.0,0.0,0.0,0.0,0.0,0.0,0.0,0.0,0.0,0.0,0.0,0.0,0.0,0.0,0.0,0.0,0.0,0.0,0.0,0.0,0.0,0.0,0.0,0.0,0.0,0.0,0.0,0.0,0.0,0.0,0.0,0.0,0.0,0.0,0.0,0.0,0.0,0.0,0.0,0.0,0.0,0.0,0.0,0.0,0.0,0.0,0.0,0.0,0.0,0.0,0.0,0.0,0.0,0.0,0.0,0.0,0.0,0.0,0.0,0.0,-5.7188,-5.7188,-5.7188,-5.7188,-5.7188,-5.7188,-5.7188,-5.7188,-5.7188,-5.7188,0.0,0.0,0.0,0.0,0.0,0.0,0.0,0.0,0.0,0.0,0.0,0.0,0.0,0.0,0.0,0.0,0.0,0.0,0.0,0.0,0.0,0.0,0.0,0.0,0.0,0.0,0.0,0.0,0.0,0.0,0.0,0.0,0.0,0.0,0.0,0.0,0.0,0.0,0.0,0.0,0.0,0.0,0.0,0.0,0.0,0.0,0.0,0.0,0.0,0.0,0.0,0.0,0.0,0.0,0.0,0.0,0.0,0.0,0.0,0.0,0.0,0.0,0.0,0.0,0.0,0.0,0.0,0.0,0.0,0.0,0.0,0.0,0.0,0.0,0.0,0.0,0.0,0.0,0.0,0.0,0.0,0.0,0.0,0.0,0.0,0.0,0.0,0.0,0.0,0.0,0.0,0.0,0.0,0.0,0.0,0.0,0.0,0.0,0.0,0.0,0.0,0.0,-5.7188,-5.7188,-5.7188,-5.7188,-5.7188,-5.7188,-5.7188,-5.7188,-5.7188,-5.7188,0.0,0.0,0.0,0.0,0.0,0.0,0.0,0.0,0.0,0.0,0.0,0.0,0.0,0.0,0.0,0.0,0.0,0.0,0.0,0.0,0.0,0.0,0.0,0.0,0.0,0.0,0.0,0.0,0.0,0.0,0.0,0.0,0.0,0.0,0.0,0.0,0.0,0.0,0.0,0.0,0.0,0.0,0.0,0.0,0.0,0.0,0.0,0.0,0.0,0.0,0.0,0.0,0.0,0.0,0.0,0.0,0.0,0.0,0.0,0.0,-6.1471,0.0,0.0,0.0,0.0,0.0,0.0,0.0,0.0,0.0,0.0,0.0,0.0,0.0,0.0,0.0,0.0,0.0,0.0,0.0,0.0,0.0,0.0,0.0,0.0,0.0,0.0,0.0,0.0,0.0,0.0,0.0,0.0,0.0,0.0,0.0,0.0,0.0,0.0,0.0,0.0,0.0,-5.7188,-5.7188,-5.7188,-5.7188,-5.7188,-5.7188,-5.7188,-5.7188,-5.7188,-5.7188,-5.7188,0.0,0.0,0.0,0.0,0.0,0.0,0.0,0.0,0.0,0.0,0.0,0.0,0.0,0.0,0.0,0.0,0.0,0.0,0.0,0.0,0.0,0.0,0.0,0.0,0.0,0.0,0.0,0.0,0.0,0.0,0.0,0.0,0.0,0.0,0.0,0.0,0.0,0.0,0.0,0.0,0.0,0.0,0.0,0.0,0.0,0.0,0.0,0.0,0.0,0.0,0.0,0.0,0.0,0.0,0.0,0.0,0.0,0.0,0.0,0.0,-6.1748,0.0,0.0,0.0,0.0,0.0,0.0,0.0,0.0,0.0,0.0,0.0,0.0,0.0,0.0,0.0,0.0,0.0,0.0,0.0,0.0,0.0,0.0,0.0,0.0,0.0,0.0,0.0,0.0,0.0,0.0,0.0,0.0,0.0,0.0,0.0,0.0,0.0,0.0,0.0,0.0,-5.8347,-5.8347,-5.8347,-5.8347,-5.8347,-5.8202,-5.7804,-5.7768,-5.7623,-5.7224,-5.7188,0.0,0.0,0.0,0.0,0.0,0.0,0.0,0.0,0.0,0.0,0.0,0.0,0.0,0.0,0.0,0.0,0.0,0.0,0.0,0.0,0.0,0.0,0.0,0.0,0.0,0.0,0.0,0.0,0.0,0.0,0.0,0.0,0.0,0.0,0.0,0.0,0.0,0.0,0.0,0.0,0.0,0.0,0.0,0.0,0.0,0.0,0.0,0.0,0.0,0.0,0.0,0.0,0.0,-6.3418,-6.3744,-6.4396,-6.4396,-6.4396,-6.4323,-6.2637,-6.1947,-6.2004,0.0,0.0,0.0,0.0,0.0,0.0,0.0,0.0,0.0,0.0,0.0,0.0,0.0,0.0,0.0,0.0,0.0,0.0,0.0,0.0,0.0,0.0,0.0,0.0,0.0,-5.9615,-5.9253,0.0,0.0,0.0,0.0,0.0,0.0,0.0,0.0,0.0,0.0,0.0,0.0,-5.9615,-5.9615,-5.9615,-5.9615,-5.9615,-5.9325,-5.8673,-5.8601,-5.8347,-5.7659,-5.7478,-5.7406,0.0,0.0,0.0,0.0,0.0,0.0,0.0,0.0,0.0,0.0,0.0,0.0,0.0,0.0,0.0,0.0,0.0,0.0,0.0,0.0,0.0,0.0,0.0,0.0,0.0,0.0,0.0,0.0,0.0,0.0,0.0,0.0,-5.5179,-5.5846,0.0,0.0,0.0,0.0,0.0,0.0,0.0,0.0,0.0,0.0,0.0,0.0,0.0,0.0,-6.2529,-6.3566,-6.4142,-6.4215,-6.4215,-6.4287,-6.4396,-6.4396,-6.4396,-6.4396,-6.3827,0.0,-6.3985,-6.3696,0.0,0.0,0.0,0.0,0.0,0.0,0.0,0.0,0.0,0.0,0.0,0.0,0.0,0.0,0.0,0.0,0.0,0.0,0.0,0.0,0.0,0.0,-5.9615,-5.9615,-5.9615,-5.9542,0.0,-5.9361,-5.9434,-5.9325,-5.947,0.0,0.0,0.0,0.0,0.0,0.0,0.0,-5.9615,-5.9615,-5.9615,-5.9615,-5.9615,-5.9579,-5.947,-5.9434,-5.9398,-5.9289,-5.8637,-5.8239,-5.8239,-5.755,0.0,0.0,0.0,0.0,0.0,0.0,0.0,0.0,0.0,0.0,0.0,0.0,0.0,0.0,0.0,0.0,0.0,0.0,0.0,0.0,0.0,0.0,0.0,0.0,0.0,0.0,0.0,0.0,0.0,-5.6339,-5.6388,-5.7228,-5.7629,-5.8296,0.0,0.0,0.0,0.0,0.0,0.0,0.0,0.0,0.0,-6.1777,-6.297,-6.3451,-6.3089,-6.3781,-6.4441,-6.5084,-6.5084,-6.5301,-6.5736,-6.5736,-6.5736,-6.5736,-6.559,-6.5619,-6.5634,-6.441,-6.3984,-6.4101,0.0,0.0,0.0,0.0,-6.3173,-6.2607,-6.1171,-6.034,0.0,0.0,0.0,0.0,0.0,0.0,0.0,0.0,0.0,0.0,0.0,0.0,0.0,-6.0303,-6.0388,-6.0472,-6.0874,-6.0955,-6.0701,0.0,-6.0339,-6.081,-6.0375,0.0,0.0,0.0,0.0,0.0,-6.0955,-6.0955,-6.0955,-6.0955,-6.0955,-6.0774,-6.0339,-6.0267,-6.0086,-5.9651,-5.9289,-5.8891,-5.842,-5.8058,-5.7659,0.0,0.0,0.0,0.0,0.0,0.0,0.0,0.0,0.0,0.0,0.0,0.0,0.0,0.0,0.0,0.0,0.0,0.0,0.0,0.0,0.0,0.0,0.0,0.0,0.0,0.0,0.0,0.0,-5.6796,-5.6865,-5.779,-5.7926,-5.8577,0.0,0.0,0.0,0.0,0.0,0.0,-6.0735,-6.1597,-6.2075,-6.215,-6.3306,-6.3882,-6.3821,-6.4404,-6.5179,-6.6207,-6.6424,-6.6822,-6.7402,-6.7402,-6.7402,-6.7402,-6.7402,-6.7402,-6.7263,-6.534,-6.4567,-6.4655,-6.4802,-6.4954,-6.4946,-6.4374,-6.3816,-6.3112,-6.1488,-6.0462,-5.9792,-5.9283,0.0,-5.8978,-5.9281,0.0,0.0,0.0,0.0,-5.9706,-5.9543,-5.9881,-6.0473,-6.1152,-6.1272,-6.1485,-6.2157,-6.2123,-6.1652,0.0,-6.1181,-6.1797,-6.1181,0.0,0.0,0.0,0.0,-6.1978,-6.1978,-6.1978,-6.1978,-6.1978,-6.1978,-6.1761,-6.1145,-6.1109,-6.0846,-6.0267,-6.0013,-5.9651,-5.9035,-5.8818,-5.8347,-5.7514,0.0,0.0,0.0,0.0,0.0,0.0,0.0,0.0,0.0,0.0,0.0,0.0,0.0,0.0,0.0,0.0,0.0,0.0,0.0,0.0,0.0,0.0,0.0,0.0,0.0,0.0,0.0,0.0,0.0,-5.6453,-5.6809,0.0,0.0,0.0,0.0,-6.0455,-6.0491,-6.077,-6.1397,-6.2079,-6.2478,-6.2481,-6.345,-6.4326,-6.498,-6.6173,-6.7151,-6.7909,-6.8633,-6.9062,-6.9098,-6.9098,-6.9098,-6.9098,-6.9098,-6.9098,-6.8923,-6.6962,-6.638,-6.6618,-6.6313,-6.641,-6.6421,-6.4318,-6.3508,-6.3166,-6.0921,-6.0122,-6.0047,-5.9827,-5.9732,-5.9595,-5.8874,-5.9279,0.0,0.0,-5.9412,-5.9838,-5.9112,-5.9969,-6.1251,-6.1971,-6.2092,-6.2278,-6.2952,-6.2549,-6.1978,0.0,-6.1942,-6.1978,-6.1942,0.0,-6.1978,-6.1978,-6.1978,-6.1978,-6.1978,-6.1978,-6.1978,-6.1978,-6.1978,-6.1978,-6.1942,-6.1942,-6.1906,-6.1869,-6.1145,-6.0738,-6.0701,-5.9941,-5.918,-5.8347,-5.8347,0.0,0.0,0.0,0.0,0.0,0.0,0.0,0.0,0.0,0.0,0.0,0.0,0.0,0.0,0.0,0.0,0.0,0.0,0.0,0.0,0.0,0.0,0.0,0.0,0.0,0.0,0.0,0.0,-5.8153,-5.7944,0.0,0.0,-5.9495,-5.9524,-6.0242,-5.9794,-6.0024,-6.1336,-6.166,-6.2468,-6.4007,-6.4879,-6.5707,-6.664,-6.7604,-6.8274,-6.8778,-6.9062,-6.9207,-6.9207,-6.9207,-6.9207,-6.9207,-6.9207,-6.9207,-6.914,-6.847,-6.7927,-6.7523,-6.6931,-6.6447,-6.5949,-6.4656,-6.3904,-6.3305,-6.2039,-6.1057,-6.0332,-5.9784,-5.9684,-5.979,-5.9596,-5.9604,-5.9677,-5.9494,-5.9677,-5.9822,-5.9531,-5.9955,-6.0664,-6.136,-6.1895,-6.2415,-6.3131,-6.3423,-6.3526,-6.3526,-6.273,-6.1978,-6.1978,-6.1978,-6.1978,-6.1978,-6.1978,-6.1978,-6.1978,-6.1978,-6.1978,-6.1978,-6.1978,-6.1978,-6.1978,-6.1978,-6.1978,-6.1978,-6.1725,-6.1326,-6.0846,-6.052,-6.0013,-5.918,-5.918,-5.8782,0.0,0.0,0.0,0.0,0.0,0.0,0.0,0.0,0.0,0.0,0.0,0.0,0.0,0.0,0.0,0.0,0.0,0.0,0.0,0.0,0.0,0.0,0.0,0.0,0.0,0.0,-5.745,-5.8978,-5.8445,-5.8533,-6.0078,-5.9494,-5.9384,-6.0165,-5.9637,-6.0071,-6.2033,-6.2106,-6.3186,-6.561,-6.5969,-6.6775,-6.8052,-6.8887,-6.9529,-6.9973,-7.0517,-7.077,-7.077,-7.077,-7.077,-7.077,-7.077,-7.077,-7.077,-7.077,-7.0154,-6.9043,-6.7773,-6.6782,-6.5986,-6.5268,-6.4662,-6.4149,-6.3405,-6.262,-6.185,-6.1071,-6.0785,-6.0671,-6.055,-6.0126,-5.9698,-5.9852,-5.989,-5.989,-5.989,-6.0169,-6.0676,-6.142,-6.2161,-6.2835,-6.3547,-6.4076,-6.4396,-6.4396,-6.3526,-6.2802,-6.2802,-6.2802,-6.2802,-6.2802,-6.2802,-6.2802,-6.2802,-6.2802,-6.2802,-6.2802,-6.2585,-6.2404,-6.2404,-6.2186,-6.1978,-6.1978,-6.1978,-6.1761,-6.1218,-6.1181,-6.0846,-6.0013,-5.976,-5.9361,-5.8818,0.0,0.0,0.0,0.0,0.0,0.0,0.0,0.0,0.0,0.0,0.0,0.0,0.0,0.0,0.0,0.0,0.0,0.0,0.0,0.0,0.0,0.0,0.0,-5.7999,-5.7443,-5.7439,-5.8589,-5.8158,-5.8341,-5.9626,-5.9258,-5.9385,-6.0284,-6.0222,-6.1139,-6.3436,-6.3469,-6.4637,-6.72,-6.6808,-6.7411,-6.9291,-7.0094,-7.0847,-7.1603,-7.316,-7.3921,-7.3921,-7.3921,-7.3921,-7.3921,-7.3921,-7.3921,-7.3921,-7.3921,-7.2947,-7.1295,-6.8962,-6.7547,-6.6704,-6.5968,-6.57,-6.5546,-6.4828,-6.4613,-6.4478,-6.3728,-6.3057,-6.2347,-6.1637,-6.0858,-6.025,-6.025,-6.025,-6.025,-6.025,-6.0863,-6.1596,-6.235,-6.3032,-6.3749,-6.4468,-6.4543,-6.4504,-6.4504,-6.4468,-6.4468,-6.4396,-6.4396,-6.4396,-6.4396,-6.4396,0.0,-6.4396,-6.4396,-6.4396,-6.4396,-6.3708,-6.3237,-6.3237,-6.2512,-6.205,-6.2014,-6.2014,-6.2014,-6.1978,-6.1978,-6.1616,-6.0846,-6.005,-5.9651,-5.9651,0.0,0.0,0.0,0.0,0.0,0.0,0.0,0.0,0.0,0.0,0.0,0.0,0.0,0.0,0.0,0.0,0.0,0.0,0.0,0.0,0.0,0.0,-5.8064,-5.8064,-5.7825,-5.7891,-5.874,-5.8721,-5.8986,-6.0044,-6.0524,-6.1084,-6.2063,-6.259,-6.347,-6.4811,-6.4732,-6.5864,-6.8571,-6.8929,-6.9953,-7.1787,-7.2554,-7.3038,-7.3269,-7.3704,-7.3921,-7.3921,-7.3921,-7.3921,-7.3921,-7.3921,-7.3921,-7.3921,-7.3921,-7.2927,-7.1373,-7.0197,-6.8573,-6.6776,-6.6041,-6.5387,-6.4828,-6.4498,-6.4491,-6.4539,-6.418,-6.4052,-6.3971,-6.3768,-6.3531,-6.3362,-6.3362,-6.3362,-6.3362,-6.3362,-6.3972,-6.4614,-6.4841,-6.5864,-6.6856,-6.7088,-6.7055,-6.7003,-6.7003,-6.6533,-6.5772,-6.4577,-6.4396,-6.4396,-6.4396,-6.4396,0.0,-6.4396,-6.4396,-6.4396,-6.4396,-6.4178,-6.407,-6.407,-6.3852,-6.349,-6.2911,-6.2875,-6.2621,-6.2014,-6.1978,-6.1906,-6.1652,-6.0883,-6.0484,0.0,0.0,0.0,0.0,0.0,0.0,0.0,0.0,0.0,0.0,0.0,0.0,0.0,0.0,0.0,0.0,0.0,0.0,0.0,0.0,0.0,0.0,-5.8327,-5.8567,-5.8867,-5.8515,-5.8535,-5.9264,-5.9709,-6.0296,-6.115,-6.1965,-6.2732,-6.3415,-6.4065,-6.5147,-6.6673,-6.6397,-6.748,-7.0335,-7.0224,-7.0977,-7.2727,-7.3503,-7.3888,-7.3888,-7.4248,-7.4184,-7.3868,-7.4254,-7.4392,0.0,-7.4392,-7.4392,-7.4392,-7.4009,-7.3115,0.0,0.0,0.0,0.0,0.0,-6.6214,-6.5486,-6.5403,-6.5403,-6.5486,-6.5403,-6.5241,-6.5053,-6.5053,-6.485,-6.4613,-6.4613,-6.4613,-6.4613,-6.4613,-6.5186,-6.5811,-6.5811,-6.6989,-6.8192,-6.8513,-6.853,-6.8597,-6.8923,0.0,0.0,-6.6134,-6.5627,-6.541,-6.541,-6.541,-6.541,-6.541,-6.541,-6.541,-6.541,-6.5084,-6.4903,-6.4903,-6.4577,0.0,0.0,0.0,-6.2838,-6.2014,-6.1978,0.0,0.0,0.0,-6.129,-6.129,0.0,0.0,0.0,-5.8854,-5.8383,0.0,0.0,0.0,0.0,0.0,0.0,0.0,0.0,0.0,0.0,0.0,0.0,0.0,0.0,0.0,0.0,-5.8694,-5.9264,-5.9926,-5.9595,-5.9496,-6.0199,-6.0994,-6.1858,-6.2632,-6.3609,-6.4287,-6.4562,-6.51,-6.6392,-6.8617,0.0,0.0,0.0,0.0,-7.1389,-7.2941,-7.369,-7.4047,-7.4047,-7.4652,-7.4602,-7.3956,-7.4752,-7.5155,-7.5227,-7.5118,-7.5155,-7.5155,-7.4302,-7.3491,-7.2637,-7.1718,-7.0494,-6.9107,-6.8344,-6.7624,-6.7083,-6.7083,0.0,0.0,-6.6948,-6.644,-6.5797,-6.5797,-6.5358,-6.485,-6.485,-6.485,-6.485,-6.485,-6.5426,-6.6052,-6.6052,-6.7235,-6.8585,-6.9404,-6.9497,-6.9714,-7.048,-7.004,-6.9213,-6.8525,-6.7583,-6.6895,-6.6822,-6.6786,-6.6786,-6.6786,-6.6786,-6.6786,-6.6786,0.0,0.0,-6.5736,-6.5084,-6.4613,-6.4541,-6.378,-6.2983,-6.2159,-6.2123,-6.2087,-6.1978,-6.1978,-6.1978,-6.1978,-6.1978,-6.1616,-6.0919,-6.0122,-5.9687,0.0,0.0,0.0,0.0,0.0,0.0,0.0,0.0,0.0,0.0,0.0,0.0,0.0,0.0,0.0,-5.8925,-5.9418,-5.9827,-5.9993,-6.0887,-6.1667,-6.1966,-6.2174,-6.2749,-6.3859,-6.464,-6.5472,-6.6255,-6.6956,-6.7836,-6.8957,-6.9467,0.0,-7.1486,-7.2622,-7.365,-7.4618,-7.4796,-7.4868,-7.4868,0.0,0.0,-7.4826,-7.5009,-7.5442,-7.6038,-7.5371,-7.5478,-7.6003,-7.5191,-7.4345,-7.337,-7.126,-7.0256,-6.9886,-6.9135,-6.8774,-6.8673,-6.8673,-6.8233,-6.7692,-6.7692,-6.7184,-6.6609,-6.6609,-6.6508,0.0,-6.6373,-6.6373,-6.6373,-6.6373,-6.6997,-6.7566,-6.7566,-6.878,-7.0191,-7.0977,-7.1084,-7.1277,-7.211,-7.1603,-7.1024,-7.0842,-6.914,-6.7547,-6.6895,-6.6786,-6.6786,-6.6786,-6.6786,-6.6786,-6.6786,-6.6677,-6.6569,-6.6569,-6.6424,-6.6062,-6.541,-6.4613,-6.3816,-6.2983,-6.2947,-6.2657,-6.2014,-6.1978,-6.1978,-6.1978,-6.1978,-6.1906,-6.1725,-6.0955,-6.0231,0.0,0.0,0.0,0.0,0.0,0.0,0.0,0.0,0.0,0.0,0.0,-5.8548,-5.9445,0.0,-5.9431,-5.9598,-6.0141,-6.073,-6.1219,-6.1883,-6.239,-6.2516,-6.3233,-6.4044,-6.479,-6.596,-6.6821,-6.732,-6.8378,-6.9423,-7.0209,-7.0553,-7.1146,-7.1912,-7.2359,-7.3177,-7.4452,-7.4452,-7.4677,-7.5082,-7.464,-7.4452,-7.4489,-7.4898,-7.5299,-7.569,-7.5263,-7.5299,-7.562,-7.4302,-7.3316,-7.2456,-7.1225,-7.0508,-7.0158,-6.9795,-6.9417,-6.9113,-6.9113,-6.8842,-6.8504,-6.8504,-6.8267,-6.7895,-6.7489,-6.7354,-6.7286,-6.6914,-6.6812,-6.6812,-6.6812,-6.7366,-6.8014,-6.8014,-6.9237,-7.0763,-7.1941,-7.2127,-7.2472,-7.3667,-7.3269,-7.2581,-7.2183,-7.1132,-6.9973,-6.8778,-6.7909,-6.7402,-6.7402,-6.704,-6.6786,-6.6786,-6.6786,-6.6786,-6.6786,-6.6786,-6.646,-6.5663,-6.5229,-6.4649,-6.3816,-6.3418,-6.3019,-6.2621,-6.2223,-6.1978,-6.1978,-6.1978,-6.1978,-6.1978,-6.158,-6.1208,0.0,0.0,0.0,0.0,0.0,0.0,0.0,0.0,-5.9663,-5.912,-5.8984,-5.917,-5.9678,-6.0157,-6.0391,-6.0355,-6.0945,-6.1692,-6.2457,-6.2833,-6.2999,-6.3041,-6.4279,-6.5295,-6.5809,-6.7133,-6.803,-6.8335,-6.9483,-7.0553,-7.1351,-7.1343,-7.1575,-7.2236,-7.182,-7.2176,-7.3522,-7.3721,-7.4149,-7.4861,-7.4861,-7.4565,-7.4072,-7.4752,-7.5191,-7.5299,-7.5155,-7.4935,-7.4489,-7.3078,-7.2099,-7.1501,-7.1356,-7.0939,-7.0432,-7.0567,-7.0263,-6.9755,-6.9755,-6.9654,-6.9519,-6.935,-6.9214,-6.8977,-6.8335,-6.8132,-6.7996,-6.7421,-6.7151,-6.7015,-6.7015,-6.738,-6.7771,-6.7771,-6.8865,-7.0345,-7.1979,-7.2536,-7.3179,-7.4793,-7.4718,-7.4175,-7.3523,-7.3269,-7.2581,-7.0879,-6.9502,-6.8669,-6.8669,-6.7836,-6.7257,-6.7257,-6.7003,-6.6786,-6.6786,-6.6786,-6.6533,-6.5881,-6.5844,-6.5482,-6.4649,-6.4142,-6.3744,-6.3418,-6.2802,-6.2404,-6.2259,-6.2087,-6.1978,-6.1978,-6.1978,-6.1978,-6.0498,-6.0406,-5.9709,-5.9044,-5.8528,-5.8065,0.0,0.0,-5.9081,-5.9035,-5.9502,-6.0102,-6.065,-6.0774,-6.0964,-6.1434,-6.213,-6.2673,-6.2739,-6.3877,-6.4832,-6.5043,-6.5253,-6.5943,-6.748,-6.7793,-6.847,-6.9823,-7.008,-7.0541,-7.1243,-7.131,-7.1344,-7.1412,-7.2013,-7.2448,-7.2624,-7.3402,-7.3838,-7.3956,-7.3956,-7.4299,-7.4972,-7.5045,-7.5513,-7.614,-7.5406,-7.4187,-7.2749,-7.2575,-7.2448,-7.2279,-7.159,-7.1278,-7.1278,-7.1921,-7.209,-7.2022,-7.2022,-7.1616,-7.0973,-7.0297,-6.962,-6.9079,-6.8977,-6.8977,-6.8944,-6.8876,-6.8335,-6.7793,-6.7793,-6.7371,-6.6904,-6.6904,-6.761,-6.869,-7.0326,-7.1801,-7.3255,-7.4802,-7.5623,-7.5985,-7.5913,-7.5297,-7.4066,-7.1748,-7.1241,-7.1096,-7.1096,-6.9828,-6.8953,-6.8953,-6.7655,-6.6786,-6.6786,-6.6786,-6.675,-6.6677,-6.6677,-6.6315,-6.5482,-6.6062,-6.5736,-6.4287,-6.4178,-6.378,-6.3056,-6.2367,-6.1978,-6.1978,-6.1978,-6.1978,-5.9609,0.0,0.0,0.0,-5.8729,-5.9069,-5.8634,-5.9431,-6.0298,-6.0325,-6.0439,-6.0801,-6.1391,-6.144,-6.1555,0.0,-6.258,-6.3123,-6.4195,-6.4833,-6.5489,-6.6137,-6.6584,-6.7133,-6.7827,-6.8335,-6.9045,-7.0094,-7.0601,-7.0973,-7.1312,-7.1312,-7.1312,-7.1312,-7.16,-7.227,-7.3241,-7.3602,-7.4302,-7.5227,-7.5227,-7.5442,-7.5795,-7.5795,-7.5725,-7.5584,-7.4715,-7.3641,-7.249,-7.249,-7.2228,-7.1776,-7.1412,-7.1312,-7.1413,-7.2124,-7.2394,-7.2462,-7.2868,-7.2834,-7.2529,-7.2225,-7.1887,-7.1582,-7.1142,-7.1007,-7.0838,-6.9958,-6.9485,-6.9147,-6.8707,-6.803,-6.7455,-6.7455,-6.7715,-6.8457,-7.0071,-7.1302,-7.2542,-7.4115,-7.508,-7.5623,-7.5623,-7.5696,-7.5478,-7.4464,-7.3088,-7.2219,-7.2219,-7.1241,-7.0372,-6.9968,-6.885,-6.8017,-6.7547,-6.7076,-6.6786,-6.6786,-6.6786,-6.6641,-6.6315,-6.617,-6.6025,-6.5808,-6.5337,-6.4939,-6.4577,-6.378,-6.3164,-6.2693,-6.2223,-6.1978,-5.9246,0.0,0.0,-5.8513,-5.9166,-5.9965,-5.9414,-6.0325,-6.1229,-6.1278,-6.1317,-6.147,-6.2009,-6.2159,-6.2374,-6.2918,-6.3355,-6.4035,-6.5312,-6.5649,-6.607,-6.6703,-6.7455,-6.7996,-6.8199,-6.8944,-6.9722,-7.0432,-7.1007,-7.1312,-7.1312,-7.1312,-7.1312,-7.1312,-7.1501,-7.2185,-7.3442,-7.3681,-7.4416,-7.5619,-7.5619,-7.5619,-7.5619,-7.5619,-7.5155,-7.4376,-7.3721,-7.299,-7.2185,-7.2185,-7.183,-7.1312,-7.1312,-7.1312,-7.1413,-7.236,-7.2699,-7.28,-7.3544,-7.3781,-7.3747,-7.3544,-7.3477,-7.3375,-7.2868,-7.2699,-7.2462,-7.1413,-7.0939,-7.0669,-7.0161,-6.9417,-6.8808,-6.8571,-6.8436,-6.8619,-6.9795,-7.0692,-7.1658,-7.2986,-7.4079,-7.483,-7.5047,-7.5587,-7.6022,-7.6275,-7.479,-7.3704,-7.3704,-7.2798,-7.1784,-7.0806,-6.9973,-6.9285,-6.8706,-6.7728,-6.7148,-6.7148,-6.6931,-6.6786,-6.6786,-6.646,-6.6533,-6.7112,-6.6569,-6.6279,-6.6279,-6.5446,-6.4758,-6.4178,-6.3382,-6.2875,0.0,0.0,-5.9907,-5.9149,-5.9539,-6.0084,-6.008,-6.0689,-6.1303,-6.1298,-6.1873,-6.2347,-6.2381,-6.299,-6.3457,-6.3491,-6.4681,-6.5628,-6.5696,-6.6305,-6.6736,-6.6812,-6.7455,-6.8199,0.0,-6.9722,-7.0466,-7.121,-7.1312,-7.1312,-7.1312,-7.1312,-7.1312,-7.1312,-7.2056,-7.249,-7.2533,-7.3362,-7.3838,-7.3878,-7.3878,-7.3878,-7.3878,-7.3878,-7.3402,-7.2575,-7.2575,-7.2056,-7.1356,-7.1356,-7.1312,-7.1312,-7.1312,-7.1312,-7.1481,-7.2935,-7.3443,-7.3544,-7.4322,-7.4593,-7.4458,-7.3713,-7.3477,-7.3477,-7.3443,-7.3443,-7.3443,-7.3409,-7.2868,-7.2326,-7.2326,-7.1751,-7.1041,-7.0297,-6.9596,-6.911,-6.9129,-6.9791,-7.0692,-7.1515,-7.288,-7.4178,-7.4938,-7.5119,-7.5406,-7.6167,-7.6239,-7.6167,-7.6167,-7.4826,-7.3233,-7.1639,-7.0806,-7.0335,-7.033,-6.8887,-6.7981,-6.7981,-6.7221,-6.6786,-6.6786,-6.7547,-6.7945,-6.7981,-6.7945,-6.7945,-6.7945,-6.7112,-6.6714,-6.6677,-6.5881,-6.5084,-6.0241,0.0,-6.0043,-5.9794,-6.0317,-6.0892,-6.0892,-6.1467,-6.2009,-6.2009,-6.2212,-6.2381,-6.2381,-6.299,-6.3666,-6.414,-6.5053,-6.5865,-6.6373,-6.6643,-6.6981,-6.7489,-6.8233,0.0,0.0,0.0,0.0,-7.1244,-7.1312,-7.1312,-7.1312,-7.1312,-7.1312,-7.1312,-7.2056,-7.249,-7.249,-7.3362,-7.3799,-7.3799,-7.3799,-7.3799,-7.376,-7.32,-7.2749,-7.249,-7.196,-7.1546,-7.1312,-7.1312,-7.1312,-7.1312,-7.1312,-7.1312,-7.1481,-7.2935,-7.3477,-7.368,-7.4897,-7.5337,-7.5303,-7.5033,-7.4965,-7.4965,-7.4965,-7.4965,-7.4864,-7.4356,-7.4052,-7.3747,-7.324,-7.2563,-7.1988,-7.1718,-7.1109,-7.0551,-7.056,-7.0424,-7.0496,-7.1375,-7.2006,-7.2633,-7.3353,-7.3957,-7.4609,-7.5406,-7.5949,-7.6275,-7.6275,-7.5841,-7.508,-7.403,-7.3197,-7.2291,-7.1205,-7.0191,-6.9358,-6.8814,-6.8054,-6.7619,-6.7619,-6.7366,-6.7474,-6.8017,-6.8525,-6.8778,-6.8778,-6.8525,-6.8126,-6.7583,-6.6786,-6.6243,-6.022,-6.0318,-6.0542,-6.0532,-6.1129,-6.167,-6.167,-6.2042,-6.2381,-6.2381,-6.2381,-6.2381,-6.2381,-6.3226,-6.4072,-6.4512,-6.5425,-6.6271,-6.6745,-6.7049,-6.7387,-6.7827,-6.8842,0.0,0.0,0.0,0.0,-7.1278,-7.1312,-7.1312,-7.1312,-7.1312,-7.1312,-7.1312,-7.2398,-7.2955,-7.2955,-7.3838,-7.3956,-7.3322,-7.3072,-7.2908,-7.2866,-7.2313,-7.2056,-7.2013,-7.1546,-7.1312,-7.1312,-7.1312,-7.1312,-7.1312,-7.1312,-7.1312,-7.1447,-7.2665,-7.3274,-7.368,-7.5202,-7.5709,-7.5709,-7.5709,-7.5709,-7.5709,-7.5709,-7.5709,-7.5608,-7.5134,-7.4999,-7.4897,-7.439,-7.3916,-7.351,-7.324,-7.2631,-7.192,-7.1404,-7.0931,-7.0793,-7.1367,-7.1517,-7.1898,-7.2958,-7.3559,-7.4175,-7.4974,-7.5551,-7.5985,-7.6239,-7.6275,-7.6094,-7.5587,-7.4826,-7.378,-7.2472,-7.1386,-7.0444,-6.9678,-6.885,-6.8307,-6.8017,-6.751,-6.7474,-6.8017,-6.8525,-6.8887,-6.9207,-6.9207,-6.9068,-6.885,-6.8017,-6.7655,-6.015,-6.0708,-6.1298,-6.1366,-6.1873,-6.2381,-6.2381,-6.2381,-6.2381,-6.2381,-6.242,-6.2459,0.0,0.0,-6.462,-6.4613,-6.5831,-6.6812,-6.6812,-6.7455,-6.7929,0.0,0.0,0.0,0.0,0.0,0.0,-7.1312,0.0,-7.1312,-7.1312,-7.1312,-7.1312,-7.1312,-7.2866,-7.3721,-7.3681,-7.4527,-7.4111,-7.2448,-7.1688,-7.1356,-7.1312,-7.1312,-7.1312,-7.1312,-7.1312,-7.1312,-7.1312,-7.1312,-7.1312,-7.1312,-7.1312,-7.1312,-7.1413,-7.2124,-7.2868,-7.368,-7.5134,-7.5676,-7.5709,-7.5709,-7.5709,-7.5709,-7.5709,-7.5709,-7.5709,-7.5709,-7.5709,-7.5709,-7.5709,-7.5709,-7.5506,-7.483,-7.4119,-7.3206,-7.1751,-7.1395,-7.138,-7.1536,-7.1585,-7.2112,-7.3573,-7.3885,-7.4142,-7.4902,-7.5047,-7.5406,-7.6203,-7.6275,-7.6275,-7.6275,-7.5623,-7.483,-7.403,-7.2545,-7.1313,-7.0553,-6.975,-6.8923,-6.8162,-6.809,-6.8054,-6.8017,-6.8054,-6.8416,-6.9134,-6.9207,-6.9605,-7.0299,-6.9569,-6.9207,-6.0836,-6.1147,-6.1434,-6.1975,-6.2245,-6.2381,-6.2381,-6.2381,-6.2381,-6.2381,-6.2851,-6.3045,0.0,0.0,0.0,-6.4701,-6.5831,0.0,-6.6812,-6.7455,0.0,-6.8707,0.0,-7.0398,-7.0973,-7.121,0.0,0.0,-7.1312,-7.1312,-7.1312,-7.1312,-7.1312,-7.1312,-7.2313,-7.2533,-7.1917,-7.2742,-7.2617,-7.16,-7.2004,-7.1873,-7.1312,-7.1312,-7.1312,-7.1312,-7.1312,-7.1312,-7.1312,-7.1312,-7.1312,-7.1312,-7.1312,-7.1312,-7.1413,-7.2124,-7.2868,-7.3612,-7.4559,-7.5236,-7.5709,-7.5709,-7.5709,-7.5709,-7.5709,-7.5709,-7.5709,-7.5709,-7.5709,-7.5709,-7.5709,-7.5709,-7.5642,-7.5473,-7.527,-7.4728,-7.324,-7.2508,-7.214,-7.2294,-7.2834,-7.3221,-7.3056,-7.3523,-7.3993,-7.4211,-7.4721,-7.5406,-7.6203,-7.6275,-7.6275,-7.6275,-7.613,-7.5659,-7.483,-7.3885,-7.2943,-7.2183,-7.0842,-6.9973,-6.9792,-6.9213,-6.8597,-6.8017,-6.8597,-6.8706,-6.8307,-6.8887,-6.9316,-6.9497,-6.9316,-6.9207,-6.1549,-6.2009,-6.2381,-6.2787,-6.2888,-6.2787,-6.2448,-6.2381,-6.2381,-6.2381,-6.3004,0.0,0.0,0.0,0.0,0.0,0.0,0.0,-6.6779,-6.776,-6.8605,0.0,-7.0026,0.0,-7.1278,-7.1312,-7.1312,0.0,-7.1312,-7.1312,-7.1312,-7.1312,-7.1312,-7.1312,-7.2056,-7.2448,-7.2398,-7.2448,-7.2236,-7.183,-7.1917,-7.1732,-7.1312,-7.1312,-7.1312,-7.1312,0.0,-7.1312,-7.1312,-7.1312,-7.1312,-7.1312,-7.1312,-7.1312,-7.1379,-7.1751,-7.2597,-7.3544,-7.395,-7.4796,-7.5709,-7.5709,-7.5709,-7.5709,-7.5709,-7.5709,-7.5709,-7.5709,-7.5709,-7.5709,-7.5709,-7.5709,-7.5709,-7.5709,-7.5709,-7.5303,-7.3815,-7.3172,-7.2833,-7.2639,-7.3583,-7.4175,-7.3378,-7.3631,-7.3921,-7.3921,-7.4576,-7.5261,-7.5732,-7.6094,-7.6275,-7.6275,-7.6275,-7.5985,-7.5155,-7.4392,-7.3559,-7.2762,-7.1567,-7.0734,-7.0408,-6.9968,-6.9321,-6.8525,-6.8597,-6.8452,-6.8017,-6.809,-6.8307,-6.8669,-6.8669,-6.885,-6.2313,-6.3024,-6.3531,-6.3531,-6.3531,-6.3328,-6.2707,-6.2537,-6.2537,-6.2537,0.0,-6.3533,-6.2697,0.0,-6.4763,-6.4767,0.0,-6.5967,-6.6711,-6.8132,-6.9113,-6.9113,-7.0398,-7.1312,-7.1312,-7.1312,-7.1312,-7.1312,-7.1312,-7.1312,-7.1312,-7.1312,-7.1312,-7.1312,-7.2004,-7.27,-7.3442,-7.279,-7.2448,-7.2321,-7.1732,-7.1401,-7.1312,-7.1312,-7.1312,-7.1312,0.0,0.0,-7.1312,-7.1312,-7.1312,-7.1312,-7.1312,-7.1312,-7.1312,-7.1312,-7.2225,-7.3477,-7.3477,-7.4458,-7.5709,-7.5709,-7.5709,-7.5709,-7.5709,-7.5709,-7.5709,-7.5709,-7.5709,-7.5709,-7.5709,-7.5709,-7.5709,-7.5709,-7.5642,-7.5168,-7.3781,-7.3537,-7.3426,-7.3011,-7.419,-7.4974,-7.4211,-7.4033,-7.403,-7.3921,-7.4576,-7.5083,-7.5083,-7.5804,-7.6275,-7.6275,-7.6275,-7.6022,-7.5334,-7.4428,-7.3631,-7.2907,-7.2001,-7.1205,-7.0553,-7.0553,-7.0154,-6.9388,-6.8669,-6.8271,-6.8162,-6.7366,-6.7329,-6.8017,-6.7909,-6.8199,-6.2956,-6.3429,-6.3531,-6.3531,-6.3531,-6.3453,-6.333,-6.3308,0.0,0.0,-6.4393,-6.4907,-6.357,-6.4523,0.0,-6.5486,0.0,0.0,0.0,0.0,-6.9113,0.0,0.0,0.0,0.0,0.0,0.0,0.0,0.0,0.0,-7.1312,-7.1312,-7.1312,-7.1312,-7.1446,-7.159,-7.1732,-7.227,-7.2185,-7.1501,-7.2013,-7.196,-7.1312,-7.1312,-7.1312,-7.1312,0.0,0.0,-7.1312,-7.1312,-7.1312,-7.1312,-7.1312,-7.1312,-7.1312,-7.1312,-7.2225,-7.3477,-7.3477,-7.4458,-7.5709,-7.5709,-7.5709,-7.5709,-7.5709,-7.5709,-7.5709,-7.5709,-7.5709,-7.5709,-7.5709,-7.5709,-7.5709,-7.5709,-7.5236,-7.4559,-7.368,-7.3637,-7.3922,-7.4571,-7.5439,-7.5841,-7.5044,-7.4866,-7.4649,-7.403,-7.4576,-7.5083,-7.5083,-7.5804,-7.6275,-7.6275,-7.6275,-7.6239,-7.6094,-7.4754,-7.3849,-7.3704,-7.2327,-7.1458,-7.1313,-7.1313,-7.0951,-7.0221,-7.0046,-6.9647,-6.8959,-6.8199,-6.7873,-6.7981,-6.7329,-6.7076,-6.3226,-6.3531,-6.3531,-6.3531,-6.3531,-6.3374,-6.3022,0.0,0.0,0.0,0.0,-6.4218,-6.3121,0.0,0.0,0.0,0.0,0.0,0.0,0.0,0.0,0.0,0.0,0.0,0.0,0.0,0.0,0.0,0.0,0.0,0.0,-7.1312,-7.1312,-7.1312,-7.1312,-7.1312,-7.1312,-7.1688,-7.1688,-7.1312,-7.1688,-7.1688,-7.1312,-7.1312,-7.1312,-7.1312,0.0,0.0,-7.1312,-7.1312,-7.1312,-7.1312,-7.1312,-7.1312,-7.1379,-7.1751,-7.2563,-7.3544,-7.395,-7.4796,-7.5709,-7.5709,-7.5709,-7.5709,-7.5709,-7.5709,-7.5709,-7.5709,-7.5709,-7.5709,-7.5709,-7.5709,-7.5709,-7.5709,-7.483,-7.3954,-7.3672,-7.3705,-7.4033,-7.4935,-7.5406,-7.5686,-7.5737,-7.5031,-7.4354,-7.3964,-7.4214,-7.4468,-7.4468,-7.5189,-7.5841,-7.6239,-7.6275,-7.6275,-7.6275,-7.4826,-7.3921,-7.3921,-7.24,-7.1494,-7.1494,-7.1494,-7.1313,-7.0987,-7.0589,-7.0221,-6.9823,-6.8995,-6.8597,-6.8597,-6.78,-6.7438,-6.326,-6.3531,-6.3531,-6.3531,-6.3531,-6.3368,-6.2785,-6.2654,0.0,0.0,-6.3233,-6.3496,-6.2774,0.0,0.0,0.0,0.0,0.0,0.0,0.0,0.0,0.0,0.0,0.0,0.0,0.0,0.0,0.0,0.0,0.0,0.0,-7.1312,-7.1312,-7.1312,-7.1312,-7.1312,-7.1312,-7.1312,-7.1312,-7.1312,-7.1312,-7.1312,-7.1312,-7.1312,-7.1312,-7.1312,0.0,0.0,0.0,-7.1312,-7.1312,-7.1312,-7.1312,-7.1312,-7.1413,-7.2124,-7.2868,-7.3612,-7.4356,-7.51,-7.5709,-7.5709,-7.5709,-7.5709,-7.5709,-7.5709,-7.5709,-7.5709,-7.5709,-7.5709,-7.5709,-7.5709,-7.5608,-7.5303,-7.4373,-7.3593,-7.3687,-7.3775,-7.4033,-7.4935,-7.5082,-7.5263,-7.5716,-7.4864,-7.4041,-7.3678,-7.3812,-7.3921,-7.3921,-7.4576,-7.5406,-7.6203,-7.6275,-7.6239,-7.6058,-7.4718,-7.3849,-7.3667,-7.2291,-7.1494,-7.1494,-7.1494,-7.1494,-7.1494,-7.0915,-7.0625,-7.0625,-6.9859,-6.9461,-6.9461,-6.8633,-6.8162,-6.3125,-6.3531,-6.3531,-6.3531,-6.3531,-6.3493,-6.3405,0.0,0.0,-6.342,-6.4004,-6.4253,-6.3533,0.0,0.0,0.0,0.0,-6.4884,0.0,0.0,0.0,0.0,0.0,0.0,0.0,0.0,0.0,0.0,0.0,0.0,0.0,-7.1312,-7.1312,-7.1312,-7.1312,-7.1312,-7.1312,-7.1312,-7.1312,-7.1312,-7.1312,-7.1312,-7.1312,-7.1312,-7.1312,-7.1312,0.0,0.0,0.0,-7.1312,-7.1312,-7.1312,-7.1312,-7.1312,-7.1413,-7.2124,-7.2868,-7.3612,-7.4356,-7.51,-7.5709,-7.5709,-7.5709,-7.5709,-7.5709,-7.5709,-7.5709,-7.5709,-7.5709,-7.5709,-7.5709,-7.5709,-7.5371,-7.4018,-7.3683,-7.3729,-7.3762,-7.383,-7.4033,-7.4935,-7.5082,-7.4904,-7.4226,-7.461,-7.4474,-7.302,-7.345,-7.3921,-7.3921,-7.4576,-7.5406,-7.6203,-7.6275,-7.5985,-7.5264,-7.4428,-7.3595,-7.2871,-7.2001,-7.1494,-7.1494,-7.1494,-7.1494,-7.1494,-7.1422,-7.1386,-7.1386,-7.0625,-7.0294,-7.0263,-6.943,-6.8706,-6.2009,-6.2516,-6.2854,-6.2854,-6.2854,-6.2832,-6.2842,0.0,0.0,-6.2851,-6.3083,-6.3196,-6.2889,0.0,0.0,0.0,0.0,0.0,0.0,0.0,0.0,0.0,0.0,0.0,0.0,0.0,0.0,0.0,0.0,0.0,0.0,0.0,-7.2047,-7.2047,-7.1546,-7.1546,-7.2047,-7.1546,-7.1312,-7.1312,-7.1312,-7.1312,-7.1312,-7.1312,-7.1312,-7.1312,0.0,0.0,0.0,-7.1312,-7.1312,-7.1312,-7.1312,-7.1582,-7.2056,-7.28,-7.351,-7.4255,-7.4999,-7.5439,-7.5709,-7.5709,-7.5709,-7.5709,-7.5709,-7.5709,-7.5709,-7.5709,-7.5709,-7.5709,-7.5709,-7.5371,-7.4661,-7.3172,-7.2915,-7.2927,-7.3005,-7.2996,-7.3281,-7.4149,-7.3949,-7.3675,-7.3868,-7.3331,-7.2885,-7.2734,-7.2581,-7.2834,-7.3776,-7.4178,-7.4718,-7.5515,-7.5587,-7.5478,-7.5119,-7.3921,-7.3052,-7.2726,-7.1965,-7.1494,-7.1494,-7.1494,-7.1494,-7.1494,-7.1494,-7.1494,-7.1494,-7.1205,-7.106,-7.1024,-7.0263,-6.972,-6.0969,-6.1332,-6.1772,-6.2009,-6.2076,-6.211,0.0,0.0,0.0,-6.2381,-6.2381,-6.2381,-6.2381,0.0,0.0,-6.3091,0.0,-6.4783,0.0,0.0,0.0,0.0,0.0,0.0,0.0,0.0,0.0,0.0,0.0,0.0,0.0,0.0,-7.2406,-7.2142,-7.1634,-7.159,-7.2142,-7.159,-7.1312,-7.1312,-7.1312,-7.1312,-7.1312,-7.1312,-7.1312,0.0,0.0,0.0,0.0,-7.1312,-7.1312,-7.1345,-7.1548,-7.1954,-7.2529,-7.3477,-7.4153,-7.4728,-7.5439,-7.5709,-7.5709,-7.5709,-7.5709,-7.5709,-7.5709,-7.5709,-7.5709,-7.5709,-7.554,-7.5371,-7.5371,-7.4661,-7.368,-7.2665,-7.2417,-7.2434,-7.2467,-7.2326,-7.2437,-7.3291,-7.2777,-7.2448,-7.3083,-7.2438,-7.1991,-7.2304,-7.1857,-7.2074,-7.3704,-7.3704,-7.3957,-7.4974,-7.4649,-7.4392,-7.4392,-7.3378,-7.2617,-7.2364,-7.182,-7.1494,-7.1494,-7.1494,-7.1494,-7.1494,-7.1494,-7.1494,-7.1494,-7.1494,-7.1494,-7.1494,-7.0951,-7.048,-6.0136,-6.0114,-6.0317,-6.1129,-6.1332,-6.1501,0.0,0.0,-6.2381,-6.2381,-6.2381,-6.2381,-6.2381,-6.2381,-6.2381,0.0,0.0,0.0,0.0,0.0,0.0,0.0,0.0,0.0,0.0,0.0,0.0,0.0,0.0,0.0,0.0,0.0,-7.2142,-7.1356,-7.1312,-7.1312,-7.1312,-7.1312,-7.1312,-7.1312,-7.1312,-7.1312,-7.1312,-7.1312,0.0,0.0,0.0,0.0,0.0,-7.1312,-7.1312,-7.1379,-7.209,-7.2394,-7.2597,-7.4052,-7.4593,-7.4728,-7.5439,-7.5709,-7.5709,-7.5709,-7.5709,-7.5709,-7.5709,-7.5709,-7.5709,-7.5709,-7.5168,-7.4627,-7.4627,-7.351,-7.2428,-7.2394,-7.2463,-7.249,-7.249,-7.1912,-7.1648,-7.2446,-7.2005,-7.1497,-7.1517,-7.2163,-7.2404,-7.1639,-7.1531,-7.2074,-7.3704,-7.3197,-7.3342,-7.4902,-7.3704,-7.2726,-7.2726,-7.2726,-7.2364,-7.1567,-7.1494,-7.1494,-7.1494,-7.1494,-7.1494,-7.1494,-7.1494,-7.1494,-7.1494,-7.1494,-7.1494,-7.1494,-7.1494,-7.0661,-5.9377,-5.9708,-6.0283,-6.1095,-6.1298,-6.1501,-6.2212,0.0,-6.2381,-6.2381,-6.2381,-6.2381,-6.2381,-6.2381,-6.2381,0.0,0.0,0.0,0.0,0.0,0.0,0.0,0.0,0.0,0.0,0.0,0.0,0.0,0.0,0.0,0.0,0.0,0.0,-7.2099,-7.159,-7.159,-7.2099,-7.1556,-7.1312,-7.1312,-7.1312,-7.1312,-7.1312,-7.1312,0.0,0.0,0.0,0.0,0.0,-7.1312,-7.1616,-7.209,-7.2326,-7.3037,-7.3984,-7.4458,-7.4931,-7.5405,-7.5608,-7.5709,-7.5709,-7.5709,-7.5371,-7.4965,-7.4965,-7.4965,-7.483,-7.4322,-7.4018,-7.3713,-7.324,-7.2766,-7.2259,-7.1785,-7.1264,-7.0905,-7.0905,-7.0327,-7.0038,-7.0805,-7.0814,-7.0863,-7.141,-7.1732,-7.1784,-7.1531,-7.1494,-7.1893,-7.2943,-7.2871,-7.2907,-7.3414,-7.3016,-7.2726,-7.2726,-7.2219,-7.1784,-7.1531,-7.1494,-7.1494,-7.1494,-7.1494,-7.1494,-7.1494,-7.1494,-7.1494,-7.1494,-7.1494,-7.1494,-7.1494,-7.1494,-7.0661,0.0,-5.893,-5.9471,-6.025,-6.0655,0.0,0.0,0.0,-6.2381,-6.2381,-6.2381,-6.2381,-6.2381,-6.2381,0.0,0.0,0.0,0.0,0.0,0.0,0.0,0.0,0.0,0.0,0.0,0.0,0.0,0.0,0.0,0.0,0.0,0.0,0.0,-7.249,-7.1732,-7.1546,-7.2013,-7.1546,-7.1312,-7.1312,-7.1312,-7.1312,-7.1312,0.0,0.0,0.0,0.0,0.0,0.0,-7.1718,-7.2157,-7.2834,-7.3138,-7.3781,-7.4661,-7.4931,-7.5303,-7.5676,-7.5371,-7.527,-7.5236,-7.4965,-7.4356,-7.3713,-7.3443,-7.3747,-7.4086,-7.3612,-7.3274,-7.2902,-7.2191,-7.1785,-7.1379,-7.0669,-7.0128,-6.9755,-6.9755,-6.9406,-6.9336,-7.0084,-7.005,-7.0233,-7.1326,-7.1267,-7.1171,-7.1463,-7.1494,-7.1784,-7.2617,-7.2436,-7.2364,-7.269,-7.2436,-7.2255,-7.2255,-7.1784,-7.1494,-7.1494,-7.1494,-7.1494,-7.1494,-7.1494,-7.1494,-7.1494,-7.1494,-7.1494,-7.1494,-7.1494,-7.1494,-7.1494,-7.1494,-7.0661,0.0,-5.7881,0.0,0.0,0.0,0.0,0.0,0.0,0.0,-6.2381,-6.2381,-6.2381,-6.2381,-6.2381,0.0,0.0,0.0,0.0,0.0,0.0,0.0,0.0,0.0,0.0,0.0,0.0,0.0,0.0,0.0,0.0,0.0,0.0,0.0,0.0,-7.1907,-7.1457,-7.1457,-7.1457,-7.1457,-7.1457,-7.1457,-7.1457,-7.1457,0.0,0.0,0.0,0.0,0.0,0.0,-7.2372,-7.2766,-7.3477,-7.4221,-7.4525,-7.4627,-7.5303,-7.5506,-7.5371,-7.4627,-7.439,-7.4255,-7.3477,-7.28,-7.2124,-7.1379,-7.2124,-7.324,-7.3172,-7.2699,-7.2022,-7.1345,-7.0635,-6.9969,-6.9335,-6.9132,-6.9141,-6.9184,-6.9096,-6.9288,-7.0065,-6.9619,-6.96,-7.1139,-7.0845,-7.0678,-7.1399,-7.1494,-7.1784,-7.2545,-7.1965,-7.1784,-7.2545,-7.1965,-7.1494,-7.1494,-7.1494,-7.1494,-7.1494,-7.1494,-7.1494,-7.1494,-7.1494,-7.1494,-7.1494,-7.1494,-7.1494,-7.1494,-7.1494,-7.1494,-7.1494,-7.1494,-7.0661,-5.7881,0.0,-5.8084,-5.8829,-5.9133,-5.9641,0.0,0.0,-6.1704,-6.2279,0.0,-6.2381,-6.2381,0.0,0.0,0.0,0.0,0.0,0.0,0.0,0.0,0.0,0.0,0.0,0.0,0.0,0.0,0.0,0.0,0.0,0.0,0.0,0.0,0.0,-7.3281,-7.32,-7.32,-7.32,-7.32,-7.32,-7.32,-7.32,-7.32,0.0,0.0,0.0,0.0,0.0,-7.2459,-7.1783,-7.1988,-7.2732,-7.3477,-7.3747,-7.3781,-7.395,-7.3646,-7.3071,-7.2326,-7.209,-7.1954,-7.121,-7.0838,-7.0567,-6.9857,-7.0263,-7.0838,-7.0297,-7.0026,-6.9823,-6.9654,-6.9485,-6.9456,-6.983,-6.9516,-6.9267,-6.9871,-6.9085,-6.8492,-6.9297,-6.8819,-6.879,-7.0371,-7.0507,-7.0678,-7.1399,-7.1494,-7.1567,-7.1748,-7.1639,-7.1567,-7.1748,-7.1603,-7.1494,-7.1494,-7.1494,-7.1494,-7.1494,-7.1494,-7.1494,-7.1494,-7.1494,-7.1494,-7.1494,-7.1494,-7.1494,-7.1494,-7.1494,-7.1494,-7.1494,-7.1494,-7.0661,-5.7881,-5.7881,-5.7983,-5.8389,-5.8761,-5.9235,-6.0047,0.0,0.0,0.0,0.0,0.0,0.0,0.0,0.0,0.0,0.0,0.0,0.0,0.0,0.0,0.0,0.0,0.0,0.0,0.0,0.0,0.0,0.0,0.0,0.0,0.0,0.0,0.0,0.0,-7.3402,-7.3799,-7.3799,-7.3799,-7.3799,-7.3799,-7.3799,-7.3799,0.0,0.0,0.0,0.0,0.0,-7.2999,-7.2155,-7.2056,-7.2428,-7.2834,-7.28,-7.2496,-7.2496,-7.2225,-7.1785,-7.1041,-7.0567,-7.0229,-6.9823,-6.9451,-6.9132,-6.911,-6.8914,-6.8707,-6.9011,-6.9347,-6.9459,-6.8725,-6.91,-6.9583,-6.925,-6.9154,-6.9154,-6.9227,-6.8879,-6.8562,-6.8638,-6.86,-6.894,-7.0199,-7.0371,-7.0678,-7.1399,-7.1494,-7.1494,-7.1494,-7.1494,-7.1494,-7.1494,-7.1494,-7.1494,-7.1494,-7.1494,-7.1494,-7.1494,-7.1494,-7.1494,-7.1494,-7.1494,-7.1494,-7.1494,-7.1494,-7.1494,-7.1494,-7.1494,-7.1313,-7.0987,-7.0987,-7.0154,-5.7881,-5.7881,-5.7881,-5.7881,-5.8355,-5.8863,-5.8998,0.0,0.0,0.0,0.0,0.0,0.0,0.0,0.0,0.0,0.0,0.0,0.0,0.0,0.0,0.0,0.0,0.0,0.0,0.0,0.0,0.0,0.0,0.0,0.0,0.0,0.0,0.0,0.0,0.0,-7.3642,-7.3889,-7.3917,-7.3799,-7.4072,-7.4033,-7.3799,-7.3811,0.0,0.0,0.0,0.0,-7.3103,-7.2257,-7.1887,-7.1921,-7.2022,-7.1616,-7.0973,-7.0973,-7.0906,-7.0703,-6.9925,-6.9282,-6.8741,-6.8741,-6.8301,-6.7853,-6.8535,-6.7837,-6.7083,-6.8368,-6.9312,-6.957,-6.8242,-6.8906,-6.9631,-6.831,-6.8524,-6.8865,-6.8293,-6.8714,-6.9015,-6.8293,-6.8752,-6.9456,-7.0268,-7.0371,-7.0678,-7.1399,-7.1494,-7.1494,-7.1494,-7.1494,-7.1494,-7.1494,-7.1494,-7.1494,-7.1494,-7.1494,-7.1494,-7.1494,-7.1494,-7.1494,-7.1494,-7.1494,-7.1494,-7.1494,-7.1494,-7.1494,-7.1494,-7.1386,-7.1024,-7.0372,-7.0263,-6.943,-5.7881,-5.7881,-5.7881,-5.7881,-5.7983,-5.822,-5.8863,0.0,0.0,0.0,0.0,0.0,0.0,0.0,0.0,0.0,0.0,0.0,0.0,0.0,0.0,0.0,0.0,0.0,0.0,0.0,0.0,0.0,0.0,0.0,0.0,0.0,0.0,0.0,0.0,-7.347,-7.2941,-7.4259,-7.4527,-7.3799,-7.5227,-7.5155,-7.3803,-7.3856,-7.3499,0.0,0.0,-7.0711,-7.0767,-6.9943,-6.962,-6.9688,-7.0297,-7.0094,-6.9451,-6.9451,-6.9011,-6.8335,-6.759,-6.7252,-6.7151,-6.7151,-6.7083,-6.6981,-6.715,-6.6964,-6.688,-6.7117,-6.7742,-6.8285,-6.8022,-6.8187,-6.831,-6.8049,-6.8093,-6.8331,-6.8903,-6.9091,-6.9128,-6.9017,-6.9126,-6.9456,-7.0268,-7.0371,-7.0678,-7.1399,-7.1494,-7.1494,-7.1494,-7.1494,-7.1494,-7.1494,-7.1494,-7.1494,-7.1494,-7.1494,-7.1494,-7.1494,-7.1494,-7.1494,-7.1494,-7.1494,-7.1494,-7.1494,-7.1494,-7.1494,-7.1494,-7.0879,-7.048,-7.0403,-6.9714,-6.8887,-5.7881,-5.7881,-5.7881,-5.7881,-5.7881,-5.7983,-5.8321,0.0,0.0,0.0,0.0,0.0,0.0,0.0,0.0,0.0,0.0,0.0,0.0,0.0,0.0,0.0,0.0,0.0,0.0,0.0,0.0,0.0,0.0,0.0,0.0,0.0,0.0,0.0,0.0,0.0,-7.2041,-7.3225,-7.3797,-7.3869,-7.4636,-7.4602,-7.3869,-7.3897,-7.3718,-7.3262,0.0,-7.1593,-7.1517,-7.0699,-6.9845,-6.9123,-6.9465,-6.9157,-6.8549,-6.9003,-6.8391,-6.7294,-6.7421,-6.7154,-6.6812,-6.6812,-6.6812,-6.6896,-6.7319,-6.7154,-6.6988,-6.7856,-6.8054,-6.7896,-6.7448,-6.8014,-6.8524,-6.8093,-6.8331,-6.8752,-6.9091,-6.9202,-6.9202,-6.9202,-6.9564,-6.9955,-7.0337,-7.0745,-7.1107,-7.1431,-7.1494,-7.1494,-7.1494,-7.1494,-7.1494,-7.1494,-7.1494,-7.1494,-7.1494,-7.1494,-7.1494,-7.1494,-7.1494,-7.1494,-7.1494,-7.1494,-7.1494,-7.1494,-7.1096,-7.0915,-7.0879,-7.0118,-6.9502,-6.9104,-6.8706,-6.8126,-5.7881,-5.7881,-5.7881,-5.7881,0.0,0.0,0.0,0.0,0.0,0.0,0.0,0.0,0.0,0.0,0.0,0.0,0.0,0.0,0.0,0.0,0.0,0.0,0.0,0.0,0.0,0.0,0.0,0.0,0.0,0.0,0.0,0.0,0.0,0.0,0.0,0.0,-7.0883,-7.1548,-7.237,-7.3317,-7.3721,-7.3688,-7.3317,-7.3338,-7.3266,-7.3029,-7.2228,-7.1873,-7.1801,-7.118,-7.0186,-6.912,-6.912,-6.8773,-6.8331,-6.8943,-6.8409,-6.7407,-6.7856,-6.761,-6.7029,-6.6854,-6.6812,-6.6938,-6.7529,-6.7319,-6.7071,-6.8293,-6.8176,-6.761,-6.7195,-6.8014,-6.8714,-6.7896,-6.8331,-6.894,-6.894,-6.9237,-6.9456,-6.9273,-6.999,-7.0575,-7.0406,-7.1009,-7.1494,-7.1494,-7.1494,-7.1494,-7.1494,-7.1494,-7.1494,-7.1494,-7.1494,-7.1494,-7.1494,-7.1494,-7.1494,-7.1494,-7.1494,-7.1494,-7.1494,-7.1313,-7.1241,-7.1241,-7.048,-7.0149,-7.0149,-6.9285,-6.8597,-6.8017,-6.78,-6.7402,-5.7881,-5.7881,-5.7881,-5.7881,-5.7881,0.0,-5.7881,-5.8457,0.0,-5.9945,0.0,0.0,0.0,0.0,0.0,0.0,0.0,0.0,0.0,0.0,0.0,0.0,0.0,0.0,0.0,0.0,0.0,0.0,0.0,0.0,0.0,0.0,0.0,0.0,0.0,0.0,-6.9377,-6.9414,-7.0189,-7.1596,-7.3144,-7.3075,-7.1598,-7.1695,-7.1304,-7.0543,-6.9767,-6.9451,-6.9451,-6.9377,-6.9305,-6.9196,-6.9196,-6.9161,-6.9091,-6.9165,-6.9128,-6.894,-6.825,-6.7935,-6.7776,-6.7029,-6.6812,-6.6812,-6.6896,-6.6854,-6.6812,-6.6904,-6.6904,-6.7029,-6.7696,-6.8014,-6.7856,-6.7071,-6.7488,-6.8093,-6.8093,-6.9273,-7.0095,-6.9311,-7.0404,-7.1171,-7.0507,-7.1009,-7.1494,-7.1494,-7.1494,-7.1494,-7.1494,-7.1494,-7.1494,-7.1494,-7.1494,-7.1494,-7.1494,-7.1494,-7.1494,-7.1494,-7.1494,-7.1494,-7.1494,-7.0842,-7.048,-7.048,-6.9714,-6.9316,-6.9279,-6.8488,-6.8054,-6.7981,-6.7221,-6.6858,-5.7881,-5.7881,-5.7881,-5.7881,-5.7881,0.0,0.0,-5.8795,-5.937,-6.0588,-6.1095,0.0,0.0,0.0,0.0,0.0,0.0,0.0,0.0,0.0,0.0,0.0,0.0,0.0,0.0,0.0,0.0,0.0,0.0,0.0,0.0,0.0,0.0,0.0,0.0,0.0,0.0,-7.0642,-7.0895,-7.1468,-7.1639,-7.1605,-7.1434,-7.1011,-7.0661,-7.0345,-7.0062,-6.9672,-6.9275,-7.0233,-7.006,-6.9202,-6.9202,-6.86,-6.7816,-6.883,-6.8562,-6.7736,-6.7935,-6.769,-6.7195,-6.6896,-6.6812,-6.6812,-6.6812,-6.6812,-6.6812,-6.6812,-6.7154,-6.761,-6.7896,-6.8014,-6.8054,-6.8254,-6.8524,-6.8903,-6.9383,-6.9564,-6.9707,-6.9885,-7.0406,-7.0745,-7.044,-7.1009,-7.1494,-7.1494,-7.1494,-7.1494,-7.1494,-7.1494,-7.1494,-7.1494,-7.1494,-7.1494,-7.1494,-7.1494,-7.1494,-7.1494,-7.1494,-7.1277,-7.0806,-7.0553,-7.0185,-6.9678,-6.885,-6.8452,-6.8452,-6.7655,-6.7257,-6.7257,-6.6931,-6.6786,-5.7881,-5.7881,-5.7881,-5.7881,0.0,0.0,-5.9133,-5.937,-5.9742,-6.1028,-6.1501,0.0,0.0,0.0,0.0,0.0,0.0,0.0,0.0,0.0,0.0,0.0,0.0,0.0,0.0,0.0,0.0,0.0,0.0,0.0,0.0,0.0,0.0,0.0,0.0,0.0,0.0,-7.0875,-7.0875,-7.1139,-7.0609,-7.0778,-7.1463,-7.0976,-7.0745,-7.0745,-7.0745,-7.044,-7.0025,-7.1074,-7.0742,-6.9564,-6.9275,-6.8524,-6.7696,-6.8793,-6.8524,-6.7576,-6.7896,-6.765,-6.7154,-6.6896,-6.6812,-6.6812,-6.6812,-6.6812,-6.6854,-6.7112,-6.7569,-6.8132,-6.8638,-6.8562,-6.8524,-6.9054,-6.9202,-6.9383,-6.9885,-6.96,-6.9348,-6.992,-7.0234,-7.0371,-7.0371,-7.1009,-7.1494,-7.1494,-7.1494,-7.1494,-7.1494,-7.1494,-7.1494,-7.1494,-7.1494,-7.1494,-7.1494,-7.1277,-7.1132,-7.1132,-7.0915,-7.0661,-7.0408,-6.9901,-6.9358,-6.8814,-6.8017,-6.7619,-6.7619,-6.7076,-6.6786,-6.6786,-6.6786,-6.6786,-5.7881,-5.7881,-5.7881,0.0,0.0,0.0,-5.9776,-6.0114,-6.0317,-6.1129,0.0,-6.2381,0.0,0.0,0.0,0.0,0.0,0.0,0.0,0.0,0.0,0.0,0.0,0.0,0.0,0.0,0.0,0.0,0.0,0.0,0.0,0.0,0.0,0.0,0.0,0.0,0.0,-6.9636,-6.9636,-7.0406,-7.0406,-7.0811,-7.1494,-7.1494,-7.1494,-7.1494,-7.1494,-7.1463,-7.1463,-7.1463,-7.1042,-7.0303,-6.9528,-6.9237,-6.9202,-6.9202,-6.9202,-6.9054,-6.8289,-6.8014,-6.7856,-6.7071,-6.6812,-6.6812,-6.6812,-6.6812,-6.6988,-6.7776,-6.8014,-6.837,-6.999,-6.9814,-6.9202,-6.9202,-6.9202,-6.9202,-6.9202,-6.9202,-6.9202,-6.9202,-6.9849,-7.0371,-7.0371,-7.1009,-7.1494,-7.1494,-7.1494,-7.1494,-7.1494,-7.1494,-7.1494,-7.1494,-7.1494,-7.1494,-7.1494,-7.0806,-7.0372,-7.0372,-6.9642,-6.9569,-7.0335,-6.885,-6.8017,-6.8017,-6.7221,-6.6786,-6.6786,-6.6786,-6.6786,-6.6786,-6.6786,-6.6786,-5.7881,-5.7881,0.0,0.0,0.0,0.0,0.0,-6.0114,0.0,0.0,0.0,0.0,0.0,0.0,0.0,0.0,0.0,0.0,0.0,0.0,0.0,0.0,0.0,0.0,0.0,0.0,0.0,0.0,0.0,0.0,0.0,0.0,0.0,0.0,0.0,0.0,0.0,0.0,-7.0943,-7.1171,-7.1171,-7.1304,-7.1463,-7.0976,-7.0745,-7.0745,-7.0745,-7.0406,-6.9955,-7.0507,-7.0611,-7.0371,-7.013,-6.9707,-6.9202,-6.9202,-6.9202,-6.9054,-6.8289,-6.837,-6.8714,-6.7896,-6.8054,-6.8486,-6.8486,-6.8486,-6.8562,-6.879,-6.9273,-6.9778,-7.0268,-7.0234,-7.0025,-7.0025,-7.0025,-6.9885,-6.9347,-6.9202,-6.9202,-6.9202,-6.9849,-7.0371,-7.0371,-7.1009,-7.1494,-7.1494,-7.1494,-7.1494,-7.1494,-7.1494,-7.1494,-7.1494,-7.1494,-7.1277,-7.077,-7.0517,-7.0185,-6.9605,-6.8778,-6.8452,-6.8706,-6.8271,-6.7728,-6.7184,-6.6931,-6.6786,-6.6786,-6.6786,-6.6786,-6.6786,-6.6786,-6.6786,-5.7881,0.0,0.0,0.0,0.0,0.0,0.0,0.0,0.0,0.0,0.0,0.0,0.0,0.0,0.0,0.0,0.0,0.0,0.0,0.0,0.0,0.0,0.0,0.0,0.0,0.0,0.0,0.0,0.0,0.0,0.0,0.0,0.0,0.0,0.0,0.0,0.0,0.0,0.0,-7.106,-7.106,-7.0879,-7.0589,-7.0754,-7.1024,-7.1311,-7.1634,-7.1505,-7.1089,-7.0944,-7.0905,-7.0835,-7.0167,-6.9636,-6.9202,-6.9202,-6.9202,-6.9128,-6.8638,-6.879,-6.9056,-6.8252,-6.8336,-6.8673,-6.8321,-6.8033,-6.7848,-6.8214,-6.8432,-6.8717,-6.9308,-6.9727,-7.0048,-7.0334,-7.0165,-6.9778,-6.9275,-6.9202,-6.9275,-6.9636,-7.0095,-7.0474,-7.0778,-7.124,-7.1494,-7.1494,-7.1494,-7.1494,-7.1494,-7.1494,-7.1494,-7.1494,-7.1494,-7.1205,-7.0444,-7.0113,-6.9575,-6.8778,-6.7981,-6.751,-6.751,-6.751,-6.7293,-6.6822,-6.6786,-6.6786,-6.6786,-6.6786,-6.6786,-6.6786,-6.6786,-6.6786,0.0,0.0,0.0,0.0,0.0,0.0,0.0,0.0,0.0,0.0,0.0,0.0,0.0,0.0,0.0,0.0,0.0,0.0,0.0,0.0,0.0,0.0,0.0,0.0,0.0,0.0,0.0,0.0,0.0,0.0,0.0,0.0,0.0,0.0,0.0,0.0,0.0,0.0,0.0,0.0,-7.0294,-6.9932,-6.9243,-7.0661,-7.1712,-7.2436,-7.3233,-7.3595,-7.3458,-7.2141,-7.1616,-7.1475,-6.999,-6.9384,-6.9384,-6.9314,-6.9314,-6.9278,-6.9063,-6.9063,-6.8958,-6.8109,-6.7827,-6.7795,-6.7022,-6.6377,-6.6043,-6.6811,-6.6559,-6.6448,-6.7852,-6.8687,-6.9334,-7.0015,-6.9708,-6.9275,-6.9237,-6.9238,-6.9528,-7.0268,-7.044,-7.0711,-7.1399,-7.1494,-7.1494,-7.1494,-7.1494,-7.1494,-7.1494,-7.1494,-7.1494,-7.1494,-7.1458,-7.1096,-7.0335,-6.9569,-6.8742,-6.7945,-6.7221,-6.6786,-6.6786,-6.6786,-6.6786,-6.6786,-6.6786,-6.6786,-6.6786,-6.6786,-6.6786,-6.6786,-6.6786,-6.6786,0.0,0.0,0.0,0.0,0.0,0.0,0.0,0.0,0.0,0.0,0.0,0.0,0.0,0.0,0.0,0.0,0.0,0.0,0.0,0.0,0.0,0.0,0.0,0.0,0.0,0.0,0.0,0.0,0.0,0.0,0.0,0.0,0.0,0.0,0.0,0.0,-6.9684,-6.9684,-6.9642,0.0,-6.9461,-6.9388,-6.9207,-6.9569,-6.9787,-6.9973,-7.0806,-7.1132,-7.1168,-7.1408,-7.1524,-7.1488,-7.1146,-7.1009,-7.0937,-7.0361,-7.0141,-6.9872,-6.8011,-6.7834,-6.8109,-6.669,-6.6692,-6.7164,-6.7024,-6.727,-6.7614,-6.7783,-6.8151,-6.8543,-6.8894,-6.8618,-6.8304,-6.8482,-6.9344,-6.9955,-6.9347,-6.9707,-7.0199,-7.0371,-7.0878,-7.1304,-7.1463,-7.1494,-7.1494,-7.1494,-7.1494,-7.1494,-7.1494,-7.1494,-7.1494,-7.1494,-7.0987,-7.0299,-6.9533,-6.8706,-6.7909,-6.7112,-6.6895,-6.6786,-6.6786,-6.6786,-6.6786,-6.6786,-6.6786,-6.6786,-6.6786,-6.6786,-6.6786,-6.6786,-6.6786,-6.6786,0.0,0.0,0.0,0.0,0.0,0.0,0.0,0.0,0.0,0.0,0.0,0.0,0.0,0.0,0.0,0.0,0.0,0.0,0.0,0.0,0.0,0.0,0.0,0.0,0.0,0.0,0.0,0.0,0.0,0.0,0.0,0.0,0.0,0.0,0.0,0.0,-6.9207,-6.9207,-6.8995,-6.8633,-6.8633,-6.8416,-6.809,-6.9279,-6.9787,-6.9823,-7.0589,-7.0915,-7.0915,-7.0951,-7.0951,-7.0915,-7.0553,-7.0408,-7.0335,-6.9973,-6.9859,-6.9627,-6.8424,-6.8052,-6.7914,-6.6707,-6.6601,-6.6909,-6.6486,-6.6647,-6.6942,-6.6942,-6.6975,-6.7071,-6.7424,-6.7522,-6.7546,-6.7904,-6.8639,-6.913,-6.8716,-6.9265,-6.9829,-6.9829,-7.0152,-7.0517,-7.0915,-7.1277,-7.1494,-7.1494,-7.1494,-7.1494,-7.1494,-7.1494,-7.135,-7.1024,-7.0625,-6.9901,-6.8706,-6.8235,-6.7655,-6.6858,-6.6786,-6.6786,-6.6786,-6.6786,-6.6786,-6.6786,-6.6786,-6.6786,-6.6786,-6.6786,-6.6786,-6.6786,-6.6786,-6.6786,0.0,0.0,0.0,0.0,0.0,0.0,0.0,0.0,0.0,0.0,0.0,0.0,0.0,0.0,0.0,0.0,0.0,0.0,0.0,0.0,0.0,0.0,0.0,0.0,0.0,0.0,0.0,0.0,0.0,0.0,0.0,0.0,0.0,0.0,0.0,-6.8116,-6.8778,-6.8808,-6.8452,-6.78,-6.78,-6.7438,-6.6858,-6.885,-6.9756,-6.9792,-7.0553,-7.0915,-7.0879,-7.0372,-7.0221,-7.0118,-6.9461,-6.9207,-6.9207,-6.9062,-6.8959,-6.8959,-6.8692,-6.8211,-6.7585,-6.6776,-6.6497,-6.6355,-6.5714,-6.5597,-6.5728,-6.5728,-6.5338,-6.5108,-6.5728,-6.6388,-6.7047,-6.7644,-6.7806,-6.7862,-6.8148,-6.8737,-6.9207,-6.9207,-6.9207,-6.9424,-7.0082,-7.0698,-7.1096,-7.1096,-7.1205,-7.1313,-7.1313,-7.1313,-7.106,-7.0444,-7.0154,-6.943,-6.8126,-6.7873,-6.751,-6.6858,-6.6786,-6.6786,-6.6786,-6.6786,-6.6786,-6.6786,-6.6786,-6.6786,-6.6786,-6.6786,-6.6786,-6.6786,-6.6786,-6.6786,0.0,0.0,0.0,0.0,0.0,0.0,0.0,0.0,0.0,0.0,0.0,0.0,0.0,0.0,0.0,0.0,0.0,0.0,0.0,0.0,0.0,0.0,0.0,0.0,0.0,0.0,0.0,0.0,0.0,0.0,0.0,0.0,-6.6082,-6.6177,-6.6679,0.0,-6.7112,-6.7112,-6.7076,-6.6967,-6.6967,-6.6895,-6.6822,-6.7148,-6.7293,-6.7329,-6.8126,-6.8488,-6.8525,-6.9104,-6.9388,-6.9352,-6.9243,-6.9207,-6.9134,-6.8416,-6.8162,-6.7963,-6.6617,-6.6114,-6.5918,-6.5151,-6.4912,-6.4912,-6.4773,-6.5207,-6.5728,-6.5728,-6.611,-6.6512,-6.6638,-6.674,-6.6812,-6.6938,-6.6951,-6.7325,-6.8728,-6.9115,-6.9207,-6.9207,-6.9207,-6.9243,-6.9352,-6.9461,-6.9533,-6.9533,-7.0082,-7.0553,-7.0553,-7.0553,-7.048,-7.0439,-6.914,-6.8235,-6.8017,-6.7366,-6.6931,-6.6822,-6.6786,-6.6786,-6.6786,-6.6786,-6.6786,-6.6786,-6.6786,-6.6786,-6.6786,-6.6786,-6.6786,-6.6786,-6.6786,-6.6786,0.0,0.0,0.0,0.0,0.0,0.0,0.0,0.0,0.0,0.0,0.0,0.0,0.0,0.0,0.0,0.0,0.0,0.0,0.0,0.0,0.0,0.0,0.0,0.0,0.0,0.0,0.0,0.0,0.0,0.0,0.0,-6.5918,-6.633,-6.633,-6.6638,0.0,-6.6786,-6.6786,-6.6786,-6.6786,-6.6786,-6.6786,-6.6786,-6.6786,-6.6786,-6.6822,-6.7184,-6.7329,-6.7366,-6.7692,-6.7836,-6.7836,-6.7836,-6.7836,-6.78,-6.7474,-6.7329,-6.7227,-6.653,-6.6048,-6.5665,-6.5305,-6.5207,-6.5207,-6.5207,-6.5728,-6.633,-6.633,-6.6542,-6.6786,-6.6786,-6.6786,-6.6786,-6.6786,-6.6786,-6.7003,-6.7692,-6.7836,-6.7836,-6.7836,-6.8199,-6.8525,-6.8525,-6.8887,-6.9207,-6.9207,-6.9497,-6.975,-6.975,-6.975,-6.9539,-6.9104,-6.8416,-6.7836,-6.7366,-6.7003,-6.6786,-6.6786,-6.6786,-6.6786,-6.6786,-6.6786,-6.6786,-6.6786,-6.6786,-6.6786,-6.6786,-6.6786,-6.6786,-6.6786,-6.6786,-6.6786,0.0,0.0,0.0,0.0,0.0,0.0,0.0,0.0,0.0,0.0,0.0,0.0,0.0,0.0,0.0,0.0,0.0,0.0,0.0,0.0,0.0,0.0,0.0,0.0,0.0,0.0,0.0,0.0,0.0,0.0,-6.5949,-6.6482,-6.6786,-6.6786,-6.6786,-6.6786,-6.6786,-6.6786,-6.6786,-6.6786,-6.6786,-6.6786,-6.6786,-6.6786,-6.6786,-6.6786,-6.6786,-6.6786,-6.6786,-6.6786,-6.6786,-6.6786,-6.6786,-6.6786,-6.6786,-6.6786,-6.6786,-6.6786,-6.6786,-6.6452,-6.5981,-6.5981,-6.5981,-6.5981,-6.5981,-6.6361,-6.6786,-6.6786,-6.6786,-6.6786,-6.6786,-6.6786,-6.6786,-6.6786,-6.6786,-6.6786,-6.6786,-6.6786,-6.6786,-6.6786,-6.7293,-6.7692,-6.7692,-6.8199,-6.8561,-6.8561,-6.8742,-6.8887,-6.8887,-6.8887,-6.8669,-6.8054,-6.7836,-6.7474,-6.6858,-6.6786,-6.6786,-6.6786,-6.6786,-6.6786,-6.6786,-6.6786,-6.6786,-6.6786,-6.6786,-6.6786,-6.6786,-6.6786,-6.6786,-6.6786,-6.6786,-6.6786,0.0,0.0,0.0,0.0,0.0,0.0,0.0,0.0,0.0,0.0,0.0,0.0,0.0,0.0,0.0,0.0,0.0,0.0,0.0,0.0,0.0,0.0,0.0,0.0,0.0,0.0,0.0,0.0,0.0,0.0,-6.6727,-6.6757,-6.6786,-6.6786,-6.6786,-6.6786,-6.6786,-6.6786,-6.6786,-6.6786,-6.6786,-6.6786,-6.6786,-6.6786,-6.6786,-6.6786,-6.6786,-6.6786,-6.6786,-6.6786,-6.6786,-6.6786,-6.6786,-6.6786,-6.6786,-6.6786,-6.6786,-6.6786,-6.6786,-6.6757,-6.6727,-6.6727,-6.6727,-6.6727,-6.6727,-6.6757,-6.6786,-6.6786,-6.6786,-6.6786,-6.6786,-6.6786,-6.6786,-6.6786,-6.6786,-6.6786,-6.6786,-6.6786,-6.6786,-6.6786,-6.6822,-6.6858,-6.6858,-6.6895,-6.6931,-6.6931,-6.7583,-6.8054,-6.8054,-6.8054,-6.8054,-6.8017,-6.7329,-6.6858,-6.6786,-6.6786,-6.6786,-6.6786,-6.6786,-6.6786,-6.6786,-6.6786,-6.6786,-6.6786,-6.6786,-6.6786,-6.6786,-6.6786,-6.6786,-6.6786,-6.6786,-6.6786,0.0,0.0,0.0,0.0,0.0,0.0,0.0,0.0,0.0,0.0,0.0,0.0,0.0,0.0,0.0,0.0,0.0,0.0,0.0,0.0,0.0,0.0,0.0,0.0,0.0,0.0,0.0,0.0,0.0,0.0,-6.611,-6.6542,-6.6786,-6.6786,-6.6786,-6.6786,-6.6786,-6.6786,-6.6786,-6.6786,-6.6786,-6.6786,-6.6786,-6.6786,-6.6786,-6.6786,-6.6786,-6.6786,-6.6786,-6.6786,-6.6786,-6.6786,-6.6786,-6.6786,-6.6786,-6.6786,-6.6786,-6.6786,-6.6786,-6.6786,-6.6786,-6.6786,-6.6786,-6.6786,-6.6786,-6.6786,-6.6786,-6.6786,-6.6786,-6.6786,-6.6786,-6.6786,-6.6786,-6.6786,-6.6786,-6.6786,-6.6786,-6.6786,-6.6786,-6.6786,-6.6786,-6.6786,-6.6786,-6.6786,-6.6786,-6.6786,-6.704,-6.7221,-6.7221,-6.7221,-6.7221,-6.7221,-6.6967,-6.6786,-6.6786,-6.6786,-6.6786,-6.6786,-6.6786,-6.6786,-6.6786,-6.6786,-6.6786,-6.6786,-6.6786,-6.6786,-6.6786,-6.6786,-6.6786,-6.6786,-6.6786,-6.6786,-5.7881,0.0,0.0,0.0,0.0,0.0,0.0,0.0,0.0,0.0,0.0,0.0,0.0,0.0,0.0,0.0,0.0,0.0,0.0,0.0,0.0,0.0,0.0,0.0,0.0,0.0,0.0,0.0,0.0,0.0,-6.6079,-6.6512,-6.6786,-6.6786,-6.6786,-6.6786,-6.6786,-6.6786,-6.6786,-6.6786,-6.6786,-6.6786,-6.6786,-6.6786,-6.6786,-6.6786,-6.6786,-6.6786,-6.6786,-6.6786,-6.6786,-6.6786,-6.6786,-6.6786,-6.6786,-6.6786,-6.6786,-6.6786,-6.6786,-6.6786,-6.6786,-6.6786,-6.6786,-6.6786,-6.6786,-6.6786,-6.6786,-6.6786,-6.6786,-6.6786,-6.6786,-6.6786,-6.6786,-6.6786,-6.6786,-6.6786,-6.6786,-6.6786,-6.6786,-6.6786,-6.6786,-6.6786,-6.6786,-6.6786,-6.6786,-6.6786,-6.6786,-6.6786,-6.6786,-6.6786,-6.6786,-6.6786,-6.6786,-6.6786,-6.6786,-6.6786,-6.6786,-6.6786,-6.6786,-6.6786,-6.6786,-6.6786,-6.6786,-6.6786,-6.6786,-6.6786,-6.6786,-6.6786,-6.6786,-6.6786,-6.6786,-6.6677,0.0,0.0,0.0,0.0,0.0,0.0,0.0,0.0,0.0,0.0,0.0,0.0,0.0,0.0,0.0,0.0,0.0,0.0,0.0,0.0,0.0,0.0,0.0,0.0,0.0,0.0,0.0,0.0,0.0,-6.6786,-6.6786,-6.6786,-6.6786,-6.6786,-6.6786,-6.6786,-6.6786,-6.6786,-6.6786,-6.6786,-6.6786,-6.6786,-6.6786,-6.6786,-6.6786,-6.6786,-6.6786,-6.6786,-6.6786,-6.6786,-6.6786,-6.6786,-6.6786,-6.6786,-6.6786,-6.6786,-6.6786,-6.6786,-6.6786,-6.6786,-6.6786,-6.6786,-6.6786,-6.6786,-6.6786,-6.6786,-6.6786,-6.6786,-6.6786,-6.6786,-6.6786,-6.6786,-6.6786,-6.6786,-6.6786,-6.6786,-6.6786,-6.6786,-6.6786,-6.6786,-6.6786,-6.6786,-6.6786,-6.6786,-6.6786,-6.6786,-6.6786,-6.6786,-6.6786,-6.6786,-6.6786,-6.6786,-6.6786,-6.6786,-6.6786,-6.6786,-6.6786,-6.6786,-6.6786,-6.6786,-6.6786,-6.6786,-6.6786,-6.6786,-6.6786,-6.6786,-6.6786,-6.6786,-6.6786,-6.6786,-6.6786,-6.6388,-5.7881,0.0,0.0,0.0,0.0,0.0,0.0,0.0,0.0,0.0,0.0,0.0,0.0,0.0,0.0,0.0,0.0,0.0,0.0,0.0,0.0,0.0,0.0,0.0,0.0,0.0,0.0,0.0,0.0,-6.6786,-6.6786,-6.6786,-6.6786,-6.6786,-6.6786,-6.6786,-6.6786,-6.6786,-6.6786,-6.6786,-6.6786,-6.6786,-6.6786,-6.6786,-6.6786,-6.6786,-6.6786,-6.6786,-6.6786,-6.6786,-6.6786,-6.6786,-6.6786,-6.6786,-6.6786,-6.6786,-6.6786,-6.6786,-6.6786,-6.6786,-6.6786,-6.6786,-6.6786,-6.6786,-6.6786,-6.6786,-6.6786,-6.6786,-6.6786,-6.6786,-6.6786,-6.6786,-6.6786,-6.6786,-6.6786,-6.6786,-6.6786,-6.6786,-6.6786,-6.6786,-6.6786,-6.6786,-6.6786,-6.6786,-6.6786,-6.6786,-6.6786,-6.6786,-6.6786,-6.6786,-6.6786,-6.6786,-6.6786,-6.6786,-6.6786,-6.6786,-6.6786,-6.6786,-6.6786,-6.6786,-6.6786,-6.6786,-6.6786,-6.6786,-6.6786,-6.6786,-6.6786,-6.6786,-6.6786,-6.6786,-6.6786,-6.6388,-5.7881,-5.7881,-5.7881,-5.7881,0.0,0.0,0.0,0.0,0.0,0.0,0.0,0.0,0.0,0.0,0.0,0.0,0.0,0.0,0.0,0.0,0.0,0.0,0.0,0.0,0.0,0.0,0.0,0.0,-6.6786,-6.6786,-6.6786,-6.6786,-6.6786,-6.6786,-6.6786,-6.6786,-6.6786,-6.6786,-6.6786,-6.6786,-6.6786,-6.6786,-6.6786,-6.6786,-6.6786,-6.6786,-6.6786,-6.6786,-6.6786,-6.6786,-6.6786,-6.6786,-6.6786,-6.6786,-6.6786,-6.6786,-6.6786,-6.6786,-6.6786,-6.6786,-6.6786,-6.6786,-6.6786,-6.6786,-6.6786,-6.6786,-6.6786,-6.6786,-6.6786,-6.6786,-6.6786,-6.6786,-6.6786,-6.6786,-6.6786,-6.6786,-6.6786,-6.6786,-6.6786,-6.6786,-6.6786,-6.6786,-6.6786,-6.6786,-6.6786,-6.6786,-6.6786,-6.6786,-6.6786,-6.6786,-6.6786,-6.6786,-6.6786,-6.6786,-6.6786,-6.6786,-6.6786,-6.6786,-6.6786,-6.6786,-6.6786,-6.6786,-6.6786,-6.6786,-6.6786,-6.6786,-6.6786,-6.6786,-6.6786,-6.6786,-6.6786,-6.6207,-5.7881,-5.7881,-5.7881,-5.7881,-5.7881,0.0,-5.7881,-5.7881,0.0,0.0,0.0,0.0,0.0,0.0,0.0,0.0,0.0,0.0,0.0,0.0,0.0,0.0,0.0,0.0,0.0,0.0,0.0,-6.6533,-6.6533,-6.6533,-6.6533,-6.6533,-6.6569,-6.6677,-6.6677,-6.6714,-6.6786,-6.6786,-6.6786,-6.6786,-6.6786,-6.6786,-6.6786,-6.6786,-6.6786,-6.6786,-6.6786,-6.6786,-6.6786,-6.6786,-6.6786,-6.6786,-6.6786,-6.6786,-6.6786,-6.6786,-6.6786,-6.6786,-6.6786,-6.6786,-6.6786,-6.6786,-6.6786,-6.6786,-6.6786,-6.6786,-6.6786,-6.6786,-6.6786,-6.6786,-6.6786,-6.6786,-6.6786,-6.6786,-6.6786,-6.6786,-6.6786,-6.6786,-6.6786,-6.6786,-6.6786,-6.6786,-6.6786,-6.6786,-6.6786,-6.6786,-6.6786,-6.6786,-6.6786,-6.6786,-6.6786,-6.6786,-6.6786,-6.6786,-6.6786,-6.6786,-6.6786,-6.6786,-6.6786,-6.6786,-6.6786,-6.6786,-6.6786,-6.6786,-6.6786,-6.6786,-6.6786,-6.6786,-6.6786,-6.6786,-6.6786,-6.5953,-5.7881,-5.7881,-5.7881,-5.7881,-5.7881,0.0,-5.7881,-5.7881,0.0,0.0,0.0,0.0,0.0,0.0,0.0,0.0,0.0,0.0,0.0,0.0,0.0,0.0,0.0,0.0,0.0,0.0,-6.4238,-6.4838,-6.4867,-6.4867,-6.4867,-6.4867,-6.5156,-6.5808,-6.5844,-6.6134,-6.6786,-6.6786,-6.6786,-6.6786,-6.6786,-6.6786,-6.6786,-6.6786,-6.6786,-6.6786,-6.6786,-6.6786,-6.6786,-6.6786,-6.6786,-6.6786,-6.6786,-6.6786,-6.6786,-6.6786,-6.6786,-6.6786,-6.6786,-6.6786,-6.6786,-6.6786,-6.6786,-6.6786,-6.6786,-6.6786,-6.6786,-6.6786,-6.6786,-6.6786,-6.6786,-6.6786,-6.6786,-6.6786,-6.6786,-6.6786,-6.6786,-6.6786,-6.6786,-6.6786,-6.6786,-6.6786,-6.6786,-6.6786,-6.6786,-6.6786,-6.6786,-6.6786,-6.6786,-6.6786,-6.6786,-6.6786,-6.6786,-6.6786,-6.6786,-6.6786,-6.6786,-6.6786,-6.6786,-6.6786,-6.6786,-6.6786,-6.6786,-6.6786,-6.6786,-6.6786,-6.6786,-6.6786,-6.6786,-6.6786,-6.6786,-6.5953,0.0,0.0,-5.7881,-5.7881,0.0,0.0,0.0,-5.7881,0.0,0.0,0.0,0.0,0.0,0.0,0.0,0.0,0.0,0.0,0.0,0.0,0.0,0.0,0.0,0.0,0.0,0.0,-6.4014,-6.4367,-6.4396,-6.4396,-6.4396,-6.4396,-6.4577,-6.4975,-6.5011,-6.5374,-6.6207,-6.6207,-6.6388,-6.6786,-6.6786,-6.6786,-6.6786,-6.6786,-6.6786,-6.6786,-6.6786,-6.6786,-6.6786,-6.6786,-6.6786,-6.6786,-6.6786,-6.6786,-6.6786,-6.6786,-6.6786,-6.6786,-6.6786,-6.6786,-6.6786,-6.6786,-6.6786,-6.6786,-6.6786,-6.6786,-6.6786,-6.6786,-6.6786,-6.6786,-6.6786,-6.6786,-6.6786,-6.6786,-6.6786,-6.6786,-6.6786,-6.6786,-6.6786,-6.6786,-6.6786,-6.6786,-6.6786,-6.6786,-6.6786,-6.6786,-6.6786,-6.6786,-6.6786,-6.6786,-6.6786,-6.6786,-6.6786,-6.6786,-6.6786,-6.6786,-6.6786,-6.6786,-6.6786,-6.6786,-6.6786,-6.6786,-6.6786,-6.6786,-6.6786,-6.6786,-6.6786,-6.6786,-6.6786,-6.6786,-6.6786,-6.5953,0.0,0.0,0.0,0.0,0.0,-5.7881,0.0,0.0,0.0,-5.7881,0.0,0.0,0.0,0.0,0.0,0.0,0.0,0.0,0.0,0.0,0.0,0.0,0.0,0.0,0.0,0.0,-6.3925,-6.3925,-6.3925,-6.3925,-6.3925,-6.3925,-6.3997,-6.4142,-6.4178,-6.4541,-6.5374,-6.5518,-6.5917,-6.6569,-6.675,-6.6786,-6.6786,-6.6786,-6.6786,-6.6786,-6.6786,-6.6786,-6.6786,-6.6786,-6.6786,-6.6786,-6.6786,-6.6786,-6.6786,-6.6786,-6.6786,-6.6786,-6.6786,-6.6786,-6.6786,-6.6786,-6.6786,-6.6786,-6.6786,-6.6786,-6.6786,-6.6786,-6.6786,-6.6786,-6.6786,-6.6786,-6.6786,-6.6786,-6.6786,-6.6786,-6.6786,-6.6786,-6.6786,-6.6786,-6.6786,-6.6786,-6.6786,-6.6786,-6.6786,-6.6786,-6.6786,-6.6786,-6.6786,-6.6786,-6.6786,-6.6786,-6.6786,-6.6786,-6.6786,-6.6786,-6.6786,-6.6786,-6.6786,-6.6786,-6.6786,-6.6786,-6.6786,-6.6786,-6.6786,-6.6786,-6.6786,-6.6786,-6.6786,-6.6786,-6.6786,-6.5953,0.0,0.0,0.0,0.0,-5.7881,0.0,0.0,0.0,-5.7881,-5.7881,0.0,0.0,0.0,0.0,0.0,0.0,0.0,0.0,0.0,0.0,0.0,0.0,0.0,0.0,0.0,0.0,0.0,-6.2268,-6.2268,-6.2268,-6.2268,-6.2268,-6.2621,-6.3309,-6.3345,-6.3708,-6.4504,-6.5229,-6.5663,-6.5736,-6.646,-6.6786,-6.6786,-6.6786,-6.6786,-6.6786,-6.6786,-6.6786,-6.6786,-6.6786,-6.6786,-6.6786,-6.6786,-6.6786,-6.6786,-6.6786,-6.6786,-6.6786,-6.6786,-6.6786,-6.6786,-6.6786,-6.6786,-6.6786,-6.6786,-6.6786,-6.6786,-6.6786,-6.6786,-6.6786,-6.6786,-6.6786,-6.6786,-6.6786,-6.6786,-6.6786,-6.6786,-6.6786,-6.6786,-6.6786,-6.6786,-6.6786,-6.6786,-6.6786,-6.6786,-6.6786,-6.6786,-6.6786,-6.6786,-6.6786,-6.6786,-6.6786,-6.6786,-6.6786,-6.6786,-6.6786,-6.6786,-6.6786,-6.6786,-6.6786,-6.6786,-6.6786,-6.6786,-6.6786,-6.6786,-6.6786,-6.6786,-6.6786,-6.6786,-6.6786,-6.6786,-6.5953,0.0,0.0,0.0,0.0,0.0,0.0,-5.7881,0.0,-5.7881,0.0,0.0,0.0,0.0,0.0,0.0,0.0,0.0,0.0,0.0,0.0,0.0,0.0,0.0,0.0,0.0,0.0,0.0,0.0,0.0,-6.1978,-6.1978,-6.1978,-6.2123,-6.2476,-6.2512,-6.2875,-6.3708,-6.4504,-6.512,-6.5591,-6.6424,-6.6786,-6.6786,-6.6786,-6.6786,-6.6786,-6.6786,-6.6786,-6.6786,-6.6786,-6.6786,-6.6786,-6.6786,-6.6786,-6.6786,-6.6786,-6.6786,-6.6786,-6.6786,-6.6786,-6.6786,-6.6786,-6.6786,-6.6786,-6.6786,-6.6786,-6.6786,-6.6786,-6.6786,-6.6786,-6.6786,-6.6786,-6.6786,-6.6786,-6.6786,-6.6786,-6.6786,-6.6786,-6.6786,-6.6786,-6.6786,-6.6786,-6.6786,-6.6786,-6.6786,-6.6786,-6.6786,-6.6786,-6.6786,-6.6786,-6.6786,-6.6786,-6.6786,-6.6786,-6.6786,-6.6786,-6.6786,-6.6786,-6.6786,-6.6786,-6.6786,-6.6786,-6.6786,-6.6786,-6.6786,-6.6786,-6.6786,-6.6786,-6.6786,-6.6786,-6.6786,-6.5953,-6.0419,0.0,0.0,0.0,0.0,0.0,0.0,0.0,0.0,0.0,0.0,0.0,0.0,0.0,-5.7881,-5.7881,0.0,0.0,0.0,0.0,0.0,0.0,0.0,0.0,0.0,0.0,0.0,0.0,-6.1978,0.0,-6.1978,-6.1978,-6.1978,-6.1978,-6.1978,-6.2295,-6.2875,-6.3889,-6.4685,-6.5265,-6.6315,-6.6786,-6.6786,-6.6786,-6.6786,-6.6786,-6.6786,-6.6786,-6.6786,-6.6786,-6.6786,-6.6786,-6.6786,-6.6786,-6.6786,-6.6786,-6.6786,-6.6786,-6.6786,-6.6786,-6.6786,-6.6786,-6.6786,-6.6786,-6.6786,-6.6786,-6.6786,-6.6786,-6.6786,-6.6786,-6.6786,-6.6786,-6.6786,-6.6786,-6.6786,-6.6786,-6.6786,-6.6786,-6.6786,-6.6786,-6.6786,-6.6786,-6.6786,-6.6786,-6.6786,-6.6786,-6.6786,-6.6786,-6.6786,-6.6786,-6.6786,-6.6786,-6.6786,-6.6786,-6.6786,-6.6786,-6.6786,-6.6786,-6.6786,-6.6786,-6.6786,-6.6786,-6.6786,-6.6786,-6.6786,-6.6786,-6.6786,-6.6786,-6.6786,-6.6786,-6.6786,-6.5953,0.0,0.0,0.0,-6.0047,0.0,0.0,0.0,0.0,-5.7881,0.0,0.0,0.0,0.0,-5.7881,-5.7881,-5.7881,-5.7881,0.0,0.0,0.0,0.0,0.0,0.0,0.0,0.0,0.0,0.0,0.0,-6.1978,0.0,-6.1978,-6.1978,-6.1978,-6.1978,-6.1978,-6.2014,-6.2014,-6.3599,-6.4396,-6.4468,-6.6025,-6.6786,-6.6786,-6.6786,-6.6786,-6.6786,-6.6786,-6.6786,-6.6786,-6.6786,-6.6786,-6.6786,-6.6786,-6.6786,-6.6786,-6.6786,-6.6786,-6.6786,-6.6786,-6.6786,-6.6786,-6.6786,-6.6786,-6.6786,-6.6786,-6.6786,-6.6786,-6.6786,-6.6786,-6.6786,-6.6786,-6.6786,-6.6786,-6.6786,-6.6786,-6.6786,-6.6786,-6.6786,-6.6786,-6.6786,-6.6786,-6.6786,-6.6786,-6.6786,-6.6786,-6.6786,-6.6786,-6.6786,-6.6786,-6.6786,-6.6786,-6.6786,-6.6786,-6.6786,-6.6786,-6.6786,-6.6786,-6.6786,-6.6786,-6.6786,-6.6786,-6.6786,-6.6786,-6.6786,-6.6786,-6.6786,-6.6786,-6.6786,-6.6786,-6.6786,-6.6786,-6.5953,0.0,0.0,-6.0892,-6.0892,0.0,0.0,0.0,0.0,0.0,0.0,0.0,0.0,0.0,-5.7881,-5.7881,-5.7881,-5.7881,-5.8315,0.0,0.0,0.0,0.0,0.0,0.0,0.0,0.0,0.0,-6.1978,-6.1978,-6.1978,0.0,-6.1978,-6.1978,-6.1978,-6.1978,-6.1978,-6.1978,-6.3599,-6.4396,-6.4432,-6.6025,-6.6786,-6.6786,-6.6786,-6.6786,-6.6786,-6.6786,-6.6786,-6.6786,-6.6786,-6.6786,-6.6786,-6.6786,-6.6786,-6.6786,-6.6786,-6.6786,-6.6786,-6.6786,-6.6786,-6.6786,-6.6786,-6.6786,-6.6786,-6.6786,-6.6786,-6.6786,-6.6786,-6.6786,-6.6786,-6.6786,-6.6786,-6.6786,-6.6786,-6.6786,-6.6786,-6.6786,-6.6786,-6.6786,-6.6786,-6.6786,-6.6786,-6.6786,-6.6786,-6.6786,-6.6786,-6.6786,-6.6786,-6.6786,-6.6786,-6.6786,-6.6786,-6.6786,-6.6786,-6.6786,-6.6786,-6.6786,-6.6786,-6.6786,-6.6786,-6.6786,-6.6786,-6.6786,-6.6786,-6.6786,-6.6786,-6.6786,-6.6786,-6.6786,-6.6786,-6.6243,-6.5446,-6.2381,-6.2042,0.0,-6.167,-6.1095,0.0,-6.052,0.0,0.0,0.0,0.0,0.0,0.0,-5.8084,-5.7881,-5.7881,-5.8101,-5.8772,0.0,-6.1315,0.0,0.0,0.0,0.0,0.0,0.0,-6.1978,-6.1978,-6.1978,-6.1978,0.0,0.0,-6.1978,-6.1978,-6.1978,-6.1978,-6.1978,-6.3599,-6.4396,-6.4432,-6.6025,-6.6786,-6.6786,-6.6786,-6.6786,-6.6786,-6.6786,-6.6786,-6.6786,-6.6786,-6.6786,-6.6786,-6.6786,-6.6786,-6.6786,-6.6786,-6.6786,-6.6786,-6.6786,-6.6786,-6.6786,-6.6786,-6.6786,-6.6786,-6.6786,-6.6786,-6.6858,-6.7148,-6.704,-6.6858,-6.7148,-6.7003,-6.6786,-6.6786,-6.6786,-6.6786,-6.6786,-6.6786,-6.6786,-6.6786,-6.6786,-6.6786,-6.6786,-6.6786,-6.6786,-6.6786,-6.6786,-6.6786,-6.6786,-6.6786,-6.6786,-6.6786,-6.6786,-6.6786,-6.6786,-6.6786,-6.6786,-6.6786,-6.6786,-6.6786,-6.6786,-6.6786,-6.6677,-6.6388,-6.6641,-6.6677,-6.6388,-6.6677,-6.6786,-6.6786,-6.5663,-6.4903]},{"header":{"parameterUnit":"m.s-1","parameterCategory":1,"la1":30.6,"la2":29.2853,"lo1":-89.7004,"lo2":-87.6739,"dy":0.0162,"dx":0.0183,"nx":112,"ny":82,"refTime":"2023-06-15T00:00:00:Z","depth":0,"parameterNumber":3,"parameterNumberName":"V-component_of_WINDS"},"data":[0.0,0.0,0.0,0.0,0.0,0.0,0.0,0.0,0.0,0.0,0.0,0.0,0.0,0.0,0.0,0.0,0.0,0.0,0.0,0.0,0.0,0.0,0.0,0.0,0.0,0.0,0.0,0.0,0.0,0.0,0.0,0.0,0.0,0.0,0.0,0.0,0.0,0.0,0.0,0.0,0.0,0.0,0.0,0.0,0.0,0.0,0.0,0.0,0.0,0.0,0.0,0.0,0.0,0.0,0.0,0.0,0.0,0.0,0.0,0.0,0.0,0.0,0.0,0.0,0.0,0.0,0.0,0.0,0.0,0.0,0.0,0.0,0.0,0.0,0.0,0.0,0.0,0.0,0.0,0.0,0.0,0.0,0.0,0.0,0.0,0.0,0.0,0.0,0.0,0.0,0.0,-2.0526,-1.9495,-1.892,-1.8728,-1.7958,-1.7389,-1.726,0.0,0.0,0.0,0.0,0.0,0.0,0.0,0.0,0.0,0.0,0.0,0.0,0.0,0.0,0.0,0.0,0.0,0.0,0.0,0.0,0.0,0.0,0.0,0.0,0.0,0.0,0.0,0.0,0.0,0.0,0.0,0.0,0.0,0.0,0.0,0.0,0.0,0.0,0.0,0.0,0.0,0.0,0.0,0.0,0.0,0.0,0.0,0.0,0.0,0.0,0.0,0.0,0.0,0.0,0.0,0.0,0.0,0.0,0.0,0.0,0.0,0.0,0.0,0.0,0.0,0.0,0.0,0.0,0.0,0.0,0.0,0.0,0.0,0.0,0.0,0.0,0.0,0.0,0.0,0.0,0.0,0.0,0.0,0.0,0.0,0.0,0.0,0.0,0.0,0.0,0.0,0.0,0.0,0.0,0.0,0.0,0.0,0.0,0.0,0.0,0.0,0.0,0.0,0.0,-2.2668,-2.1475,-2.1222,-2.0779,-1.9941,-1.9686,-1.924,-1.8343,0.0,0.0,0.0,0.0,0.0,0.0,0.0,0.0,0.0,0.0,0.0,0.0,0.0,0.0,0.0,0.0,0.0,0.0,0.0,0.0,0.0,0.0,0.0,0.0,0.0,0.0,0.0,0.0,0.0,0.0,0.0,0.0,0.0,0.0,0.0,0.0,0.0,0.0,0.0,0.0,0.0,0.0,0.0,0.0,0.0,0.0,0.0,0.0,0.0,0.0,0.0,0.0,0.0,0.0,0.0,0.0,0.0,0.0,0.0,0.0,0.0,0.0,0.0,0.0,0.0,0.0,0.0,0.0,0.0,0.0,0.0,0.0,0.0,0.0,0.0,0.0,0.0,0.0,0.0,0.0,0.0,0.0,0.0,0.0,0.0,0.0,0.0,0.0,0.0,0.0,0.0,0.0,0.0,0.0,0.0,0.0,0.0,0.0,0.0,0.0,0.0,0.0,0.0,-2.3106,-2.2918,-2.248,-2.1915,-2.1411,-2.0969,-2.0399,-1.9623,-1.86,-1.8086,0.0,0.0,0.0,0.0,0.0,0.0,0.0,0.0,0.0,0.0,0.0,0.0,0.0,0.0,0.0,0.0,0.0,0.0,0.0,0.0,0.0,0.0,0.0,0.0,0.0,0.0,0.0,0.0,0.0,0.0,0.0,0.0,0.0,0.0,0.0,0.0,0.0,0.0,0.0,0.0,0.0,0.0,0.0,0.0,0.0,0.0,0.0,0.0,0.0,0.0,0.0,0.0,0.0,0.0,0.0,0.0,0.0,0.0,0.0,0.0,0.0,0.0,0.0,0.0,0.0,0.0,0.0,0.0,0.0,0.0,0.0,0.0,0.0,0.0,0.0,0.0,0.0,0.0,0.0,0.0,0.0,0.0,0.0,0.0,0.0,0.0,0.0,0.0,0.0,0.0,0.0,0.0,0.0,0.0,0.0,0.0,0.0,0.0,0.0,0.0,0.0,0.0,-2.3106,-2.3106,-2.3106,-2.2418,-2.1915,-2.1915,-2.1285,-2.0386,-1.9304,-1.8984,0.0,0.0,0.0,0.0,0.0,0.0,0.0,0.0,0.0,0.0,0.0,0.0,0.0,0.0,0.0,0.0,0.0,0.0,0.0,0.0,0.0,0.0,0.0,0.0,0.0,0.0,0.0,0.0,0.0,0.0,0.0,0.0,0.0,0.0,0.0,0.0,0.0,0.0,0.0,0.0,0.0,0.0,0.0,0.0,0.0,0.0,0.0,0.0,0.0,0.0,0.0,0.0,0.0,0.0,0.0,0.0,0.0,0.0,0.0,0.0,0.0,0.0,0.0,0.0,0.0,0.0,0.0,0.0,0.0,0.0,0.0,0.0,0.0,0.0,0.0,0.0,0.0,0.0,0.0,0.0,0.0,0.0,0.0,0.0,0.0,0.0,0.0,0.0,0.0,0.0,0.0,0.0,0.0,0.0,0.0,0.0,0.0,0.0,0.0,0.0,0.0,0.0,-2.3106,-2.3106,-2.3106,-2.3043,-2.2981,-2.2981,-2.2918,-2.248,-2.1475,-2.0526,0.0,0.0,0.0,0.0,0.0,0.0,0.0,0.0,0.0,0.0,0.0,0.0,0.0,0.0,0.0,0.0,0.0,0.0,0.0,0.0,0.0,0.0,0.0,0.0,0.0,0.0,0.0,0.0,0.0,0.0,0.0,0.0,0.0,0.0,0.0,0.0,0.0,0.0,0.0,0.0,0.0,0.0,0.0,0.0,0.0,0.0,0.0,0.0,0.0,0.0,0.0,0.0,0.0,0.0,0.0,0.0,0.0,0.0,0.0,0.0,0.0,0.0,0.0,0.0,0.0,0.0,0.0,0.0,0.0,0.0,0.0,0.0,0.0,0.0,0.0,0.0,0.0,0.0,0.0,0.0,0.0,0.0,0.0,0.0,0.0,0.0,0.0,0.0,0.0,0.0,0.0,0.0,0.0,0.0,0.0,0.0,0.0,0.0,0.0,0.0,0.0,0.0,-2.3106,-2.3106,0.0,-2.3106,-2.3106,-2.3106,-2.3106,-2.2668,-2.1664,0.0,0.0,0.0,0.0,0.0,0.0,0.0,0.0,0.0,0.0,0.0,0.0,0.0,0.0,0.0,0.0,0.0,0.0,0.0,0.0,0.0,0.0,0.0,0.0,0.0,0.0,0.0,0.0,0.0,0.0,0.0,0.0,0.0,0.0,0.0,0.0,0.0,0.0,0.0,0.0,0.0,0.0,0.0,0.0,0.0,0.0,0.0,0.0,0.0,0.0,0.0,0.0,0.0,0.0,0.0,0.0,0.0,0.0,0.0,0.0,0.0,0.0,0.0,0.0,0.0,0.0,0.0,0.0,0.0,0.0,0.0,0.0,0.0,0.0,0.0,0.0,0.0,0.0,0.0,0.0,0.0,0.0,0.0,0.0,0.0,0.0,0.0,0.0,0.0,0.0,0.0,0.0,0.0,0.0,0.0,0.0,0.0,0.0,0.0,0.0,0.0,0.0,-2.3106,-2.3106,-2.3106,0.0,-2.3106,-2.3106,-2.3106,-2.3106,-2.2793,-2.2104,0.0,0.0,0.0,0.0,0.0,0.0,0.0,0.0,0.0,0.0,0.0,0.0,0.0,0.0,0.0,0.0,0.0,0.0,0.0,0.0,0.0,0.0,0.0,0.0,0.0,0.0,0.0,0.0,0.0,0.0,0.0,0.0,0.0,0.0,0.0,0.0,0.0,0.0,0.0,0.0,0.0,0.0,0.0,0.0,0.0,0.0,0.0,0.0,0.0,0.0,0.0,0.0,0.0,0.0,0.0,0.0,0.0,0.0,0.0,0.0,0.0,0.0,0.0,0.0,0.0,0.0,0.0,0.0,0.0,0.0,0.0,0.0,0.0,0.0,0.0,0.0,0.0,0.0,0.0,0.0,0.0,0.0,0.0,0.0,0.0,0.0,0.0,0.0,0.0,0.0,0.0,0.0,0.0,0.0,0.0,0.0,0.0,0.0,0.0,0.0,0.0,0.0,-2.3106,-2.3106,-2.3106,-2.3106,-2.3106,-2.3106,-2.3106,-2.3106,-2.3106,0.0,0.0,0.0,0.0,0.0,0.0,0.0,0.0,0.0,0.0,0.0,0.0,0.0,0.0,0.0,0.0,0.0,0.0,0.0,0.0,0.0,0.0,0.0,0.0,0.0,0.0,0.0,0.0,0.0,0.0,0.0,0.0,0.0,0.0,0.0,0.0,0.0,0.0,0.0,0.0,0.0,0.0,0.0,0.0,0.0,0.0,0.0,0.0,0.0,0.0,0.0,0.0,0.0,0.0,0.0,0.0,0.0,0.0,0.0,0.0,0.0,0.0,0.0,0.0,0.0,0.0,0.0,0.0,0.0,0.0,0.0,0.0,0.0,0.0,0.0,0.0,0.0,0.0,0.0,0.0,0.0,0.0,0.0,0.0,0.0,0.0,0.0,0.0,0.0,0.0,0.0,0.0,0.0,0.0,0.0,0.0,0.0,0.0,0.0,0.0,0.0,0.0,0.0,-2.3106,-2.3106,-2.3106,-2.3106,-2.3106,-2.3106,-2.3106,-2.3106,-2.3106,-2.3106,0.0,0.0,0.0,0.0,0.0,0.0,0.0,0.0,0.0,0.0,0.0,0.0,0.0,0.0,0.0,0.0,0.0,0.0,0.0,0.0,0.0,0.0,0.0,0.0,0.0,0.0,0.0,0.0,0.0,0.0,0.0,0.0,0.0,0.0,0.0,0.0,0.0,0.0,0.0,0.0,0.0,0.0,0.0,0.0,0.0,0.0,0.0,0.0,0.0,0.0,0.0,0.0,0.0,0.0,0.0,0.0,0.0,0.0,0.0,0.0,0.0,0.0,0.0,0.0,0.0,0.0,0.0,0.0,0.0,0.0,0.0,0.0,0.0,0.0,0.0,0.0,0.0,0.0,0.0,0.0,0.0,0.0,0.0,0.0,0.0,0.0,0.0,0.0,0.0,0.0,0.0,0.0,0.0,0.0,0.0,0.0,0.0,0.0,0.0,0.0,0.0,0.0,-2.3106,-2.3106,-2.3106,-2.3106,-2.3106,-2.3106,-2.3106,-2.3106,-2.3106,-2.3106,0.0,0.0,0.0,0.0,0.0,0.0,0.0,0.0,0.0,0.0,0.0,0.0,0.0,0.0,0.0,0.0,0.0,0.0,0.0,0.0,0.0,0.0,0.0,0.0,0.0,0.0,0.0,0.0,0.0,0.0,0.0,0.0,0.0,0.0,0.0,0.0,0.0,0.0,0.0,0.0,0.0,0.0,0.0,0.0,0.0,0.0,0.0,0.0,0.0,0.0,0.0,0.0,0.0,0.0,0.0,0.0,0.0,0.0,0.0,0.0,0.0,0.0,0.0,0.0,0.0,0.0,0.0,0.0,0.0,0.0,0.0,0.0,0.0,0.0,0.0,0.0,0.0,0.0,0.0,0.0,0.0,0.0,0.0,0.0,0.0,0.0,0.0,0.0,0.0,0.0,0.0,0.0,0.0,0.0,0.0,0.0,0.0,0.0,0.0,0.0,0.0,0.0,-2.3106,-2.3106,-2.3106,-2.3106,-2.3106,-2.3106,-2.3106,-2.3106,-2.3106,-2.3106,0.0,0.0,0.0,0.0,0.0,0.0,0.0,0.0,0.0,0.0,0.0,0.0,0.0,0.0,0.0,0.0,0.0,0.0,0.0,0.0,0.0,0.0,0.0,0.0,0.0,0.0,0.0,0.0,0.0,0.0,0.0,0.0,0.0,0.0,0.0,0.0,0.0,0.0,0.0,0.0,0.0,0.0,0.0,0.0,0.0,0.0,0.0,0.0,0.0,0.0,0.0,0.0,0.0,0.0,0.0,0.0,0.0,0.0,0.0,0.0,-2.4914,0.0,0.0,0.0,0.0,0.0,0.0,0.0,0.0,0.0,0.0,0.0,0.0,0.0,0.0,0.0,0.0,0.0,0.0,0.0,0.0,0.0,0.0,0.0,0.0,0.0,0.0,0.0,0.0,0.0,0.0,0.0,0.0,0.0,0.0,0.0,0.0,0.0,0.0,0.0,0.0,0.0,-2.3106,-2.3106,-2.3106,-2.3106,-2.3106,-2.3106,-2.3106,-2.3106,-2.3106,-2.3106,-2.3106,0.0,0.0,0.0,0.0,0.0,0.0,0.0,0.0,0.0,0.0,0.0,0.0,0.0,0.0,0.0,0.0,0.0,0.0,0.0,0.0,0.0,0.0,0.0,0.0,0.0,0.0,0.0,0.0,0.0,0.0,0.0,0.0,0.0,0.0,0.0,0.0,0.0,0.0,0.0,0.0,0.0,0.0,0.0,0.0,0.0,0.0,0.0,0.0,0.0,0.0,0.0,0.0,0.0,0.0,0.0,0.0,0.0,0.0,0.0,0.0,-2.5577,0.0,0.0,0.0,0.0,0.0,0.0,0.0,0.0,0.0,0.0,0.0,0.0,0.0,0.0,0.0,0.0,0.0,0.0,0.0,0.0,0.0,0.0,0.0,0.0,0.0,0.0,0.0,0.0,0.0,0.0,0.0,0.0,0.0,0.0,0.0,0.0,0.0,0.0,0.0,0.0,-2.3574,-2.3574,-2.3574,-2.3574,-2.3574,-2.3515,-2.3354,-2.334,-2.3281,-2.312,-2.3106,0.0,0.0,0.0,0.0,0.0,0.0,0.0,0.0,0.0,0.0,0.0,0.0,0.0,0.0,0.0,0.0,0.0,0.0,0.0,0.0,0.0,0.0,0.0,0.0,0.0,0.0,0.0,0.0,0.0,0.0,0.0,0.0,0.0,0.0,0.0,0.0,0.0,0.0,0.0,0.0,0.0,0.0,0.0,0.0,0.0,0.0,0.0,0.0,0.0,0.0,0.0,0.0,0.0,-2.5622,-2.5754,-2.6018,-2.6018,-2.6018,-2.5988,-2.6186,-2.6215,-2.608,0.0,0.0,0.0,0.0,0.0,0.0,0.0,0.0,0.0,0.0,0.0,0.0,0.0,0.0,0.0,0.0,0.0,0.0,0.0,0.0,0.0,0.0,0.0,0.0,0.0,-2.4086,-2.394,0.0,0.0,0.0,0.0,0.0,0.0,0.0,0.0,0.0,0.0,0.0,0.0,-2.4086,-2.4086,-2.4086,-2.4086,-2.4086,-2.3969,-2.3706,-2.3676,-2.3574,-2.3296,-2.3223,-2.3193,0.0,0.0,0.0,0.0,0.0,0.0,0.0,0.0,0.0,0.0,0.0,0.0,0.0,0.0,0.0,0.0,0.0,0.0,0.0,0.0,0.0,0.0,0.0,0.0,0.0,0.0,0.0,0.0,0.0,0.0,0.0,0.0,-2.7737,-2.8149,0.0,0.0,0.0,0.0,0.0,0.0,0.0,0.0,0.0,0.0,0.0,0.0,0.0,0.0,-2.6542,-2.6087,-2.5915,-2.5944,-2.5944,-2.5974,-2.6018,-2.6018,-2.6018,-2.6018,-2.6683,0.0,-2.6095,-2.6792,0.0,0.0,0.0,0.0,0.0,0.0,0.0,0.0,0.0,0.0,0.0,0.0,0.0,0.0,0.0,0.0,0.0,0.0,0.0,0.0,0.0,0.0,-2.4086,-2.4086,-2.4086,-2.4057,0.0,-2.3984,-2.4013,-2.3969,-2.4027,0.0,0.0,0.0,0.0,0.0,0.0,0.0,-2.4086,-2.4086,-2.4086,-2.4086,-2.4086,-2.4071,-2.4027,-2.4013,-2.3998,-2.3954,-2.3691,-2.353,-2.353,-2.3252,0.0,0.0,0.0,0.0,0.0,0.0,0.0,0.0,0.0,0.0,0.0,0.0,0.0,0.0,0.0,0.0,0.0,0.0,0.0,0.0,0.0,0.0,0.0,0.0,0.0,0.0,0.0,0.0,0.0,-2.6421,-2.7047,-2.7373,-2.6796,-2.6184,0.0,0.0,0.0,0.0,0.0,0.0,0.0,0.0,0.0,-2.8807,-2.7299,-2.677,-2.7514,-2.6992,-2.6528,-2.6296,-2.6296,-2.6383,-2.6559,-2.6559,-2.6559,-2.6559,-2.6917,-2.6846,-2.6601,-2.7009,-2.6913,-2.6633,0.0,0.0,0.0,0.0,-2.7223,-2.812,-2.9177,-3.0167,0.0,0.0,0.0,0.0,0.0,0.0,0.0,0.0,0.0,0.0,0.0,0.0,0.0,-2.5986,-2.5789,-2.5591,-2.4827,-2.4627,-2.4525,0.0,-2.4379,-2.4569,-2.4393,0.0,0.0,0.0,0.0,0.0,-2.4627,-2.4627,-2.4627,-2.4627,-2.4627,-2.4554,-2.4379,-2.4349,-2.4276,-2.4101,-2.3954,-2.3793,-2.3603,-2.3457,-2.3296,0.0,0.0,0.0,0.0,0.0,0.0,0.0,0.0,0.0,0.0,0.0,0.0,0.0,0.0,0.0,0.0,0.0,0.0,0.0,0.0,0.0,0.0,0.0,0.0,0.0,0.0,0.0,0.0,-2.7548,-2.812,-2.8186,-2.8174,-2.7627,0.0,0.0,0.0,0.0,0.0,0.0,-3.103,-2.9463,-2.9277,-3.0649,-2.885,-2.7943,-2.8082,-2.792,-2.7499,-2.6749,-2.6837,-2.6998,-2.7232,-2.7232,-2.7232,-2.7232,-2.7232,-2.7232,-2.7262,-2.7316,-2.7241,-2.7029,-2.6676,-2.6408,-2.6323,-2.6994,-2.7997,-2.9179,-3.049,-3.1895,-3.2973,-3.244,0.0,-3.1773,-3.0613,0.0,0.0,0.0,0.0,-2.9687,-3.0012,-2.9774,-2.9006,-2.7547,-2.728,-2.6894,-2.5508,-2.5178,-2.4987,0.0,-2.4797,-2.5046,-2.4797,0.0,0.0,0.0,0.0,-2.5119,-2.5119,-2.5119,-2.5119,-2.5119,-2.5119,-2.5031,-2.4782,-2.4767,-2.4583,-2.4349,-2.4247,-2.4101,-2.3852,-2.3764,-2.3574,-2.3237,0.0,0.0,0.0,0.0,0.0,0.0,0.0,0.0,0.0,0.0,0.0,0.0,0.0,0.0,0.0,0.0,0.0,0.0,0.0,0.0,0.0,0.0,0.0,0.0,0.0,0.0,0.0,0.0,0.0,-3.2922,-3.2305,0.0,0.0,0.0,0.0,-3.072,-3.0822,-3.1048,-3.1537,-3.053,-2.9884,-2.9969,-2.9841,-2.9061,-2.7666,-2.8945,-2.885,-2.7437,-2.773,-2.7815,-2.783,-2.783,-2.783,-2.783,-2.783,-2.783,-2.7847,-2.7994,-2.7665,-2.7085,-2.7722,-2.7593,-2.7258,-2.9736,-3.0718,-3.115,-3.3595,-3.4537,-3.4668,-3.489,-3.3881,-3.2357,-3.1883,-3.0531,0.0,0.0,-3.0272,-2.9509,-3.0854,-3.0556,-2.9462,-2.7916,-2.7645,-2.7322,-2.5834,-2.5271,-2.5119,0.0,-2.5105,-2.5119,-2.5105,0.0,-2.5119,-2.5119,-2.5119,-2.5119,-2.5119,-2.5119,-2.5119,-2.5119,-2.5119,-2.5119,-2.5105,-2.5105,-2.509,-2.5075,-2.4782,-2.454,-2.4525,-2.4218,-2.391,-2.3574,-2.3574,0.0,0.0,0.0,0.0,0.0,0.0,0.0,0.0,0.0,0.0,0.0,0.0,0.0,0.0,0.0,0.0,0.0,0.0,0.0,0.0,0.0,0.0,0.0,0.0,0.0,0.0,0.0,0.0,-3.141,-3.2036,0.0,0.0,-3.1801,-3.2487,-3.2965,-3.4088,-3.4394,-3.365,-3.3218,-3.2866,-3.2438,-3.1381,-3.064,-3.0106,-2.9571,-2.8805,-2.7788,-2.7815,-2.7874,-2.7874,-2.7874,-2.7874,-2.7874,-2.7874,-2.7874,-2.7934,-2.7925,-2.7703,-2.7453,-2.8669,-2.8806,-2.8676,-3.058,-3.1948,-3.2867,-3.3422,-3.4632,-3.5805,-3.5656,-3.4981,-3.4173,-3.3804,-3.3551,-3.3421,-3.3746,-3.3421,-3.316,-3.3681,-3.3405,-3.2596,-3.118,-3.0105,-2.9104,-2.7614,-2.6433,-2.5666,-2.5666,-2.5344,-2.5119,-2.5119,-2.5119,-2.5119,-2.5119,-2.5119,-2.5119,-2.5119,-2.5119,-2.5119,-2.5119,-2.5119,-2.5119,-2.5119,-2.5119,-2.5119,-2.5119,-2.5017,-2.4855,-2.4583,-2.4452,-2.4247,-2.391,-2.391,-2.3749,0.0,0.0,0.0,0.0,0.0,0.0,0.0,0.0,0.0,0.0,0.0,0.0,0.0,0.0,0.0,0.0,0.0,0.0,0.0,0.0,0.0,0.0,0.0,0.0,0.0,0.0,-3.2836,-3.1773,-3.2982,-3.3539,-3.245,-3.3746,-3.4719,-3.5087,-3.6278,-3.6542,-3.5365,-3.5317,-3.4665,-3.325,-3.2532,-3.1582,-3.0299,-2.9953,-2.9245,-2.8271,-2.8491,-2.8593,-2.8593,-2.8593,-2.8593,-2.8593,-2.8593,-2.8593,-2.8593,-2.8593,-2.8344,-2.8071,-2.938,-3.0171,-3.0595,-3.2098,-3.3303,-3.4198,-3.4426,-3.5519,-3.6614,-3.6243,-3.5805,-3.5382,-3.5046,-3.5153,-3.5341,-3.508,-3.5015,-3.5015,-3.5015,-3.5002,-3.4591,-3.3088,-3.1673,-3.0224,-2.8793,-2.7198,-2.6018,-2.6018,-2.5666,-2.5374,-2.5374,-2.5374,-2.5374,-2.5374,-2.5374,-2.5374,-2.5374,-2.5374,-2.5374,-2.5374,-2.5286,-2.5213,-2.5213,-2.5125,-2.5119,-2.5119,-2.5119,-2.5031,-2.4811,-2.4797,-2.4583,-2.4247,-2.4145,-2.3984,-2.3764,0.0,0.0,0.0,0.0,0.0,0.0,0.0,0.0,0.0,0.0,0.0,0.0,0.0,0.0,0.0,0.0,0.0,0.0,0.0,0.0,0.0,0.0,0.0,-3.2898,-3.409,-3.4855,-3.4684,-3.5552,-3.5927,-3.5386,-3.6224,-3.6838,-3.6942,-3.7267,-3.7191,-3.6532,-3.6552,-3.5186,-3.2143,-3.3127,-3.1883,-2.8083,-3.0115,-3.0438,-2.893,-2.9559,-2.9866,-2.9866,-2.9866,-2.9866,-2.9866,-2.9866,-2.9866,-2.9866,-2.9866,-2.9565,-2.9168,-3.0075,-3.1408,-3.2985,-3.4432,-3.5025,-3.5312,-3.6772,-3.7305,-3.7226,-3.6886,-3.6406,-3.5996,-3.5586,-3.5137,-3.4785,-3.4785,-3.4785,-3.4785,-3.4785,-3.5051,-3.5027,-3.3502,-3.203,-3.0578,-2.9125,-2.7397,-2.6061,-2.6061,-2.6047,-2.6047,-2.6018,-2.6018,-2.6018,-2.6018,-2.6018,0.0,-2.6018,-2.6018,-2.6018,-2.6018,-2.574,-2.5549,-2.5549,-2.5257,-2.5149,-2.5134,-2.5134,-2.5134,-2.5119,-2.5119,-2.4973,-2.4583,-2.4262,-2.4101,-2.4101,0.0,0.0,0.0,0.0,0.0,0.0,0.0,0.0,0.0,0.0,0.0,0.0,0.0,0.0,0.0,0.0,0.0,0.0,0.0,0.0,0.0,0.0,-3.4802,-3.4802,-3.5348,-3.5911,-3.6172,-3.6426,-3.6591,-3.6436,-3.6999,-3.7432,-3.7476,-3.7887,-3.748,-3.5925,-3.6066,-3.5298,-3.3259,-3.2601,-3.1879,-3.1121,-3.0517,-3.0067,-2.9603,-2.9778,-2.9866,-2.9866,-2.9866,-2.9866,-2.9866,-2.9866,-2.9866,-2.9866,-2.9866,-3.1238,-3.3092,-3.1529,-3.1703,-3.284,-3.4379,-3.5687,-3.6772,-3.7426,-3.7516,-3.7355,-3.7429,-3.7261,-3.6934,-3.6816,-3.668,-3.6582,-3.6582,-3.6582,-3.6582,-3.6582,-3.5826,-3.49,-3.4477,-3.2391,-3.0292,-2.987,-2.8377,-2.7071,-2.7071,-2.6881,-2.6574,-2.6091,-2.6018,-2.6018,-2.6018,-2.6018,0.0,-2.6018,-2.6018,-2.6018,-2.6018,-2.593,-2.5886,-2.5886,-2.5798,-2.5652,-2.5418,-2.5403,-2.5301,-2.5134,-2.5119,-2.509,-2.4987,-2.4598,-2.4437,0.0,0.0,0.0,0.0,0.0,0.0,0.0,0.0,0.0,0.0,0.0,0.0,0.0,0.0,0.0,0.0,0.0,0.0,0.0,0.0,0.0,0.0,-3.5047,-3.6154,-3.6339,-3.6387,-3.6577,-3.7032,-3.713,-3.7221,-3.7473,-3.7787,-3.7879,-3.7728,-3.7549,-3.6764,-3.5358,-3.5957,-3.5503,-3.3737,-3.3967,-3.357,-3.238,-3.1579,-3.1174,-3.1174,-3.1325,-3.1776,-3.2407,-3.171,-3.1386,0.0,-3.1386,-3.1386,-3.1386,-3.218,-3.3513,0.0,0.0,0.0,0.0,0.0,-3.7177,-3.7903,-3.8046,-3.8046,-3.7903,-3.8046,-3.7857,-3.7559,-3.7559,-3.7441,-3.7305,-3.7305,-3.7305,-3.7305,-3.7305,-3.6133,-3.49,-3.49,-3.2492,-3.0272,-3.0415,-2.9001,-2.7715,-2.7847,0.0,0.0,-2.672,-2.6515,-2.6427,-2.6427,-2.6427,-2.6427,-2.6427,-2.6427,-2.6427,-2.6427,-2.6296,-2.6222,-2.6222,-2.6091,0.0,0.0,0.0,-2.5388,-2.5134,-2.5119,0.0,0.0,0.0,-2.4841,-2.4841,0.0,0.0,0.0,-2.3779,-2.3588,0.0,0.0,0.0,0.0,0.0,0.0,0.0,0.0,0.0,0.0,0.0,0.0,0.0,0.0,0.0,0.0,-3.6321,-3.7032,-3.7446,-3.7239,-3.7177,-3.7525,-3.7652,-3.7814,-3.8194,-3.8315,-3.8247,-3.7935,-3.6926,-3.6048,-3.5435,0.0,0.0,0.0,0.0,-3.5496,-3.2666,-3.2809,-3.2968,-3.2968,-3.3433,-3.4392,-3.5672,-3.4066,-3.3265,-3.3101,-3.3347,-3.3265,-3.3265,-3.4944,-3.5646,-3.5526,-3.527,-3.699,-3.9598,-3.9359,-3.9043,-3.873,-3.873,0.0,0.0,-3.8652,-3.8359,-3.7988,-3.7988,-3.7734,-3.7441,-3.7441,-3.7441,-3.7441,-3.7441,-3.6266,-3.5028,-3.5028,-3.2611,-3.0446,-3.0719,-2.9321,-2.8078,-2.8476,-2.8209,-2.7964,-2.7686,-2.7305,-2.7027,-2.6998,-2.6983,-2.6983,-2.6983,-2.6983,-2.6983,-2.6983,0.0,0.0,-2.6559,-2.6296,-2.6105,-2.6076,-2.5769,-2.5447,-2.5193,-2.5178,-2.5163,-2.5119,-2.5119,-2.5119,-2.5119,-2.5119,-2.4973,-2.4613,-2.4291,-2.4115,0.0,0.0,0.0,0.0,0.0,0.0,0.0,0.0,0.0,0.0,0.0,0.0,0.0,0.0,0.0,-3.6021,-3.6859,-3.7384,-3.7488,-3.8046,-3.8347,-3.8159,-3.8194,-3.8077,-3.7898,-3.8266,-3.847,-3.8445,-3.856,-3.8673,-3.8915,-3.7914,0.0,-3.7114,-3.4931,-3.3564,-3.3222,-3.3301,-3.3333,-3.3333,0.0,0.0,-3.3903,-3.3592,-3.2608,-3.1399,-3.2772,-3.2623,-3.1482,-3.3183,-3.4668,-3.5983,-3.6701,-3.7356,-3.8044,-3.9314,-3.9707,-3.9648,-3.9648,-3.9394,-3.9082,-3.9082,-3.8789,-3.8457,-3.8457,-3.8398,0.0,-3.832,-3.832,-3.832,-3.832,-3.7137,-3.5925,-3.5925,-3.3453,-3.1159,-3.1508,-3.0082,-2.8798,-2.9134,-2.893,-2.8695,-2.8622,-2.7934,-2.7291,-2.7027,-2.6983,-2.6983,-2.6983,-2.6983,-2.6983,-2.6983,-2.6939,-2.6896,-2.6896,-2.6837,-2.6691,-2.6427,-2.6105,-2.5783,-2.5447,-2.5432,-2.5315,-2.5134,-2.5119,-2.5119,-2.5119,-2.5119,-2.509,-2.5017,-2.4627,-2.4335,0.0,0.0,0.0,0.0,0.0,0.0,0.0,0.0,0.0,0.0,0.0,-3.4059,-3.4148,0.0,-3.6241,-3.679,-3.7398,-3.7856,-3.7883,-3.8294,-3.8514,-3.831,-3.856,-3.8577,-3.8164,-3.8563,-3.8871,-3.8867,-3.8588,-3.8482,-3.8917,-3.8208,-3.7929,-3.8236,-3.7467,-3.6286,-3.4717,-3.4717,-3.4229,-3.3429,-3.4311,-3.4717,-3.4636,-3.3838,-3.2936,-3.2128,-3.3019,-3.2936,-3.2293,-3.4944,-3.7055,-3.8627,-3.9177,-3.9184,-3.9089,-3.9891,-4.0078,-3.9902,-3.9902,-3.9746,-3.9551,-3.9551,-3.9414,-3.9199,-3.8965,-3.8887,-3.8848,-3.8633,-3.8574,-3.8574,-3.8574,-3.7438,-3.6164,-3.6164,-3.3676,-3.1413,-3.1936,-3.0523,-2.9281,-2.9764,-2.9603,-2.9325,-2.9164,-2.8739,-2.8271,-2.7788,-2.7437,-2.7232,-2.7232,-2.7086,-2.6983,-2.6983,-2.6983,-2.6983,-2.6983,-2.6983,-2.6852,-2.653,-2.6354,-2.612,-2.5783,-2.5622,-2.5461,-2.5301,-2.514,-2.5119,-2.5119,-2.5119,-2.5119,-2.5119,-2.4958,-2.473,0.0,0.0,0.0,0.0,0.0,0.0,0.0,0.0,-3.0894,-3.3534,-3.4398,-3.4854,-3.5681,-3.6325,-3.6917,-3.7349,-3.7806,-3.8083,-3.818,-3.8316,-3.8417,-3.8348,-3.8718,-3.8846,-3.8668,-3.8955,-3.9277,-3.9453,-3.8614,-3.8208,-3.8539,-3.8635,-3.8862,-3.9119,-4.0118,-3.9393,-3.6557,-3.6155,-3.5268,-3.3919,-3.3919,-3.4474,-3.543,-3.4066,-3.3183,-3.2936,-3.3265,-3.3756,-3.4636,-3.7436,-3.9453,-4.0763,-4.1094,-4.0957,-4.0664,-4.0742,-4.0566,-4.0273,-4.0273,-4.0215,-4.0137,-4.0039,-3.9961,-3.9824,-3.9453,-3.9336,-3.9258,-3.8926,-3.8769,-3.8691,-3.8691,-3.7734,-3.6701,-3.6701,-3.4429,-3.2337,-3.2613,-3.1258,-3.0031,-3.0313,-3.0188,-2.9968,-2.9705,-2.9603,-2.9325,-2.8637,-2.8081,-2.7744,-2.7744,-2.7408,-2.7174,-2.7174,-2.7071,-2.6983,-2.6983,-2.6983,-2.6881,-2.6617,-2.6603,-2.6457,-2.612,-2.5915,-2.5754,-2.5622,-2.5374,-2.5213,-2.5154,-2.5163,-2.5119,-2.5119,-2.5119,-2.5119,-2.8131,-2.8328,-2.977,-3.0983,-3.211,-3.3019,0.0,0.0,-3.3682,-3.3998,-3.444,-3.4962,-3.5726,-3.5977,-3.627,-3.7005,-3.7516,-3.7751,-3.7791,-3.8476,-3.8859,-3.8505,-3.8533,-3.8747,-3.9058,-3.9141,-3.9531,-4.0312,-4.0257,-4.0317,-4.0822,-4.0861,-4.088,-4.0919,-3.961,-3.8724,-3.831,-3.6797,-3.5914,-3.5672,-3.5672,-3.5042,-3.3674,-3.351,-3.2541,-3.115,-3.269,-3.5187,-3.8073,-3.8487,-3.8724,-3.904,-4.0607,-4.1152,-4.1152,-4.1523,-4.1621,-4.1582,-4.1582,-4.1348,-4.0976,-4.0586,-4.0195,-3.9883,-3.9824,-3.9824,-3.9805,-3.9766,-3.9453,-3.9141,-3.9141,-3.8701,-3.8336,-3.8336,-3.6996,-3.5378,-3.4205,-3.2911,-3.1662,-3.0602,-3.0554,-3.07,-3.0671,-3.0422,-2.9925,-2.8988,-2.8783,-2.8725,-2.8725,-2.8212,-2.7771,-2.7771,-2.7335,-2.6983,-2.6983,-2.6983,-2.6969,-2.6939,-2.6939,-2.6793,-2.6457,-2.6691,-2.6559,-2.5974,-2.593,-2.5769,-2.5476,-2.5198,-2.5119,-2.5119,-2.5119,-2.5119,-2.9882,0.0,0.0,0.0,-3.2554,-3.2827,-3.3597,-3.3539,-3.351,-3.4654,-3.5159,-3.5547,-3.6162,-3.6462,-3.6804,0.0,-3.7602,-3.7835,-3.8097,-3.8476,-3.8672,-3.857,-3.8734,-3.8955,-3.916,-3.9453,-3.9863,-4.0469,-4.0762,-4.0976,-4.1172,-4.1172,-4.1172,-4.1172,-4.0509,-3.9138,-3.7117,-3.6396,-3.4944,-3.3003,-3.3003,-3.2608,-3.1881,-3.1881,-3.2046,-3.2376,-3.4148,-3.6316,-3.8645,-3.8645,-3.9216,-4.0197,-4.0919,-4.1172,-4.123,-4.1641,-4.1797,-4.1836,-4.207,-4.2051,-4.1875,-4.1699,-4.1504,-4.1328,-4.1074,-4.0996,-4.0898,-4.0391,-4.0117,-3.9922,-3.9668,-3.9277,-3.8945,-3.8945,-3.7535,-3.5827,-3.446,-3.306,-3.1636,-3.0321,-3.0334,-3.0554,-3.0554,-3.0583,-3.0495,-3.0086,-2.9529,-2.9178,-2.9178,-2.8783,-2.8432,-2.818,-2.7817,-2.7481,-2.7291,-2.71,-2.6983,-2.6983,-2.6983,-2.6925,-2.6793,-2.6735,-2.6676,-2.6588,-2.6398,-2.6237,-2.6091,-2.5769,-2.552,-2.533,-2.514,-2.5119,-3.0595,0.0,0.0,-3.3021,-3.3135,-3.2983,-3.4044,-3.3783,-3.3765,-3.5112,-3.567,-3.6028,-3.6344,-3.6706,-3.7109,-3.734,-3.7599,-3.7908,-3.828,-3.8477,-3.8531,-3.8608,-3.8945,-3.9258,-3.9375,-3.9805,-4.0254,-4.0664,-4.0996,-4.1172,-4.1172,-4.1172,-4.1172,-4.1172,-4.0763,-3.9295,-3.6717,-3.6236,-3.4701,-3.2196,-3.2196,-3.2196,-3.2196,-3.2196,-3.3167,-3.488,-3.6155,-3.7693,-3.9295,-3.9295,-4.0021,-4.1172,-4.1172,-4.1172,-4.123,-4.1777,-4.1973,-4.2031,-4.2461,-4.2598,-4.2578,-4.2461,-4.2422,-4.2363,-4.207,-4.1973,-4.1836,-4.123,-4.0957,-4.0801,-4.0508,-4.0078,-3.9726,-3.959,-3.8326,-3.6774,-3.5275,-3.3624,-3.2092,-3.0699,-3.0307,-3.0328,-3.0416,-3.0539,-3.0715,-3.0817,-3.0217,-2.9778,-2.9778,-2.9412,-2.9003,-2.8608,-2.8271,-2.7993,-2.7759,-2.7364,-2.713,-2.713,-2.7042,-2.6983,-2.6983,-2.6852,-2.6881,-2.7115,-2.6896,-2.6778,-2.6778,-2.6442,-2.6164,-2.593,-2.5608,-2.5403,0.0,0.0,-3.2273,-3.3721,-3.4375,-3.4602,-3.4687,-3.5039,-3.5304,-3.5391,-3.5723,-3.5996,-3.6016,-3.6367,-3.6729,-3.6749,-3.7344,-3.7891,-3.793,-3.8281,-3.8627,-3.8574,-3.8945,-3.9375,0.0,-4.0254,-4.0684,-4.1113,-4.1172,-4.1172,-4.1172,-4.1172,-4.1172,-4.1172,-3.9531,-3.8645,-3.8566,-3.6877,-3.5914,-3.5833,-3.5833,-3.5833,-3.5833,-3.5833,-3.6797,-3.8487,-3.8487,-3.9531,-4.1094,-4.1094,-4.1172,-4.1172,-4.1172,-4.1172,-4.1269,-4.2109,-4.2402,-4.2461,-4.291,-4.3066,-4.2988,-4.2558,-4.2422,-4.2422,-4.2402,-4.2402,-4.2402,-4.2383,-4.207,-4.1758,-4.1758,-4.1426,-4.1016,-4.0586,-4.008,-3.92,-3.7144,-3.5369,-3.3624,-3.2028,-3.0748,-3.0064,-3.0372,-3.0446,-3.0466,-3.0773,-3.0803,-3.0773,-3.0773,-3.0232,-2.9588,-2.8944,-2.8608,-2.8417,-2.8326,-2.7832,-2.7466,-2.7466,-2.7159,-2.6983,-2.6983,-2.7291,-2.7452,-2.7466,-2.7452,-2.7452,-2.7452,-2.7115,-2.6954,-2.6939,-2.6617,-2.6296,-3.0364,0.0,-3.2431,-3.4088,-3.4824,-3.5156,-3.5156,-3.5488,-3.5801,-3.5801,-3.5918,-3.6016,-3.6016,-3.6367,-3.6758,-3.7031,-3.7559,-3.8027,-3.832,-3.8476,-3.8672,-3.8965,-3.9394,0.0,0.0,0.0,0.0,-4.1133,-4.1172,-4.1172,-4.1172,-4.1172,-4.1172,-4.1172,-3.9531,-3.8645,-3.8645,-3.6877,-3.5994,-3.5994,-3.5994,-3.5994,-3.6075,-3.7197,-3.8073,-3.8645,-3.9786,-4.0685,-4.1172,-4.1172,-4.1172,-4.1172,-4.1172,-4.1172,-4.1269,-4.2109,-4.2422,-4.2539,-4.3242,-4.3496,-4.3476,-4.332,-4.3281,-4.3281,-4.3281,-4.3281,-4.3223,-4.293,-4.2754,-4.2578,-4.2285,-4.1894,-4.1562,-4.1406,-4.1055,-4.0221,-3.8112,-3.6954,-3.5533,-3.2527,-3.1496,-3.0831,-2.9916,-2.9881,-3.0144,-3.0466,-3.0685,-3.0817,-3.0817,-3.0642,-3.0334,-2.991,-2.9573,-2.9208,-2.8769,-2.8359,-2.8022,-2.7803,-2.7495,-2.732,-2.732,-2.7217,-2.7261,-2.7481,-2.7686,-2.7788,-2.7788,-2.7686,-2.7525,-2.7305,-2.6983,-2.6764,-3.1432,-3.258,-3.3473,-3.4685,-3.5293,-3.5605,-3.5605,-3.582,-3.6016,-3.6016,-3.6016,-3.6016,-3.6016,-3.6504,-3.6992,-3.7246,-3.7773,-3.8262,-3.8535,-3.8711,-3.8906,-3.916,-3.9746,0.0,0.0,0.0,0.0,-4.1152,-4.1172,-4.1172,-4.1172,-4.1172,-4.1172,-4.1172,-3.8901,-3.7675,-3.7675,-3.5914,-3.5672,-3.6957,-3.7534,-3.7852,-3.7932,-3.9059,-3.9531,-3.961,-4.0685,-4.1172,-4.1172,-4.1172,-4.1172,-4.1172,-4.1172,-4.1172,-4.125,-4.1953,-4.2305,-4.2539,-4.3418,-4.3711,-4.3711,-4.3711,-4.3711,-4.3711,-4.3711,-4.3711,-4.3652,-4.3379,-4.3301,-4.3242,-4.2949,-4.2676,-4.2441,-4.2285,-4.1933,-4.121,-3.958,-3.8412,-3.6754,-3.3659,-3.2404,-3.1355,-2.9848,-2.972,-2.9968,-3.0387,-3.0525,-3.07,-3.0803,-3.0817,-3.0744,-3.0539,-3.0232,-2.9903,-2.9281,-2.8842,-2.8461,-2.8063,-2.7817,-2.7598,-2.7481,-2.7276,-2.7261,-2.7481,-2.7686,-2.7832,-2.7874,-2.7874,-2.7905,-2.7817,-2.7481,-2.7335,-3.2151,-3.3738,-3.5391,-3.543,-3.5723,-3.6016,-3.6016,-3.6016,-3.6016,-3.6016,-3.5947,-3.5879,0.0,0.0,-3.7215,-3.7305,-3.8008,-3.8574,-3.8574,-3.8945,-3.9219,0.0,0.0,0.0,0.0,0.0,0.0,-4.1172,0.0,-4.1172,-4.1172,-4.1172,-4.1172,-4.1172,-3.7932,-3.6155,-3.6236,-3.4555,-3.5349,-3.8724,-4.0353,-4.1094,-4.1172,-4.1172,-4.1172,-4.1172,-4.1172,-4.1172,-4.1172,-4.1172,-4.1172,-4.1172,-4.1172,-4.1172,-4.123,-4.1641,-4.207,-4.2539,-4.3379,-4.3691,-4.3711,-4.3711,-4.3711,-4.3711,-4.3711,-4.3711,-4.3711,-4.3711,-4.3711,-4.3711,-4.3711,-4.3711,-4.3594,-4.3203,-4.2793,-4.2266,-4.1426,-3.9677,-3.7654,-3.5375,-3.3286,-3.1449,-3.01,-2.9851,-3.0049,-3.0357,-3.0416,-3.0466,-3.0788,-3.0817,-3.0817,-3.0817,-3.0554,-3.0328,-2.991,-2.931,-2.8812,-2.8505,-2.8093,-2.7847,-2.7539,-2.751,-2.7495,-2.7481,-2.7495,-2.7642,-2.7844,-2.7874,-2.8034,-2.8403,-2.802,-2.7874,-3.407,-3.4948,-3.5469,-3.5781,-3.5937,-3.6016,-3.6016,-3.6016,-3.6016,-3.6016,-3.5108,-3.4677,0.0,0.0,0.0,-3.7074,-3.8008,0.0,-3.8574,-3.8945,0.0,-3.9668,0.0,-4.0644,-4.0976,-4.1113,0.0,0.0,-4.1172,-4.1172,-4.1172,-4.1172,-4.1172,-4.1172,-3.9059,-3.8566,-3.9864,-3.817,-3.8408,-4.0509,-3.9707,-3.9943,-4.1172,-4.1172,-4.1172,-4.1172,-4.1172,-4.1172,-4.1172,-4.1172,-4.1172,-4.1172,-4.1172,-4.1172,-4.123,-4.1641,-4.207,-4.25,-4.3047,-4.3437,-4.3711,-4.3711,-4.3711,-4.3711,-4.3711,-4.3711,-4.3711,-4.3711,-4.3711,-4.3711,-4.3711,-4.3711,-4.3672,-4.3574,-4.3457,-4.3144,-4.2285,-4.1442,-3.9783,-3.6044,-3.2714,-3.0236,-2.9609,-2.9705,-2.9895,-2.9983,-3.0284,-3.0466,-3.0788,-3.0817,-3.0817,-3.0817,-3.0759,-3.0568,-3.0328,-2.9851,-2.9471,-2.9164,-2.8622,-2.8271,-2.8198,-2.7964,-2.7715,-2.7481,-2.7715,-2.7759,-2.7598,-2.7832,-2.7917,-2.799,-2.7917,-2.7874,-3.5267,-3.5801,-3.6016,-3.625,-3.6309,-3.625,-3.6055,-3.6016,-3.6016,-3.6016,-3.4834,0.0,0.0,0.0,0.0,0.0,0.0,0.0,-3.8555,-3.9121,-3.9609,0.0,-4.043,0.0,-4.1152,-4.1172,-4.1172,0.0,-4.1172,-4.1172,-4.1172,-4.1172,-4.1172,-4.1172,-3.9531,-3.8724,-3.8901,-3.8724,-3.9119,-4.0021,-3.9864,-4.0275,-4.1172,-4.1172,-4.1172,-4.1172,0.0,-4.1172,-4.1172,-4.1172,-4.1172,-4.1172,-4.1172,-4.1172,-4.1211,-4.1426,-4.1914,-4.2461,-4.2695,-4.3183,-4.3711,-4.3711,-4.3711,-4.3711,-4.3711,-4.3711,-4.3711,-4.3711,-4.3711,-4.3711,-4.3711,-4.3711,-4.3711,-4.3711,-4.3711,-4.3476,-4.2617,-4.2246,-4.0788,-3.6315,-3.2569,-2.9968,-2.9647,-2.9749,-2.9866,-2.9866,-3.0225,-3.0407,-3.0598,-3.0744,-3.0817,-3.0817,-3.0817,-3.07,-3.046,-3.0056,-2.972,-2.9398,-2.8915,-2.8578,-2.8447,-2.818,-2.8008,-2.7686,-2.7715,-2.7656,-2.7481,-2.751,-2.7598,-2.7744,-2.7744,-2.7817,-3.5976,-3.6387,-3.668,-3.668,-3.668,-3.6562,-3.584,-3.5743,-3.5743,-3.5743,0.0,-3.3692,-3.5382,0.0,-3.4707,-3.6643,0.0,-3.8086,-3.8516,-3.9336,-3.9902,-3.9902,-4.0644,-4.1172,-4.1172,-4.1172,-4.1172,-4.1172,-4.1172,-4.1172,-4.1172,-4.1172,-4.1172,-4.1172,-3.9707,-3.8249,-3.6717,-3.7993,-3.8724,-3.8961,-4.0275,-4.1016,-4.1172,-4.1172,-4.1172,-4.1172,0.0,0.0,-4.1172,-4.1172,-4.1172,-4.1172,-4.1172,-4.1172,-4.1172,-4.1172,-4.1699,-4.2422,-4.2422,-4.2988,-4.3711,-4.3711,-4.3711,-4.3711,-4.3711,-4.3711,-4.3711,-4.3711,-4.3711,-4.3711,-4.3711,-4.3711,-4.3711,-4.3711,-4.3672,-4.3398,-4.2598,-4.1924,-4.0283,-3.6005,-3.2644,-3.0387,-2.9983,-3.0005,-2.991,-2.9866,-3.0225,-3.0431,-3.0431,-3.0627,-3.0817,-3.0817,-3.0817,-3.0715,-3.0437,-3.0071,-2.9749,-2.9456,-2.909,-2.8769,-2.8505,-2.8505,-2.8344,-2.7947,-2.7744,-2.7583,-2.7539,-2.7217,-2.7203,-2.7481,-2.7437,-2.7554,-3.6348,-3.6621,-3.668,-3.668,-3.668,-3.6266,-3.4564,-3.4195,0.0,0.0,-3.193,-3.0872,-3.3623,-3.3232,0.0,-3.5095,0.0,0.0,0.0,0.0,-3.9902,0.0,0.0,0.0,0.0,0.0,0.0,0.0,0.0,0.0,-4.1172,-4.1172,-4.1172,-4.1172,-4.0938,-4.0607,-4.0275,-3.9138,-3.9295,-4.0763,-3.961,-3.9786,-4.1172,-4.1172,-4.1172,-4.1172,0.0,0.0,-4.1172,-4.1172,-4.1172,-4.1172,-4.1172,-4.1172,-4.1172,-4.1172,-4.1699,-4.2422,-4.2422,-4.2988,-4.3711,-4.3711,-4.3711,-4.3711,-4.3711,-4.3711,-4.3711,-4.3711,-4.3711,-4.3711,-4.3711,-4.3711,-4.3711,-4.3711,-4.3437,-4.3047,-4.2539,-3.9566,-3.6454,-3.418,-3.2119,-3.0642,-3.032,-3.0343,-3.0255,-2.991,-3.0225,-3.0431,-3.0431,-3.0627,-3.0817,-3.0817,-3.0817,-3.0803,-3.0744,-3.0203,-2.9837,-2.9778,-2.9222,-2.8871,-2.8812,-2.8812,-2.8666,-2.8282,-2.83,-2.8139,-2.7861,-2.7554,-2.7422,-2.7466,-2.7203,-2.71,-3.6504,-3.668,-3.668,-3.668,-3.668,-3.6405,-3.5204,0.0,0.0,0.0,0.0,-3.2281,-3.454,0.0,0.0,0.0,0.0,0.0,0.0,0.0,0.0,0.0,0.0,0.0,0.0,0.0,0.0,0.0,0.0,0.0,0.0,-4.1172,-4.1172,-4.1172,-4.1172,-4.1172,-4.1172,-4.0353,-4.0353,-4.1172,-4.0353,-4.0353,-4.1172,-4.1172,-4.1172,-4.1172,0.0,0.0,-4.1172,-4.1172,-4.1172,-4.1172,-4.1172,-4.1172,-4.1211,-4.1426,-4.1894,-4.2461,-4.2695,-4.3183,-4.3711,-4.3711,-4.3711,-4.3711,-4.3711,-4.3711,-4.3711,-4.3711,-4.3711,-4.3711,-4.3711,-4.3711,-4.3711,-4.3711,-4.3203,-4.2375,-4.1048,-3.8266,-3.5511,-3.3756,-3.269,-3.1835,-3.0792,-3.1175,-3.1275,-3.0071,-3.0079,-3.0181,-3.0181,-3.0378,-3.0642,-3.0803,-3.0817,-3.0817,-3.0817,-3.0232,-2.9866,-2.9866,-2.9251,-2.8886,-2.8886,-2.8886,-2.8812,-2.8681,-2.852,-2.8282,-2.8122,-2.7876,-2.7715,-2.7715,-2.7393,-2.7247,-3.6523,-3.668,-3.668,-3.668,-3.668,-3.6493,-3.5703,-3.5538,0.0,0.0,-3.4333,-3.3762,-3.5245,0.0,0.0,0.0,0.0,0.0,0.0,0.0,0.0,0.0,0.0,0.0,0.0,0.0,0.0,0.0,0.0,0.0,0.0,-4.1172,-4.1172,-4.1172,-4.1172,-4.1172,-4.1172,-4.1172,-4.1172,-4.1172,-4.1172,-4.1172,-4.1172,-4.1172,-4.1172,-4.1172,0.0,0.0,0.0,-4.1172,-4.1172,-4.1172,-4.1172,-4.1172,-4.123,-4.1641,-4.207,-4.25,-4.293,-4.3359,-4.3711,-4.3711,-4.3711,-4.3711,-4.3711,-4.3711,-4.3711,-4.3711,-4.3711,-4.3711,-4.3711,-4.3711,-4.3652,-4.3476,-4.2508,-4.1109,-3.8974,-3.7186,-3.5511,-3.3756,-3.3429,-3.2921,-3.146,-3.1874,-3.1811,-3.0049,-2.9822,-2.9866,-2.9866,-3.0225,-3.0466,-3.0788,-3.0817,-3.0803,-3.0729,-3.0188,-2.9837,-2.9764,-2.9208,-2.8886,-2.8886,-2.8886,-2.8886,-2.8886,-2.8651,-2.8534,-2.8534,-2.8136,-2.7976,-2.7976,-2.773,-2.7539,-3.6445,-3.668,-3.668,-3.668,-3.668,-3.6197,-3.4426,0.0,0.0,-3.3988,-3.2788,-3.2211,-3.3692,0.0,0.0,0.0,0.0,-3.7461,0.0,0.0,0.0,0.0,0.0,0.0,0.0,0.0,0.0,0.0,0.0,0.0,0.0,-4.1172,-4.1172,-4.1172,-4.1172,-4.1172,-4.1172,-4.1172,-4.1172,-4.1172,-4.1172,-4.1172,-4.1172,-4.1172,-4.1172,-4.1172,0.0,0.0,0.0,-4.1172,-4.1172,-4.1172,-4.1172,-4.1172,-4.123,-4.1641,-4.207,-4.25,-4.293,-4.3359,-4.3711,-4.3711,-4.3711,-4.3711,-4.3711,-4.3711,-4.3711,-4.3711,-4.3711,-4.3711,-4.3711,-4.3711,-4.3516,-4.2734,-4.0948,-3.8894,-3.6776,-3.6109,-3.5511,-3.3756,-3.3429,-3.3252,-3.2757,-3.1574,-3.0373,-2.9595,-2.9676,-2.9866,-2.9866,-3.0225,-3.0466,-3.0788,-3.0817,-3.07,-3.0504,-3.0071,-2.9734,-2.9442,-2.909,-2.8886,-2.8886,-2.8886,-2.8886,-2.8886,-2.8856,-2.8842,-2.8842,-2.8534,-2.8311,-2.8388,-2.8052,-2.7759,-3.5801,-3.6094,-3.6289,-3.6289,-3.6289,-3.6093,-3.5284,0.0,0.0,-3.5108,-3.4609,-3.4402,-3.504,0.0,0.0,0.0,0.0,0.0,0.0,0.0,0.0,0.0,0.0,0.0,0.0,0.0,0.0,0.0,0.0,0.0,0.0,0.0,-3.9629,-3.9629,-4.0685,-4.0685,-3.9629,-4.0685,-4.1172,-4.1172,-4.1172,-4.1172,-4.1172,-4.1172,-4.1172,-4.1172,0.0,0.0,0.0,-4.1172,-4.1172,-4.1172,-4.1172,-4.1328,-4.1601,-4.2031,-4.2441,-4.2871,-4.3301,-4.3555,-4.3711,-4.3711,-4.3711,-4.3711,-4.3711,-4.3711,-4.3711,-4.3711,-4.3711,-4.3711,-4.3711,-4.3516,-4.3105,-4.2246,-4.1358,-4.0216,-3.8004,-3.7596,-3.7037,-3.5268,-3.4778,-3.4257,-3.3081,-3.2075,-3.0938,-2.9571,-2.9325,-2.9427,-2.9807,-3.0064,-3.0188,-3.051,-3.0539,-3.0495,-3.0446,-2.9866,-2.9515,-2.9383,-2.9076,-2.8886,-2.8886,-2.8886,-2.8886,-2.8886,-2.8886,-2.8886,-2.8886,-2.8769,-2.871,-2.8695,-2.8388,-2.8169,-3.5023,-3.541,-3.5664,-3.5801,-3.584,-3.5859,0.0,0.0,0.0,-3.6016,-3.6016,-3.6016,-3.6016,0.0,0.0,-3.6426,0.0,-3.7402,0.0,0.0,0.0,0.0,0.0,0.0,0.0,0.0,0.0,0.0,0.0,0.0,0.0,0.0,-3.8803,-3.9374,-4.0529,-4.0607,-3.9374,-4.0607,-4.1172,-4.1172,-4.1172,-4.1172,-4.1172,-4.1172,-4.1172,0.0,0.0,0.0,0.0,-4.1172,-4.1172,-4.1191,-4.1308,-4.1543,-4.1875,-4.2422,-4.2812,-4.3144,-4.3555,-4.3711,-4.3711,-4.3711,-4.3711,-4.3711,-4.3711,-4.3711,-4.3711,-4.3711,-4.3613,-4.3516,-4.3516,-4.3105,-4.2539,-4.1953,-4.1285,-4.0461,-3.8938,-3.8456,-3.791,-3.6143,-3.5594,-3.475,-3.2922,-3.1874,-3.0744,-2.9488,-2.9032,-2.912,-2.9778,-2.9778,-2.9881,-3.0387,-3.0255,-3.0056,-3.0056,-2.9647,-2.9339,-2.9237,-2.9017,-2.8886,-2.8886,-2.8886,-2.8886,-2.8886,-2.8886,-2.8886,-2.8886,-2.8886,-2.8886,-2.8886,-2.8666,-2.8476,-3.4197,-3.4707,-3.4824,-3.5293,-3.541,-3.5508,0.0,0.0,-3.6016,-3.6016,-3.6016,-3.6016,-3.6016,-3.6016,-3.6016,0.0,0.0,0.0,0.0,0.0,0.0,0.0,0.0,0.0,0.0,0.0,0.0,0.0,0.0,0.0,0.0,0.0,-3.9374,-4.1094,-4.1172,-4.1172,-4.1172,-4.1172,-4.1172,-4.1172,-4.1172,-4.1172,-4.1172,-4.1172,0.0,0.0,0.0,0.0,0.0,-4.1172,-4.1172,-4.1211,-4.1621,-4.1797,-4.1914,-4.2754,-4.3066,-4.3144,-4.3555,-4.3711,-4.3711,-4.3711,-4.3711,-4.3711,-4.3711,-4.3711,-4.3711,-4.3711,-4.3398,-4.3086,-4.3086,-4.2441,-4.1816,-4.1797,-4.0167,-3.8645,-3.8645,-3.8236,-3.7397,-3.5825,-3.5217,-3.4294,-3.231,-3.0539,-2.9345,-2.8944,-2.89,-2.912,-2.9778,-2.9573,-2.9632,-3.0357,-2.9778,-2.9383,-2.9383,-2.9383,-2.9237,-2.8915,-2.8886,-2.8886,-2.8886,-2.8886,-2.8886,-2.8886,-2.8886,-2.8886,-2.8886,-2.8886,-2.8886,-2.8886,-2.8886,-2.8549,-3.4109,-3.4473,-3.4805,-3.5273,-3.5391,-3.5508,-3.5918,0.0,-3.6016,-3.6016,-3.6016,-3.6016,-3.6016,-3.6016,-3.6016,0.0,0.0,0.0,0.0,0.0,0.0,0.0,0.0,0.0,0.0,0.0,0.0,0.0,0.0,0.0,0.0,0.0,0.0,-3.9453,-4.0607,-4.0607,-3.9453,-4.0588,-4.1172,-4.1172,-4.1172,-4.1172,-4.1172,-4.1172,0.0,0.0,0.0,0.0,0.0,-4.1172,-4.1348,-4.1621,-4.1758,-4.2168,-4.2715,-4.2988,-4.3262,-4.3535,-4.3652,-4.3711,-4.3711,-4.3711,-4.3516,-4.3281,-4.3281,-4.3281,-4.3203,-4.291,-4.2734,-4.2558,-4.2285,-4.2012,-4.1719,-4.1445,-4.0627,-3.9912,-3.9912,-3.9587,-3.8823,-3.7154,-3.5597,-3.399,-3.2262,-3.0356,-2.9003,-2.89,-2.8886,-2.9047,-2.9471,-2.9442,-2.9456,-2.9661,-2.95,-2.9383,-2.9383,-2.9178,-2.9003,-2.89,-2.8886,-2.8886,-2.8886,-2.8886,-2.8886,-2.8886,-2.8886,-2.8886,-2.8886,-2.8886,-2.8886,-2.8886,-2.8886,-2.8549,0.0,-3.4023,-3.4336,-3.4785,-3.5019,0.0,0.0,0.0,-3.6016,-3.6016,-3.6016,-3.6016,-3.6016,-3.6016,0.0,0.0,0.0,0.0,0.0,0.0,0.0,0.0,0.0,0.0,0.0,0.0,0.0,0.0,0.0,0.0,0.0,0.0,0.0,-3.8645,-4.0275,-4.0685,-3.961,-4.0685,-4.1172,-4.1172,-4.1172,-4.1172,-4.1172,0.0,0.0,0.0,0.0,0.0,0.0,-4.1406,-4.166,-4.2051,-4.2226,-4.2598,-4.3105,-4.3262,-4.3476,-4.3691,-4.3516,-4.3457,-4.3437,-4.3281,-4.293,-4.2558,-4.2402,-4.2578,-4.2773,-4.25,-4.2305,-4.209,-4.168,-4.1445,-4.1211,-4.0801,-4.0488,-4.0273,-4.0273,-3.9468,-3.8236,-3.6678,-3.5117,-3.3406,-3.1199,-3.0251,-2.9571,-2.8964,-2.8886,-2.9003,-2.9339,-2.9266,-2.9237,-2.9369,-2.9266,-2.9193,-2.9193,-2.9003,-2.8886,-2.8886,-2.8886,-2.8886,-2.8886,-2.8886,-2.8886,-2.8886,-2.8886,-2.8886,-2.8886,-2.8886,-2.8886,-2.8886,-2.8886,-2.8549,0.0,-3.3418,0.0,0.0,0.0,0.0,0.0,0.0,0.0,-3.6016,-3.6016,-3.6016,-3.6016,-3.6016,0.0,0.0,0.0,0.0,0.0,0.0,0.0,0.0,0.0,0.0,0.0,0.0,0.0,0.0,0.0,0.0,0.0,0.0,0.0,0.0,-3.9962,-4.0841,-4.0841,-4.0841,-4.0841,-4.0841,-4.0841,-4.0841,-4.0841,0.0,0.0,0.0,0.0,0.0,0.0,-4.1679,-4.2012,-4.2422,-4.2851,-4.3027,-4.3086,-4.3476,-4.3594,-4.3516,-4.3086,-4.2949,-4.2871,-4.2422,-4.2031,-4.1641,-4.1211,-4.1641,-4.2285,-4.2246,-4.1973,-4.1582,-4.1191,-4.0781,-4.0295,-3.9829,-3.9712,-3.9618,-3.9542,-3.8104,-3.6261,-3.4647,-3.405,-3.2826,-2.9649,-3.0346,-3.0732,-2.9119,-2.8886,-2.9003,-2.931,-2.9076,-2.9003,-2.931,-2.9076,-2.8886,-2.8886,-2.8886,-2.8886,-2.8886,-2.8886,-2.8886,-2.8886,-2.8886,-2.8886,-2.8886,-2.8886,-2.8886,-2.8886,-2.8886,-2.8886,-2.8886,-2.8886,-2.8549,-3.3418,0.0,-3.3535,-3.3965,-3.4141,-3.4434,0.0,0.0,-3.5625,-3.5957,0.0,-3.6016,-3.6016,0.0,0.0,0.0,0.0,0.0,0.0,0.0,0.0,0.0,0.0,0.0,0.0,0.0,0.0,0.0,0.0,0.0,0.0,0.0,0.0,0.0,-3.7037,-3.7197,-3.7197,-3.7197,-3.7197,-3.7197,-3.7197,-3.7197,-3.7197,0.0,0.0,0.0,0.0,0.0,-3.9445,-4.082,-4.1562,-4.1992,-4.2422,-4.2578,-4.2598,-4.2695,-4.2519,-4.2187,-4.1758,-4.1621,-4.1543,-4.1113,-4.0898,-4.0742,-4.0332,-4.0566,-4.0898,-4.0586,-4.043,-4.0312,-4.0215,-4.0117,-3.9697,-3.831,-3.7744,-3.7218,-3.5986,-3.6059,-3.5845,-3.4174,-3.4782,-3.4579,-3.1331,-3.1024,-3.0732,-2.9119,-2.8886,-2.8915,-2.8988,-2.8944,-2.8915,-2.8988,-2.893,-2.8886,-2.8886,-2.8886,-2.8886,-2.8886,-2.8886,-2.8886,-2.8886,-2.8886,-2.8886,-2.8886,-2.8886,-2.8886,-2.8886,-2.8886,-2.8886,-2.8886,-2.8886,-2.8549,-3.3418,-3.3418,-3.3476,-3.3711,-3.3926,-3.4199,-3.4668,0.0,0.0,0.0,0.0,0.0,0.0,0.0,0.0,0.0,0.0,0.0,0.0,0.0,0.0,0.0,0.0,0.0,0.0,0.0,0.0,0.0,0.0,0.0,0.0,0.0,0.0,0.0,0.0,-3.6797,-3.5994,-3.5994,-3.5994,-3.5994,-3.5994,-3.5994,-3.5994,0.0,0.0,0.0,0.0,0.0,-3.9019,-4.0719,-4.1601,-4.1816,-4.2051,-4.2031,-4.1855,-4.1855,-4.1699,-4.1445,-4.1016,-4.0742,-4.0547,-4.0312,-4.0098,-3.9712,-3.8802,-3.899,-3.9668,-3.9844,-3.9335,-3.8899,-3.9479,-3.85,-3.729,-3.6918,-3.6095,-3.5331,-3.5273,-3.5096,-3.5028,-3.4879,-3.4954,-3.4278,-3.1715,-3.1331,-3.0732,-2.9119,-2.8886,-2.8886,-2.8886,-2.8886,-2.8886,-2.8886,-2.8886,-2.8886,-2.8886,-2.8886,-2.8886,-2.8886,-2.8886,-2.8886,-2.8886,-2.8886,-2.8886,-2.8886,-2.8886,-2.8886,-2.8886,-2.8886,-2.8812,-2.8681,-2.8681,-2.8344,-3.3418,-3.3418,-3.3418,-3.3418,-3.3691,-3.3984,-3.4062,0.0,0.0,0.0,0.0,0.0,0.0,0.0,0.0,0.0,0.0,0.0,0.0,0.0,0.0,0.0,0.0,0.0,0.0,0.0,0.0,0.0,0.0,0.0,0.0,0.0,0.0,0.0,0.0,0.0,-3.5422,-3.554,-3.5753,-3.5994,-3.543,-3.5511,-3.5994,-3.5702,0.0,0.0,0.0,0.0,-3.9074,-4.0777,-4.1504,-4.1523,-4.1582,-4.1348,-4.0976,-4.0976,-4.0937,-4.082,-4.0371,-4.0,-3.9687,-3.9687,-3.9434,-3.888,-3.7502,-3.7796,-3.873,-3.9473,-3.8519,-3.7479,-3.8511,-3.6734,-3.4907,-3.594,-3.5103,-3.4429,-3.5551,-3.4729,-3.4128,-3.5551,-3.4654,-3.3222,-3.1561,-3.1331,-3.0732,-2.9119,-2.8886,-2.8886,-2.8886,-2.8886,-2.8886,-2.8886,-2.8886,-2.8886,-2.8886,-2.8886,-2.8886,-2.8886,-2.8886,-2.8886,-2.8886,-2.8886,-2.8886,-2.8886,-2.8886,-2.8886,-2.8886,-2.8842,-2.8695,-2.8432,-2.8388,-2.8052,-3.3418,-3.3418,-3.3418,-3.3418,-3.3476,-3.3613,-3.3984,0.0,0.0,0.0,0.0,0.0,0.0,0.0,0.0,0.0,0.0,0.0,0.0,0.0,0.0,0.0,0.0,0.0,0.0,0.0,0.0,0.0,0.0,0.0,0.0,0.0,0.0,0.0,0.0,-3.1755,-3.2857,-3.3451,-3.4555,-3.5994,-3.3003,-3.3167,-3.5897,-3.4146,-3.4078,0.0,0.0,-3.7499,-3.7727,-3.9471,-4.0195,-4.0234,-4.0586,-4.0469,-4.0098,-4.0098,-3.9844,-3.9453,-3.9023,-3.8828,-3.8769,-3.8769,-3.873,-3.8672,-3.8379,-3.8467,-3.8613,-3.875,-3.7647,-3.6403,-3.6645,-3.6256,-3.594,-3.6182,-3.6015,-3.5476,-3.4354,-3.3885,-3.3809,-3.4035,-3.3902,-3.3222,-3.1561,-3.1331,-3.0732,-2.9119,-2.8886,-2.8886,-2.8886,-2.8886,-2.8886,-2.8886,-2.8886,-2.8886,-2.8886,-2.8886,-2.8886,-2.8886,-2.8886,-2.8886,-2.8886,-2.8886,-2.8886,-2.8886,-2.8886,-2.8886,-2.8886,-2.8637,-2.8476,-2.8355,-2.8078,-2.7832,-3.3418,-3.3418,-3.3418,-3.3418,-3.3418,-3.3476,-3.3672,0.0,0.0,0.0,0.0,0.0,0.0,0.0,0.0,0.0,0.0,0.0,0.0,0.0,0.0,0.0,0.0,0.0,0.0,0.0,0.0,0.0,0.0,0.0,0.0,0.0,0.0,0.0,0.0,0.0,-3.3785,-3.3178,-3.2857,-3.2696,-3.1106,-3.1188,-3.2696,-3.1653,-3.1672,-3.2523,0.0,-3.4725,-3.4881,-3.651,-3.7627,-3.8217,-3.8406,-3.8236,-3.7802,-3.6883,-3.7521,-3.8755,-3.7661,-3.7897,-3.8574,-3.8574,-3.8574,-3.8428,-3.7604,-3.7897,-3.819,-3.646,-3.609,-3.6386,-3.7291,-3.6164,-3.5103,-3.6015,-3.5476,-3.4654,-3.3885,-3.3658,-3.3658,-3.3658,-3.2994,-3.2157,-3.1408,-3.0577,-2.9726,-2.9042,-2.8886,-2.8886,-2.8886,-2.8886,-2.8886,-2.8886,-2.8886,-2.8886,-2.8886,-2.8886,-2.8886,-2.8886,-2.8886,-2.8886,-2.8886,-2.8886,-2.8886,-2.8886,-2.8725,-2.8651,-2.8637,-2.833,-2.8081,-2.792,-2.7759,-2.7525,-3.3418,-3.3418,-3.3418,-3.3418,0.0,0.0,0.0,0.0,0.0,0.0,0.0,0.0,0.0,0.0,0.0,0.0,0.0,0.0,0.0,0.0,0.0,0.0,0.0,0.0,0.0,0.0,0.0,0.0,0.0,0.0,0.0,0.0,0.0,0.0,0.0,0.0,-3.4667,-3.3458,-3.2221,-3.1121,-3.0254,-3.0334,-3.1121,-3.0565,-3.0535,-3.0999,-3.2252,-3.2754,-3.2911,-3.4142,-3.5281,-3.6077,-3.6077,-3.5897,-3.5476,-3.4186,-3.5327,-3.7364,-3.646,-3.6996,-3.8117,-3.8501,-3.8574,-3.8355,-3.7144,-3.7604,-3.8044,-3.5551,-3.5774,-3.6996,-3.7824,-3.6164,-3.4729,-3.6386,-3.5476,-3.4278,-3.4278,-3.3676,-3.3222,-3.36,-3.2081,-3.087,-3.1255,-2.9959,-2.8886,-2.8886,-2.8886,-2.8886,-2.8886,-2.8886,-2.8886,-2.8886,-2.8886,-2.8886,-2.8886,-2.8886,-2.8886,-2.8886,-2.8886,-2.8886,-2.8886,-2.8812,-2.8783,-2.8783,-2.8476,-2.8253,-2.8253,-2.7993,-2.7715,-2.7481,-2.7393,-2.7232,-3.3418,-3.3418,-3.3418,-3.3418,-3.3418,0.0,-3.3418,-3.375,0.0,-3.4609,0.0,0.0,0.0,0.0,0.0,0.0,0.0,0.0,0.0,0.0,0.0,0.0,0.0,0.0,0.0,0.0,0.0,0.0,0.0,0.0,0.0,0.0,0.0,0.0,0.0,0.0,-3.3744,-3.3668,-3.395,-3.463,-3.1425,-3.1585,-3.4535,-3.2579,-3.2589,-3.4026,-3.3746,-3.3592,-3.3592,-3.3744,-3.3802,-3.3936,-3.3936,-3.3919,-3.3885,-3.3734,-3.3809,-3.4278,-3.5718,-3.6312,-3.6608,-3.8117,-3.8574,-3.8574,-3.8428,-3.8501,-3.8574,-3.8336,-3.8336,-3.8117,-3.6756,-3.6164,-3.646,-3.8044,-3.7217,-3.6015,-3.6015,-3.36,-3.1944,-3.3432,-3.1162,-2.9571,-3.1024,-2.9959,-2.8886,-2.8886,-2.8886,-2.8886,-2.8886,-2.8886,-2.8886,-2.8886,-2.8886,-2.8886,-2.8886,-2.8886,-2.8886,-2.8886,-2.8886,-2.8886,-2.8886,-2.8622,-2.8476,-2.8476,-2.8078,-2.7917,-2.7903,-2.7671,-2.7495,-2.7466,-2.7159,-2.7013,-3.3418,-3.3418,-3.3418,-3.3418,-3.3418,0.0,0.0,-3.3945,-3.4277,-3.498,-3.5273,0.0,0.0,0.0,0.0,0.0,0.0,0.0,0.0,0.0,0.0,0.0,0.0,0.0,0.0,0.0,0.0,0.0,0.0,0.0,0.0,0.0,0.0,0.0,0.0,0.0,0.0,-3.0716,-3.0918,-3.1168,-3.0871,-3.0949,-3.1246,-3.1431,-3.1831,-3.243,-3.2299,-3.2766,-3.3507,-3.1545,-3.1928,-3.3658,-3.3658,-3.4954,-3.6534,-3.4411,-3.5028,-3.6682,-3.6312,-3.6849,-3.7824,-3.8428,-3.8574,-3.8574,-3.8574,-3.8574,-3.8574,-3.8574,-3.7897,-3.6996,-3.6386,-3.6164,-3.609,-3.5625,-3.5103,-3.4354,-3.3373,-3.2994,-3.269,-3.231,-3.1255,-3.0577,-3.1178,-2.9959,-2.8886,-2.8886,-2.8886,-2.8886,-2.8886,-2.8886,-2.8886,-2.8886,-2.8886,-2.8886,-2.8886,-2.8886,-2.8886,-2.8886,-2.8886,-2.8798,-2.8608,-2.8505,-2.8268,-2.8063,-2.7817,-2.7656,-2.7656,-2.7335,-2.7174,-2.7174,-2.7042,-2.6983,-3.3418,-3.3418,-3.3418,-3.3418,0.0,0.0,-3.4141,-3.4277,-3.4492,-3.5234,-3.5508,0.0,0.0,0.0,0.0,0.0,0.0,0.0,0.0,0.0,0.0,0.0,0.0,0.0,0.0,0.0,0.0,0.0,0.0,0.0,0.0,0.0,0.0,0.0,0.0,0.0,0.0,-3.0176,-3.0176,-2.9649,-3.0793,-3.05,-2.8964,-3.0036,-3.0577,-3.0577,-3.0577,-3.1178,-3.2004,-2.9804,-3.0485,-3.2994,-3.3507,-3.5103,-3.6756,-3.4486,-3.5103,-3.6977,-3.6386,-3.6922,-3.7897,-3.8428,-3.8574,-3.8574,-3.8574,-3.8574,-3.8501,-3.797,-3.707,-3.5941,-3.4879,-3.5028,-3.5103,-3.396,-3.3658,-3.3373,-3.231,-3.2918,-3.3356,-3.2233,-3.1638,-3.1331,-3.1331,-2.9959,-2.8886,-2.8886,-2.8886,-2.8886,-2.8886,-2.8886,-2.8886,-2.8886,-2.8886,-2.8886,-2.8886,-2.8798,-2.8739,-2.8739,-2.8651,-2.8549,-2.8447,-2.8242,-2.8022,-2.7803,-2.7481,-2.732,-2.732,-2.71,-2.6983,-2.6983,-2.6983,-2.6983,-3.3418,-3.3418,-3.3418,0.0,0.0,0.0,-3.4512,-3.4707,-3.4824,-3.5293,0.0,-3.6016,0.0,0.0,0.0,0.0,0.0,0.0,0.0,0.0,0.0,0.0,0.0,0.0,0.0,0.0,0.0,0.0,0.0,0.0,0.0,0.0,0.0,0.0,0.0,0.0,0.0,-3.2842,-3.2842,-3.1255,-3.1255,-3.0423,-2.8886,-2.8886,-2.8886,-2.8886,-2.8886,-2.8964,-2.8964,-2.8964,-2.9881,-3.1485,-3.307,-3.3676,-3.3658,-3.3658,-3.3658,-3.396,-3.5644,-3.6164,-3.646,-3.8044,-3.8574,-3.8574,-3.8574,-3.8574,-3.819,-3.6608,-3.6164,-3.5402,-3.2173,-3.2462,-3.3658,-3.3658,-3.3658,-3.3658,-3.3658,-3.3658,-3.3658,-3.3658,-3.2386,-3.1331,-3.1331,-2.9959,-2.8886,-2.8886,-2.8886,-2.8886,-2.8886,-2.8886,-2.8886,-2.8886,-2.8886,-2.8886,-2.8886,-2.8608,-2.8432,-2.8432,-2.8049,-2.802,-2.8417,-2.7817,-2.7481,-2.7481,-2.7159,-2.6983,-2.6983,-2.6983,-2.6983,-2.6983,-2.6983,-2.6983,-3.3418,-3.3418,0.0,0.0,0.0,0.0,0.0,-3.4707,0.0,0.0,0.0,0.0,0.0,0.0,0.0,0.0,0.0,0.0,0.0,0.0,0.0,0.0,0.0,0.0,0.0,0.0,0.0,0.0,0.0,0.0,0.0,0.0,0.0,0.0,0.0,0.0,0.0,0.0,-3.0114,-2.9571,-2.9571,-2.9353,-2.8964,-3.0036,-3.0577,-3.0577,-3.0577,-3.1255,-3.2157,-3.1024,-3.0886,-3.1331,-3.1868,-3.269,-3.3658,-3.3658,-3.3658,-3.396,-3.5644,-3.5402,-3.4729,-3.6386,-3.609,-3.5178,-3.5178,-3.5178,-3.5028,-3.4579,-3.36,-3.2538,-3.1561,-3.1638,-3.2004,-3.2004,-3.2004,-3.231,-3.3449,-3.3658,-3.3658,-3.3658,-3.2386,-3.1331,-3.1331,-2.9959,-2.8886,-2.8886,-2.8886,-2.8886,-2.8886,-2.8886,-2.8886,-2.8886,-2.8886,-2.8798,-2.8593,-2.8491,-2.8268,-2.8034,-2.7788,-2.7656,-2.7759,-2.7583,-2.7364,-2.7144,-2.7042,-2.6983,-2.6983,-2.6983,-2.6983,-2.6983,-2.6983,-2.6983,-3.3418,0.0,0.0,0.0,0.0,0.0,0.0,0.0,0.0,0.0,0.0,0.0,0.0,0.0,0.0,0.0,0.0,0.0,0.0,0.0,0.0,0.0,0.0,0.0,0.0,0.0,0.0,0.0,0.0,0.0,0.0,0.0,0.0,0.0,0.0,0.0,0.0,0.0,0.0,-2.871,-2.871,-2.8637,-2.852,-2.976,-3.0423,-3.0546,-3.0684,-3.1277,-3.2117,-3.1679,-3.1476,-3.1538,-3.2069,-3.2842,-3.3658,-3.3658,-3.3658,-3.3809,-3.4879,-3.4579,-3.3868,-3.4776,-3.4351,-3.3494,-3.3415,-3.3735,-3.4105,-3.3455,-3.3008,-3.2409,-3.1221,-3.0953,-3.1096,-3.1223,-3.1791,-3.2538,-3.3507,-3.3658,-3.3507,-3.2842,-3.1944,-3.1101,-3.05,-2.9508,-2.8886,-2.8886,-2.8886,-2.8886,-2.8886,-2.8886,-2.8886,-2.8886,-2.8886,-2.8769,-2.8461,-2.8238,-2.811,-2.7788,-2.7466,-2.7276,-2.7276,-2.7276,-2.7188,-2.6998,-2.6983,-2.6983,-2.6983,-2.6983,-2.6983,-2.6983,-2.6983,-2.6983,0.0,0.0,0.0,0.0,0.0,0.0,0.0,0.0,0.0,0.0,0.0,0.0,0.0,0.0,0.0,0.0,0.0,0.0,0.0,0.0,0.0,0.0,0.0,0.0,0.0,0.0,0.0,0.0,0.0,0.0,0.0,0.0,0.0,0.0,0.0,0.0,0.0,0.0,0.0,0.0,-2.8311,-2.8165,-2.7888,-2.8549,-2.8973,-2.9266,-2.9588,-2.9734,-2.9865,-3.1088,-3.1512,-3.1636,-3.2823,-3.3281,-3.3281,-3.3247,-3.3247,-3.323,-3.3498,-3.3498,-3.3354,-3.3403,-3.3357,-3.3157,-3.287,-3.3638,-3.4288,-3.2767,-3.3276,-3.3584,-3.0743,-3.0312,-3.0779,-3.1172,-3.2413,-3.3507,-3.3676,-3.3583,-3.307,-3.1561,-3.1178,-3.0655,-2.9119,-2.8886,-2.8886,-2.8886,-2.8886,-2.8886,-2.8886,-2.8886,-2.8886,-2.8886,-2.8871,-2.8725,-2.8417,-2.802,-2.7773,-2.7452,-2.7159,-2.6983,-2.6983,-2.6983,-2.6983,-2.6983,-2.6983,-2.6983,-2.6983,-2.6983,-2.6983,-2.6983,-2.6983,-2.6983,0.0,0.0,0.0,0.0,0.0,0.0,0.0,0.0,0.0,0.0,0.0,0.0,0.0,0.0,0.0,0.0,0.0,0.0,0.0,0.0,0.0,0.0,0.0,0.0,0.0,0.0,0.0,0.0,0.0,0.0,0.0,0.0,0.0,0.0,0.0,0.0,-2.8154,-2.8154,-2.8049,0.0,-2.7976,-2.7947,-2.7874,-2.802,-2.8107,-2.8271,-2.8608,-2.8739,-2.8754,-2.9305,-2.9535,-2.952,-2.9834,-2.9959,-2.9928,-2.9686,-2.9503,-2.9839,-3.2076,-3.1993,-3.1309,-3.3797,-3.3707,-3.2668,-3.2599,-3.1906,-3.117,-3.0801,-3.0076,-2.9271,-2.8537,-2.9392,-3.05,-3.058,-3.1237,-3.2157,-3.3449,-3.269,-3.1715,-3.1331,-3.0268,-2.9353,-2.8964,-2.8886,-2.8886,-2.8886,-2.8886,-2.8886,-2.8886,-2.8886,-2.8886,-2.8886,-2.8681,-2.8403,-2.8005,-2.7759,-2.7437,-2.7115,-2.7027,-2.6983,-2.6983,-2.6983,-2.6983,-2.6983,-2.6983,-2.6983,-2.6983,-2.6983,-2.6983,-2.6983,-2.6983,-2.6983,0.0,0.0,0.0,0.0,0.0,0.0,0.0,0.0,0.0,0.0,0.0,0.0,0.0,0.0,0.0,0.0,0.0,0.0,0.0,0.0,0.0,0.0,0.0,0.0,0.0,0.0,0.0,0.0,0.0,0.0,0.0,0.0,0.0,0.0,0.0,0.0,-2.7874,-2.7874,-2.7876,-2.773,-2.773,-2.7642,-2.751,-2.7903,-2.8107,-2.8122,-2.852,-2.8651,-2.8651,-2.8666,-2.8666,-2.8651,-2.8505,-2.8447,-2.8417,-2.8271,-2.8136,-2.8397,-2.9841,-3.0299,-3.0415,-3.1907,-3.1856,-3.1112,-3.1003,-3.0373,-2.9717,-2.9717,-2.9644,-2.9425,-2.8707,-2.9272,-2.9897,-2.9174,-2.9934,-3.1141,-3.1952,-3.0839,-2.9641,-2.9641,-2.8969,-2.8491,-2.8651,-2.8798,-2.8886,-2.8886,-2.8886,-2.8886,-2.8886,-2.8886,-2.8827,-2.8695,-2.8534,-2.8242,-2.7759,-2.7569,-2.7335,-2.7013,-2.6983,-2.6983,-2.6983,-2.6983,-2.6983,-2.6983,-2.6983,-2.6983,-2.6983,-2.6983,-2.6983,-2.6983,-2.6983,-2.6983,0.0,0.0,0.0,0.0,0.0,0.0,0.0,0.0,0.0,0.0,0.0,0.0,0.0,0.0,0.0,0.0,0.0,0.0,0.0,0.0,0.0,0.0,0.0,0.0,0.0,0.0,0.0,0.0,0.0,0.0,0.0,0.0,0.0,0.0,0.0,-2.9177,-2.7788,-2.7713,-2.7656,-2.7393,-2.7393,-2.7247,-2.7013,-2.7817,-2.8183,-2.8198,-2.8505,-2.8651,-2.8637,-2.8432,-2.8282,-2.833,-2.7976,-2.7874,-2.7874,-2.7815,-2.7861,-2.7861,-2.8103,-2.8954,-3.0002,-2.9993,-3.0042,-2.9978,-2.9688,-2.9377,-2.9178,-2.9178,-2.9949,-3.0447,-2.9178,-2.9039,-2.8892,-2.7674,-2.8607,-2.986,-2.9986,-2.8912,-2.7874,-2.7874,-2.7874,-2.7961,-2.8315,-2.8564,-2.8725,-2.8725,-2.8769,-2.8812,-2.8812,-2.8812,-2.871,-2.8461,-2.8344,-2.8052,-2.7525,-2.7422,-2.7276,-2.7013,-2.6983,-2.6983,-2.6983,-2.6983,-2.6983,-2.6983,-2.6983,-2.6983,-2.6983,-2.6983,-2.6983,-2.6983,-2.6983,-2.6983,0.0,0.0,0.0,0.0,0.0,0.0,0.0,0.0,0.0,0.0,0.0,0.0,0.0,0.0,0.0,0.0,0.0,0.0,0.0,0.0,0.0,0.0,0.0,0.0,0.0,0.0,0.0,0.0,0.0,0.0,0.0,0.0,-2.9249,-2.9033,-2.7961,0.0,-2.7115,-2.7115,-2.71,-2.7056,-2.7056,-2.7027,-2.6998,-2.713,-2.7188,-2.7203,-2.7525,-2.7671,-2.7686,-2.792,-2.7947,-2.7932,-2.7888,-2.7874,-2.7844,-2.7642,-2.7539,-2.7718,-2.8707,-2.9177,-2.9521,-3.0814,-3.1223,-3.1223,-3.1243,-3.0233,-2.9178,-2.9178,-2.8403,-2.755,-2.7347,-2.7304,-2.7334,-2.713,-2.7305,-2.7629,-2.8118,-2.81,-2.7874,-2.7874,-2.7874,-2.7888,-2.7932,-2.7976,-2.8005,-2.8005,-2.8315,-2.8505,-2.8505,-2.8505,-2.8476,-2.837,-2.7934,-2.7569,-2.7481,-2.7217,-2.7042,-2.6998,-2.6983,-2.6983,-2.6983,-2.6983,-2.6983,-2.6983,-2.6983,-2.6983,-2.6983,-2.6983,-2.6983,-2.6983,-2.6983,-2.6983,0.0,0.0,0.0,0.0,0.0,0.0,0.0,0.0,0.0,0.0,0.0,0.0,0.0,0.0,0.0,0.0,0.0,0.0,0.0,0.0,0.0,0.0,0.0,0.0,0.0,0.0,0.0,0.0,0.0,0.0,0.0,-2.8748,-2.7985,-2.7985,-2.7347,0.0,-2.6983,-2.6983,-2.6983,-2.6983,-2.6983,-2.6983,-2.6983,-2.6983,-2.6983,-2.6998,-2.7144,-2.7203,-2.7217,-2.7349,-2.7408,-2.7408,-2.7408,-2.7408,-2.7393,-2.7261,-2.7203,-2.7247,-2.7813,-2.8547,-2.9322,-3.002,-3.0233,-3.0233,-3.0233,-2.9178,-2.7985,-2.7985,-2.7478,-2.6983,-2.6983,-2.6983,-2.6983,-2.6983,-2.6983,-2.7071,-2.7349,-2.7408,-2.7408,-2.7408,-2.7554,-2.7686,-2.7686,-2.7832,-2.7874,-2.7874,-2.799,-2.8093,-2.8093,-2.8093,-2.8095,-2.792,-2.7642,-2.7408,-2.7217,-2.7071,-2.6983,-2.6983,-2.6983,-2.6983,-2.6983,-2.6983,-2.6983,-2.6983,-2.6983,-2.6983,-2.6983,-2.6983,-2.6983,-2.6983,-2.6983,-2.6983,0.0,0.0,0.0,0.0,0.0,0.0,0.0,0.0,0.0,0.0,0.0,0.0,0.0,0.0,0.0,0.0,0.0,0.0,0.0,0.0,0.0,0.0,0.0,0.0,0.0,0.0,0.0,0.0,0.0,0.0,-2.8676,-2.7623,-2.6983,-2.6983,-2.6983,-2.6983,-2.6983,-2.6983,-2.6983,-2.6983,-2.6983,-2.6983,-2.6983,-2.6983,-2.6983,-2.6983,-2.6983,-2.6983,-2.6983,-2.6983,-2.6983,-2.6983,-2.6983,-2.6983,-2.6983,-2.6983,-2.6983,-2.6983,-2.6983,-2.7695,-2.8604,-2.8604,-2.8604,-2.8604,-2.8604,-2.7913,-2.6983,-2.6983,-2.6983,-2.6983,-2.6983,-2.6983,-2.6983,-2.6983,-2.6983,-2.6983,-2.6983,-2.6983,-2.6983,-2.6983,-2.7188,-2.7349,-2.7349,-2.7554,-2.77,-2.77,-2.7773,-2.7832,-2.7832,-2.7832,-2.7744,-2.7495,-2.7408,-2.7261,-2.7013,-2.6983,-2.6983,-2.6983,-2.6983,-2.6983,-2.6983,-2.6983,-2.6983,-2.6983,-2.6983,-2.6983,-2.6983,-2.6983,-2.6983,-2.6983,-2.6983,-2.6983,0.0,0.0,0.0,0.0,0.0,0.0,0.0,0.0,0.0,0.0,0.0,0.0,0.0,0.0,0.0,0.0,0.0,0.0,0.0,0.0,0.0,0.0,0.0,0.0,0.0,0.0,0.0,0.0,0.0,0.0,-2.7129,-2.7056,-2.6983,-2.6983,-2.6983,-2.6983,-2.6983,-2.6983,-2.6983,-2.6983,-2.6983,-2.6983,-2.6983,-2.6983,-2.6983,-2.6983,-2.6983,-2.6983,-2.6983,-2.6983,-2.6983,-2.6983,-2.6983,-2.6983,-2.6983,-2.6983,-2.6983,-2.6983,-2.6983,-2.7056,-2.7129,-2.7129,-2.7129,-2.7129,-2.7129,-2.7056,-2.6983,-2.6983,-2.6983,-2.6983,-2.6983,-2.6983,-2.6983,-2.6983,-2.6983,-2.6983,-2.6983,-2.6983,-2.6983,-2.6983,-2.6998,-2.7013,-2.7013,-2.7027,-2.7042,-2.7042,-2.7305,-2.7495,-2.7495,-2.7495,-2.7495,-2.7481,-2.7203,-2.7013,-2.6983,-2.6983,-2.6983,-2.6983,-2.6983,-2.6983,-2.6983,-2.6983,-2.6983,-2.6983,-2.6983,-2.6983,-2.6983,-2.6983,-2.6983,-2.6983,-2.6983,-2.6983,0.0,0.0,0.0,0.0,0.0,0.0,0.0,0.0,0.0,0.0,0.0,0.0,0.0,0.0,0.0,0.0,0.0,0.0,0.0,0.0,0.0,0.0,0.0,0.0,0.0,0.0,0.0,0.0,0.0,0.0,-2.8403,-2.7478,-2.6983,-2.6983,-2.6983,-2.6983,-2.6983,-2.6983,-2.6983,-2.6983,-2.6983,-2.6983,-2.6983,-2.6983,-2.6983,-2.6983,-2.6983,-2.6983,-2.6983,-2.6983,-2.6983,-2.6983,-2.6983,-2.6983,-2.6983,-2.6983,-2.6983,-2.6983,-2.6983,-2.6983,-2.6983,-2.6983,-2.6983,-2.6983,-2.6983,-2.6983,-2.6983,-2.6983,-2.6983,-2.6983,-2.6983,-2.6983,-2.6983,-2.6983,-2.6983,-2.6983,-2.6983,-2.6983,-2.6983,-2.6983,-2.6983,-2.6983,-2.6983,-2.6983,-2.6983,-2.6983,-2.7086,-2.7159,-2.7159,-2.7159,-2.7159,-2.7159,-2.7056,-2.6983,-2.6983,-2.6983,-2.6983,-2.6983,-2.6983,-2.6983,-2.6983,-2.6983,-2.6983,-2.6983,-2.6983,-2.6983,-2.6983,-2.6983,-2.6983,-2.6983,-2.6983,-2.6983,-3.3418,0.0,0.0,0.0,0.0,0.0,0.0,0.0,0.0,0.0,0.0,0.0,0.0,0.0,0.0,0.0,0.0,0.0,0.0,0.0,0.0,0.0,0.0,0.0,0.0,0.0,0.0,0.0,0.0,0.0,-2.8475,-2.755,-2.6983,-2.6983,-2.6983,-2.6983,-2.6983,-2.6983,-2.6983,-2.6983,-2.6983,-2.6983,-2.6983,-2.6983,-2.6983,-2.6983,-2.6983,-2.6983,-2.6983,-2.6983,-2.6983,-2.6983,-2.6983,-2.6983,-2.6983,-2.6983,-2.6983,-2.6983,-2.6983,-2.6983,-2.6983,-2.6983,-2.6983,-2.6983,-2.6983,-2.6983,-2.6983,-2.6983,-2.6983,-2.6983,-2.6983,-2.6983,-2.6983,-2.6983,-2.6983,-2.6983,-2.6983,-2.6983,-2.6983,-2.6983,-2.6983,-2.6983,-2.6983,-2.6983,-2.6983,-2.6983,-2.6983,-2.6983,-2.6983,-2.6983,-2.6983,-2.6983,-2.6983,-2.6983,-2.6983,-2.6983,-2.6983,-2.6983,-2.6983,-2.6983,-2.6983,-2.6983,-2.6983,-2.6983,-2.6983,-2.6983,-2.6983,-2.6983,-2.6983,-2.6983,-2.6983,-2.6939,0.0,0.0,0.0,0.0,0.0,0.0,0.0,0.0,0.0,0.0,0.0,0.0,0.0,0.0,0.0,0.0,0.0,0.0,0.0,0.0,0.0,0.0,0.0,0.0,0.0,0.0,0.0,0.0,0.0,-2.6983,-2.6983,-2.6983,-2.6983,-2.6983,-2.6983,-2.6983,-2.6983,-2.6983,-2.6983,-2.6983,-2.6983,-2.6983,-2.6983,-2.6983,-2.6983,-2.6983,-2.6983,-2.6983,-2.6983,-2.6983,-2.6983,-2.6983,-2.6983,-2.6983,-2.6983,-2.6983,-2.6983,-2.6983,-2.6983,-2.6983,-2.6983,-2.6983,-2.6983,-2.6983,-2.6983,-2.6983,-2.6983,-2.6983,-2.6983,-2.6983,-2.6983,-2.6983,-2.6983,-2.6983,-2.6983,-2.6983,-2.6983,-2.6983,-2.6983,-2.6983,-2.6983,-2.6983,-2.6983,-2.6983,-2.6983,-2.6983,-2.6983,-2.6983,-2.6983,-2.6983,-2.6983,-2.6983,-2.6983,-2.6983,-2.6983,-2.6983,-2.6983,-2.6983,-2.6983,-2.6983,-2.6983,-2.6983,-2.6983,-2.6983,-2.6983,-2.6983,-2.6983,-2.6983,-2.6983,-2.6983,-2.6983,-2.6822,-3.3418,0.0,0.0,0.0,0.0,0.0,0.0,0.0,0.0,0.0,0.0,0.0,0.0,0.0,0.0,0.0,0.0,0.0,0.0,0.0,0.0,0.0,0.0,0.0,0.0,0.0,0.0,0.0,0.0,-2.6983,-2.6983,-2.6983,-2.6983,-2.6983,-2.6983,-2.6983,-2.6983,-2.6983,-2.6983,-2.6983,-2.6983,-2.6983,-2.6983,-2.6983,-2.6983,-2.6983,-2.6983,-2.6983,-2.6983,-2.6983,-2.6983,-2.6983,-2.6983,-2.6983,-2.6983,-2.6983,-2.6983,-2.6983,-2.6983,-2.6983,-2.6983,-2.6983,-2.6983,-2.6983,-2.6983,-2.6983,-2.6983,-2.6983,-2.6983,-2.6983,-2.6983,-2.6983,-2.6983,-2.6983,-2.6983,-2.6983,-2.6983,-2.6983,-2.6983,-2.6983,-2.6983,-2.6983,-2.6983,-2.6983,-2.6983,-2.6983,-2.6983,-2.6983,-2.6983,-2.6983,-2.6983,-2.6983,-2.6983,-2.6983,-2.6983,-2.6983,-2.6983,-2.6983,-2.6983,-2.6983,-2.6983,-2.6983,-2.6983,-2.6983,-2.6983,-2.6983,-2.6983,-2.6983,-2.6983,-2.6983,-2.6983,-2.6822,-3.3418,-3.3418,-3.3418,-3.3418,0.0,0.0,0.0,0.0,0.0,0.0,0.0,0.0,0.0,0.0,0.0,0.0,0.0,0.0,0.0,0.0,0.0,0.0,0.0,0.0,0.0,0.0,0.0,0.0,-2.6983,-2.6983,-2.6983,-2.6983,-2.6983,-2.6983,-2.6983,-2.6983,-2.6983,-2.6983,-2.6983,-2.6983,-2.6983,-2.6983,-2.6983,-2.6983,-2.6983,-2.6983,-2.6983,-2.6983,-2.6983,-2.6983,-2.6983,-2.6983,-2.6983,-2.6983,-2.6983,-2.6983,-2.6983,-2.6983,-2.6983,-2.6983,-2.6983,-2.6983,-2.6983,-2.6983,-2.6983,-2.6983,-2.6983,-2.6983,-2.6983,-2.6983,-2.6983,-2.6983,-2.6983,-2.6983,-2.6983,-2.6983,-2.6983,-2.6983,-2.6983,-2.6983,-2.6983,-2.6983,-2.6983,-2.6983,-2.6983,-2.6983,-2.6983,-2.6983,-2.6983,-2.6983,-2.6983,-2.6983,-2.6983,-2.6983,-2.6983,-2.6983,-2.6983,-2.6983,-2.6983,-2.6983,-2.6983,-2.6983,-2.6983,-2.6983,-2.6983,-2.6983,-2.6983,-2.6983,-2.6983,-2.6983,-2.6983,-2.6749,-3.3418,-3.3418,-3.3418,-3.3418,-3.3418,0.0,-3.3418,-3.3418,0.0,0.0,0.0,0.0,0.0,0.0,0.0,0.0,0.0,0.0,0.0,0.0,0.0,0.0,0.0,0.0,0.0,0.0,0.0,-2.6881,-2.6881,-2.6881,-2.6881,-2.6881,-2.6896,-2.6939,-2.6939,-2.6954,-2.6983,-2.6983,-2.6983,-2.6983,-2.6983,-2.6983,-2.6983,-2.6983,-2.6983,-2.6983,-2.6983,-2.6983,-2.6983,-2.6983,-2.6983,-2.6983,-2.6983,-2.6983,-2.6983,-2.6983,-2.6983,-2.6983,-2.6983,-2.6983,-2.6983,-2.6983,-2.6983,-2.6983,-2.6983,-2.6983,-2.6983,-2.6983,-2.6983,-2.6983,-2.6983,-2.6983,-2.6983,-2.6983,-2.6983,-2.6983,-2.6983,-2.6983,-2.6983,-2.6983,-2.6983,-2.6983,-2.6983,-2.6983,-2.6983,-2.6983,-2.6983,-2.6983,-2.6983,-2.6983,-2.6983,-2.6983,-2.6983,-2.6983,-2.6983,-2.6983,-2.6983,-2.6983,-2.6983,-2.6983,-2.6983,-2.6983,-2.6983,-2.6983,-2.6983,-2.6983,-2.6983,-2.6983,-2.6983,-2.6983,-2.6983,-2.6647,-3.3418,-3.3418,-3.3418,-3.3418,-3.3418,0.0,-3.3418,-3.3418,0.0,0.0,0.0,0.0,0.0,0.0,0.0,0.0,0.0,0.0,0.0,0.0,0.0,0.0,0.0,0.0,0.0,0.0,-2.7516,-2.6279,-2.6208,-2.6208,-2.6208,-2.6208,-2.6325,-2.6588,-2.6603,-2.672,-2.6983,-2.6983,-2.6983,-2.6983,-2.6983,-2.6983,-2.6983,-2.6983,-2.6983,-2.6983,-2.6983,-2.6983,-2.6983,-2.6983,-2.6983,-2.6983,-2.6983,-2.6983,-2.6983,-2.6983,-2.6983,-2.6983,-2.6983,-2.6983,-2.6983,-2.6983,-2.6983,-2.6983,-2.6983,-2.6983,-2.6983,-2.6983,-2.6983,-2.6983,-2.6983,-2.6983,-2.6983,-2.6983,-2.6983,-2.6983,-2.6983,-2.6983,-2.6983,-2.6983,-2.6983,-2.6983,-2.6983,-2.6983,-2.6983,-2.6983,-2.6983,-2.6983,-2.6983,-2.6983,-2.6983,-2.6983,-2.6983,-2.6983,-2.6983,-2.6983,-2.6983,-2.6983,-2.6983,-2.6983,-2.6983,-2.6983,-2.6983,-2.6983,-2.6983,-2.6983,-2.6983,-2.6983,-2.6983,-2.6983,-2.6983,-2.6647,0.0,0.0,-3.3418,-3.3418,0.0,0.0,0.0,-3.3418,0.0,0.0,0.0,0.0,0.0,0.0,0.0,0.0,0.0,0.0,0.0,0.0,0.0,0.0,0.0,0.0,0.0,0.0,-2.6843,-2.6088,-2.6018,-2.6018,-2.6018,-2.6018,-2.6091,-2.6252,-2.6266,-2.6413,-2.6749,-2.6749,-2.6822,-2.6983,-2.6983,-2.6983,-2.6983,-2.6983,-2.6983,-2.6983,-2.6983,-2.6983,-2.6983,-2.6983,-2.6983,-2.6983,-2.6983,-2.6983,-2.6983,-2.6983,-2.6983,-2.6983,-2.6983,-2.6983,-2.6983,-2.6983,-2.6983,-2.6983,-2.6983,-2.6983,-2.6983,-2.6983,-2.6983,-2.6983,-2.6983,-2.6983,-2.6983,-2.6983,-2.6983,-2.6983,-2.6983,-2.6983,-2.6983,-2.6983,-2.6983,-2.6983,-2.6983,-2.6983,-2.6983,-2.6983,-2.6983,-2.6983,-2.6983,-2.6983,-2.6983,-2.6983,-2.6983,-2.6983,-2.6983,-2.6983,-2.6983,-2.6983,-2.6983,-2.6983,-2.6983,-2.6983,-2.6983,-2.6983,-2.6983,-2.6983,-2.6983,-2.6983,-2.6983,-2.6983,-2.6983,-2.6647,0.0,0.0,0.0,0.0,0.0,-3.3418,0.0,0.0,0.0,-3.3418,0.0,0.0,0.0,0.0,0.0,0.0,0.0,0.0,0.0,0.0,0.0,0.0,0.0,0.0,0.0,0.0,-2.5827,-2.5827,-2.5827,-2.5827,-2.5827,-2.5827,-2.5857,-2.5915,-2.593,-2.6076,-2.6413,-2.6471,-2.6632,-2.6896,-2.6969,-2.6983,-2.6983,-2.6983,-2.6983,-2.6983,-2.6983,-2.6983,-2.6983,-2.6983,-2.6983,-2.6983,-2.6983,-2.6983,-2.6983,-2.6983,-2.6983,-2.6983,-2.6983,-2.6983,-2.6983,-2.6983,-2.6983,-2.6983,-2.6983,-2.6983,-2.6983,-2.6983,-2.6983,-2.6983,-2.6983,-2.6983,-2.6983,-2.6983,-2.6983,-2.6983,-2.6983,-2.6983,-2.6983,-2.6983,-2.6983,-2.6983,-2.6983,-2.6983,-2.6983,-2.6983,-2.6983,-2.6983,-2.6983,-2.6983,-2.6983,-2.6983,-2.6983,-2.6983,-2.6983,-2.6983,-2.6983,-2.6983,-2.6983,-2.6983,-2.6983,-2.6983,-2.6983,-2.6983,-2.6983,-2.6983,-2.6983,-2.6983,-2.6983,-2.6983,-2.6983,-2.6647,0.0,0.0,0.0,0.0,-3.3418,0.0,0.0,0.0,-3.3418,-3.3418,0.0,0.0,0.0,0.0,0.0,0.0,0.0,0.0,0.0,0.0,0.0,0.0,0.0,0.0,0.0,0.0,0.0,-2.5237,-2.5237,-2.5237,-2.5237,-2.5237,-2.5301,-2.5579,-2.5593,-2.574,-2.6061,-2.6354,-2.653,-2.6559,-2.6852,-2.6983,-2.6983,-2.6983,-2.6983,-2.6983,-2.6983,-2.6983,-2.6983,-2.6983,-2.6983,-2.6983,-2.6983,-2.6983,-2.6983,-2.6983,-2.6983,-2.6983,-2.6983,-2.6983,-2.6983,-2.6983,-2.6983,-2.6983,-2.6983,-2.6983,-2.6983,-2.6983,-2.6983,-2.6983,-2.6983,-2.6983,-2.6983,-2.6983,-2.6983,-2.6983,-2.6983,-2.6983,-2.6983,-2.6983,-2.6983,-2.6983,-2.6983,-2.6983,-2.6983,-2.6983,-2.6983,-2.6983,-2.6983,-2.6983,-2.6983,-2.6983,-2.6983,-2.6983,-2.6983,-2.6983,-2.6983,-2.6983,-2.6983,-2.6983,-2.6983,-2.6983,-2.6983,-2.6983,-2.6983,-2.6983,-2.6983,-2.6983,-2.6983,-2.6983,-2.6983,-2.6647,0.0,0.0,0.0,0.0,0.0,0.0,-3.3418,0.0,-3.3418,0.0,0.0,0.0,0.0,0.0,0.0,0.0,0.0,0.0,0.0,0.0,0.0,0.0,0.0,0.0,0.0,0.0,0.0,0.0,0.0,-2.5119,-2.5119,-2.5119,-2.5178,-2.5242,-2.5257,-2.5403,-2.574,-2.6061,-2.631,-2.65,-2.6837,-2.6983,-2.6983,-2.6983,-2.6983,-2.6983,-2.6983,-2.6983,-2.6983,-2.6983,-2.6983,-2.6983,-2.6983,-2.6983,-2.6983,-2.6983,-2.6983,-2.6983,-2.6983,-2.6983,-2.6983,-2.6983,-2.6983,-2.6983,-2.6983,-2.6983,-2.6983,-2.6983,-2.6983,-2.6983,-2.6983,-2.6983,-2.6983,-2.6983,-2.6983,-2.6983,-2.6983,-2.6983,-2.6983,-2.6983,-2.6983,-2.6983,-2.6983,-2.6983,-2.6983,-2.6983,-2.6983,-2.6983,-2.6983,-2.6983,-2.6983,-2.6983,-2.6983,-2.6983,-2.6983,-2.6983,-2.6983,-2.6983,-2.6983,-2.6983,-2.6983,-2.6983,-2.6983,-2.6983,-2.6983,-2.6983,-2.6983,-2.6983,-2.6983,-2.6983,-2.6983,-2.6647,-3.4883,0.0,0.0,0.0,0.0,0.0,0.0,0.0,0.0,0.0,0.0,0.0,0.0,0.0,-3.3418,-3.3418,0.0,0.0,0.0,0.0,0.0,0.0,0.0,0.0,0.0,0.0,0.0,0.0,-2.5119,0.0,-2.5119,-2.5119,-2.5119,-2.5119,-2.5119,-2.5169,-2.5403,-2.5813,-2.6135,-2.6369,-2.6793,-2.6983,-2.6983,-2.6983,-2.6983,-2.6983,-2.6983,-2.6983,-2.6983,-2.6983,-2.6983,-2.6983,-2.6983,-2.6983,-2.6983,-2.6983,-2.6983,-2.6983,-2.6983,-2.6983,-2.6983,-2.6983,-2.6983,-2.6983,-2.6983,-2.6983,-2.6983,-2.6983,-2.6983,-2.6983,-2.6983,-2.6983,-2.6983,-2.6983,-2.6983,-2.6983,-2.6983,-2.6983,-2.6983,-2.6983,-2.6983,-2.6983,-2.6983,-2.6983,-2.6983,-2.6983,-2.6983,-2.6983,-2.6983,-2.6983,-2.6983,-2.6983,-2.6983,-2.6983,-2.6983,-2.6983,-2.6983,-2.6983,-2.6983,-2.6983,-2.6983,-2.6983,-2.6983,-2.6983,-2.6983,-2.6983,-2.6983,-2.6983,-2.6983,-2.6983,-2.6983,-2.6647,0.0,0.0,0.0,-3.4668,0.0,0.0,0.0,0.0,-3.3418,0.0,0.0,0.0,0.0,-3.3418,-3.3418,-3.3418,-3.3418,0.0,0.0,0.0,0.0,0.0,0.0,0.0,0.0,0.0,0.0,0.0,-2.5119,0.0,-2.5119,-2.5119,-2.5119,-2.5119,-2.5119,-2.5134,-2.5134,-2.5696,-2.6018,-2.6047,-2.6676,-2.6983,-2.6983,-2.6983,-2.6983,-2.6983,-2.6983,-2.6983,-2.6983,-2.6983,-2.6983,-2.6983,-2.6983,-2.6983,-2.6983,-2.6983,-2.6983,-2.6983,-2.6983,-2.6983,-2.6983,-2.6983,-2.6983,-2.6983,-2.6983,-2.6983,-2.6983,-2.6983,-2.6983,-2.6983,-2.6983,-2.6983,-2.6983,-2.6983,-2.6983,-2.6983,-2.6983,-2.6983,-2.6983,-2.6983,-2.6983,-2.6983,-2.6983,-2.6983,-2.6983,-2.6983,-2.6983,-2.6983,-2.6983,-2.6983,-2.6983,-2.6983,-2.6983,-2.6983,-2.6983,-2.6983,-2.6983,-2.6983,-2.6983,-2.6983,-2.6983,-2.6983,-2.6983,-2.6983,-2.6983,-2.6983,-2.6983,-2.6983,-2.6983,-2.6983,-2.6983,-2.6647,0.0,0.0,-3.5156,-3.5156,0.0,0.0,0.0,0.0,0.0,0.0,0.0,0.0,0.0,-3.3418,-3.3418,-3.3418,-3.3418,-3.2575,0.0,0.0,0.0,0.0,0.0,0.0,0.0,0.0,0.0,-2.5119,-2.5119,-2.5119,0.0,-2.5119,-2.5119,-2.5119,-2.5119,-2.5119,-2.5119,-2.5696,-2.6018,-2.6032,-2.6676,-2.6983,-2.6983,-2.6983,-2.6983,-2.6983,-2.6983,-2.6983,-2.6983,-2.6983,-2.6983,-2.6983,-2.6983,-2.6983,-2.6983,-2.6983,-2.6983,-2.6983,-2.6983,-2.6983,-2.6983,-2.6983,-2.6983,-2.6983,-2.6983,-2.6983,-2.6983,-2.6983,-2.6983,-2.6983,-2.6983,-2.6983,-2.6983,-2.6983,-2.6983,-2.6983,-2.6983,-2.6983,-2.6983,-2.6983,-2.6983,-2.6983,-2.6983,-2.6983,-2.6983,-2.6983,-2.6983,-2.6983,-2.6983,-2.6983,-2.6983,-2.6983,-2.6983,-2.6983,-2.6983,-2.6983,-2.6983,-2.6983,-2.6983,-2.6983,-2.6983,-2.6983,-2.6983,-2.6983,-2.6983,-2.6983,-2.6983,-2.6983,-2.6983,-2.6983,-2.6764,-2.6442,-3.6016,-3.582,0.0,-3.5605,-3.5273,0.0,-3.4941,0.0,0.0,0.0,0.0,0.0,0.0,-3.3535,-3.3418,-3.3418,-3.2956,-3.1662,0.0,-2.6501,0.0,0.0,0.0,0.0,0.0,0.0,-2.5119,-2.5119,-2.5119,-2.5119,0.0,0.0,-2.5119,-2.5119,-2.5119,-2.5119,-2.5119,-2.5696,-2.6018,-2.6032,-2.6676,-2.6983,-2.6983,-2.6983,-2.6983,-2.6983,-2.6983,-2.6983,-2.6983,-2.6983,-2.6983,-2.6983,-2.6983,-2.6983,-2.6983,-2.6983,-2.6983,-2.6983,-2.6983,-2.6983,-2.6983,-2.6983,-2.6983,-2.6983,-2.6983,-2.6983,-2.7013,-2.713,-2.7086,-2.7013,-2.713,-2.7071,-2.6983,-2.6983,-2.6983,-2.6983,-2.6983,-2.6983,-2.6983,-2.6983,-2.6983,-2.6983,-2.6983,-2.6983,-2.6983,-2.6983,-2.6983,-2.6983,-2.6983,-2.6983,-2.6983,-2.6983,-2.6983,-2.6983,-2.6983,-2.6983,-2.6983,-2.6983,-2.6983,-2.6983,-2.6983,-2.6983,-2.6939,-2.6822,-2.6925,-2.6939,-2.6822,-2.6939,-2.6983,-2.6983,-2.653,-2.6222]}]]